[[{"header":{"parameterUnit":"m.s-1","parameterCategory":1,"la1":31.0,"la2":29.5877,"lo1":-88.7671,"lo2":-86.6584,"dx":0.0162,"dy":0.0185,"nx":115,"ny":88,"refTime":"2022-11-10T18:00:00:Z","depth":0,"parameterNumber":2,"parameterNumberName":"U-component_of_WINDS"},"data":[0.0,0.0,0.0,0.0,0.0,0.0,0.0,0.0,0.0,0.0,0.0,0.0,0.0,0.0,0.0,0.0,0.0,0.0,0.0,0.0,0.0,0.0,0.0,0.0,0.0,0.0,0.0,0.0,0.0,0.0,0.0,0.0,0.0,0.0,0.0,0.0,0.0,0.0,0.0,0.0,0.0,0.0,0.0,0.0,0.0,0.0,0.0,0.0,0.0,0.0,0.0,0.0,0.0,0.0,0.0,0.0,0.0,0.0,0.0,0.0,0.0,0.0,0.0,0.0,0.0,0.0,0.0,0.0,0.0,0.0,0.0,0.0,0.0,0.0,0.0,0.0,0.0,0.0,0.0,0.0,0.0,0.0,0.0,0.0,0.0,0.0,0.0,0.0,0.0,0.0,0.0,0.0,0.0,0.0,0.0,0.0,0.0,0.0,0.0,0.0,0.0,0.0,0.0,0.0,0.0,0.0,0.0,0.0,0.0,0.0,0.0,0.0,0.0,0.0,0.0,0.0,0.0,0.0,0.0,0.0,0.0,0.0,0.0,0.0,0.0,0.0,0.0,0.0,0.0,0.0,0.0,0.0,0.0,0.0,0.0,0.0,0.0,0.0,0.0,0.0,0.0,0.0,0.0,0.0,0.0,0.0,0.0,0.0,0.0,0.0,0.0,0.0,0.0,0.0,0.0,0.0,0.0,0.0,0.0,0.0,0.0,0.0,0.0,0.0,0.0,0.0,0.0,0.0,0.0,0.0,0.0,0.0,0.0,0.0,0.0,0.0,0.0,0.0,0.0,0.0,0.0,0.0,0.0,0.0,0.0,0.0,0.0,0.0,0.0,0.0,0.0,0.0,0.0,0.0,0.0,0.0,0.0,0.0,0.0,0.0,0.0,0.0,0.0,0.0,0.0,0.0,0.0,0.0,0.0,0.0,0.0,0.0,0.0,0.0,0.0,0.0,0.0,0.0,0.0,0.0,0.0,0.0,0.0,0.0,0.0,0.0,0.0,0.0,0.0,0.0,0.0,0.0,0.0,0.0,0.0,0.0,0.0,0.0,0.0,0.0,0.0,0.0,0.0,0.0,0.0,0.0,0.0,0.0,0.0,0.0,0.0,0.0,0.0,0.0,0.0,0.0,0.0,0.0,0.0,0.0,0.0,0.0,0.0,0.0,0.0,0.0,0.0,0.0,0.0,0.0,0.0,0.0,0.0,0.0,0.0,0.0,0.0,0.0,0.0,0.0,0.0,0.0,0.0,0.0,0.0,0.0,0.0,0.0,0.0,0.0,0.0,0.0,0.0,0.0,0.0,0.0,0.0,0.0,0.0,0.0,0.0,0.0,0.0,0.0,0.0,0.0,0.0,0.0,0.0,0.0,0.0,0.0,0.0,0.0,0.0,0.0,0.0,0.0,0.0,0.0,0.0,0.0,0.0,0.0,0.0,0.0,0.0,0.0,0.0,0.0,0.0,0.0,0.0,0.0,0.0,0.0,0.0,0.0,0.0,0.0,0.0,0.0,0.0,0.0,0.0,0.0,0.0,0.0,0.0,0.0,0.0,0.0,0.0,0.0,0.0,0.0,0.0,0.0,0.0,0.0,0.0,0.0,0.0,0.0,0.0,0.0,0.0,0.0,0.0,0.0,0.0,0.0,0.0,0.0,0.0,0.0,0.0,0.0,0.0,0.0,0.0,0.0,0.0,0.0,0.0,0.0,0.0,0.0,0.0,0.0,0.0,0.0,0.0,0.0,0.0,0.0,0.0,0.0,0.0,0.0,0.0,0.0,0.0,0.0,0.0,0.0,0.0,0.0,0.0,0.0,0.0,0.0,0.0,0.0,0.0,0.0,0.0,0.0,0.0,0.0,0.0,0.0,0.0,0.0,0.0,0.0,0.0,0.0,0.0,0.0,0.0,0.0,0.0,0.0,0.0,0.0,0.0,0.0,0.0,0.0,0.0,0.0,0.0,0.0,0.0,0.0,0.0,0.0,0.0,0.0,0.0,0.0,0.0,0.0,0.0,0.0,0.0,0.0,0.0,0.0,0.0,0.0,0.0,0.0,0.0,0.0,0.0,0.0,0.0,0.0,0.0,0.0,0.0,0.0,0.0,0.0,0.0,0.0,0.0,0.0,0.0,0.0,0.0,0.0,0.0,0.0,0.0,0.0,0.0,0.0,0.0,0.0,0.0,0.0,0.0,0.0,0.0,0.0,0.0,0.0,0.0,0.0,0.0,0.0,0.0,0.0,0.0,0.0,0.0,0.0,0.0,0.0,0.0,0.0,0.0,0.0,0.0,0.0,0.0,0.0,0.0,0.0,0.0,0.0,0.0,0.0,0.0,0.0,0.0,0.0,0.0,0.0,0.0,0.0,0.0,0.0,0.0,0.0,0.0,0.0,0.0,0.0,0.0,0.0,0.0,0.0,0.0,0.0,0.0,0.0,0.0,0.0,0.0,0.0,0.0,0.0,0.0,0.0,0.0,0.0,0.0,0.0,0.0,0.0,0.0,0.0,0.0,0.0,0.0,0.0,0.0,0.0,0.0,0.0,0.0,0.0,0.0,0.0,0.0,0.0,0.0,0.0,0.0,0.0,0.0,0.0,0.0,0.0,0.0,0.0,0.0,0.0,0.0,0.0,0.0,0.0,0.0,0.0,0.0,0.0,0.0,0.0,0.0,0.0,0.0,0.0,0.0,0.0,0.0,0.0,0.0,0.0,0.0,0.0,0.0,0.0,0.0,0.0,0.0,0.0,0.0,0.0,0.0,0.0,0.0,0.0,0.0,0.0,0.0,0.0,0.0,0.0,0.0,0.0,0.0,0.0,0.0,0.0,0.0,0.0,0.0,0.0,0.0,0.0,0.0,0.0,0.0,0.0,0.0,0.0,0.0,0.0,0.0,0.0,0.0,0.0,0.0,0.0,0.0,0.0,0.0,0.0,0.0,0.0,0.0,0.0,0.0,0.0,0.0,0.0,0.0,0.0,0.0,0.0,0.0,0.0,0.0,0.0,0.0,0.0,0.0,0.0,0.0,0.0,0.0,0.0,0.0,0.0,0.0,0.0,0.0,0.0,0.0,0.0,0.0,0.0,0.0,0.0,0.0,0.0,0.0,0.0,0.0,0.0,0.0,0.0,0.0,0.0,0.0,0.0,0.0,0.0,0.0,0.0,0.0,0.0,0.0,0.0,0.0,0.0,0.0,0.0,0.0,0.0,0.0,0.0,0.0,0.0,0.0,0.0,0.0,0.0,0.0,0.0,0.0,0.0,0.0,0.0,0.0,0.0,0.0,0.0,0.0,0.0,0.0,0.0,0.0,0.0,0.0,0.0,0.0,0.0,0.0,0.0,0.0,0.0,0.0,0.0,0.0,0.0,0.0,0.0,0.0,0.0,0.0,0.0,0.0,0.0,0.0,0.0,0.0,0.0,0.0,0.0,0.0,0.0,0.0,0.0,0.0,0.0,0.0,0.0,0.0,0.0,0.0,0.0,0.0,0.0,0.0,0.0,0.0,0.0,0.0,0.0,0.0,0.0,0.0,0.0,0.0,0.0,0.0,0.0,0.0,0.0,0.0,0.0,0.0,0.0,0.0,0.0,0.0,0.0,0.0,0.0,0.0,0.0,0.0,0.0,0.0,0.0,0.0,0.0,0.0,0.0,0.0,0.0,0.0,0.0,0.0,0.0,0.0,0.0,0.0,0.0,0.0,0.0,0.0,0.0,0.0,0.0,0.0,0.0,0.0,0.0,0.0,0.0,0.0,0.0,0.0,0.0,0.0,0.0,0.0,0.0,0.0,0.0,0.0,0.0,0.0,0.0,0.0,0.0,0.0,0.0,0.0,0.0,0.0,0.0,0.0,0.0,0.0,0.0,0.0,0.0,0.0,0.0,0.0,0.0,0.0,0.0,0.0,0.0,0.0,0.0,0.0,0.0,0.0,0.0,0.0,0.0,0.0,0.0,0.0,0.0,0.0,0.0,0.0,0.0,0.0,0.0,0.0,0.0,0.0,0.0,0.0,0.0,0.0,0.0,0.0,0.0,0.0,0.0,0.0,0.0,0.0,0.0,0.0,0.0,0.0,0.0,0.0,0.0,0.0,0.0,0.0,0.0,0.0,0.0,0.0,0.0,0.0,0.0,0.0,0.0,0.0,0.0,0.0,0.0,0.0,0.0,0.0,0.0,0.0,0.0,0.0,0.0,0.0,0.0,0.0,0.0,0.0,0.0,0.0,0.0,0.0,0.0,0.0,0.0,0.0,0.0,0.0,0.0,2.2986,0.0,0.0,0.0,2.1488,0.0,0.0,0.0,0.0,0.0,0.0,0.0,0.0,0.0,0.0,0.0,0.0,0.0,0.0,0.0,0.0,0.0,0.0,0.0,0.0,0.0,0.0,0.0,0.0,0.0,0.0,0.0,0.0,0.0,0.0,0.0,0.0,0.0,0.0,0.0,0.0,0.0,0.0,0.0,0.0,0.0,0.0,0.0,0.0,0.0,0.0,0.0,0.0,0.0,0.0,0.0,0.0,0.0,0.0,0.0,0.0,0.0,0.0,0.0,0.0,0.0,0.0,0.0,0.0,0.0,0.0,0.0,0.0,0.0,0.0,0.0,0.0,0.0,0.0,0.0,0.0,0.0,0.0,0.0,0.0,0.0,0.0,0.0,0.0,0.0,0.0,0.0,0.0,0.0,0.0,0.0,0.0,0.0,0.0,0.0,0.0,0.0,0.0,0.0,0.0,0.0,0.0,0.0,0.0,0.0,0.0,0.0,0.0,0.0,0.0,2.2682,2.1539,2.2564,2.2561,2.1225,0.0,0.0,0.0,0.0,0.0,0.0,0.0,0.0,0.0,0.0,0.0,0.0,0.0,0.0,0.0,0.0,0.0,0.0,0.0,0.0,0.0,0.0,0.0,0.0,0.0,0.0,0.0,0.0,0.0,0.0,0.0,0.0,0.0,0.0,0.0,0.0,0.0,0.0,0.0,0.0,0.0,0.0,0.0,0.0,0.0,0.0,0.0,0.0,0.0,0.0,0.0,0.0,0.0,0.0,0.0,0.0,0.0,0.0,0.0,0.0,0.0,0.0,0.0,0.0,0.0,0.0,0.0,0.0,0.0,0.0,0.0,0.0,0.0,0.0,0.0,0.0,0.0,0.0,0.0,0.0,0.0,0.0,0.0,0.0,0.0,0.0,0.0,0.0,0.0,0.0,0.0,0.0,0.0,0.0,0.0,0.0,0.0,0.0,0.0,0.0,0.0,0.0,0.0,0.0,0.0,0.0,0.0,0.0,0.0,0.0,0.0,0.0,2.2994,2.2928,2.1407,0.0,0.0,0.0,0.0,0.0,0.0,0.0,0.0,0.0,0.0,0.0,0.0,0.0,0.0,0.0,0.0,0.0,0.0,0.0,0.0,0.0,0.0,0.0,0.0,0.0,0.0,0.0,0.0,0.0,0.0,0.0,0.0,0.0,0.0,0.0,0.0,0.0,0.0,0.0,0.0,0.0,0.0,0.0,0.0,0.0,0.0,0.0,0.0,0.0,0.0,0.0,0.0,0.0,0.0,0.0,0.0,0.0,0.0,0.0,0.0,0.0,0.0,0.0,0.0,0.0,0.0,0.0,0.0,0.0,0.0,0.0,0.0,0.0,0.0,0.0,0.0,0.0,0.0,0.0,0.0,0.0,0.0,0.0,0.0,0.0,0.0,0.0,0.0,0.0,0.0,0.0,0.0,0.0,0.0,0.0,0.0,0.0,0.0,0.0,0.0,0.0,0.0,0.0,0.0,0.0,0.0,0.0,0.0,0.0,0.0,2.3092,2.3822,2.3566,0.0,2.2381,0.0,0.0,0.0,0.0,0.0,0.0,0.0,0.0,0.0,0.0,0.0,0.0,0.0,0.0,0.0,0.0,0.0,0.0,0.0,0.0,0.0,0.0,0.0,0.0,0.0,0.0,0.0,0.0,0.0,0.0,0.0,0.0,0.0,0.0,0.0,0.0,0.0,0.0,0.0,0.0,0.0,0.0,0.0,0.0,0.0,0.0,0.0,0.0,0.0,0.0,0.0,0.0,0.0,0.0,0.0,0.0,0.0,0.0,0.0,0.0,0.0,0.0,0.0,0.0,0.0,0.0,0.0,0.0,0.0,0.0,0.0,0.0,0.0,0.0,0.0,0.0,0.0,0.0,0.0,0.0,0.0,0.0,0.0,0.0,0.0,0.0,0.0,0.0,0.0,0.0,0.0,0.0,0.0,0.0,0.0,0.0,0.0,0.0,0.0,0.0,0.0,0.0,0.0,0.0,0.0,0.0,0.0,0.0,0.0,0.0,2.3284,2.3295,2.3573,2.3211,0.0,0.0,0.0,0.0,0.0,0.0,0.0,0.0,0.0,0.0,0.0,0.0,0.0,0.0,0.0,0.0,0.0,0.0,0.0,0.0,0.0,0.0,0.0,0.0,0.0,0.0,0.0,0.0,0.0,0.0,0.0,0.0,0.0,0.0,0.0,0.0,0.0,0.0,0.0,0.0,0.0,0.0,0.0,0.0,0.0,0.0,0.0,0.0,0.0,0.0,0.0,0.0,0.0,0.0,0.0,0.0,0.0,0.0,0.0,0.0,0.0,0.0,0.0,0.0,0.0,0.0,0.0,0.0,0.0,0.0,0.0,0.0,0.0,0.0,0.0,0.0,0.0,0.0,0.0,0.0,0.0,0.0,0.0,0.0,0.0,0.0,0.0,0.0,0.0,0.0,0.0,0.0,0.0,0.0,0.0,0.0,0.0,0.0,0.0,0.0,0.0,0.0,0.0,0.0,0.0,0.0,0.0,0.0,0.0,0.0,2.3838,2.4151,2.3908,2.415,2.3662,2.2369,0.0,0.0,0.0,0.0,0.0,0.0,0.0,0.0,0.0,0.0,0.0,0.0,0.0,0.0,0.0,0.0,0.0,0.0,0.0,0.0,0.0,0.0,0.0,0.0,0.0,0.0,0.0,0.0,0.0,0.0,0.0,0.0,0.0,0.0,0.0,0.0,0.0,0.0,0.0,0.0,0.0,0.0,0.0,0.0,0.0,0.0,0.0,0.0,0.0,0.0,0.0,0.0,0.0,0.0,0.0,0.0,0.0,0.0,0.0,0.0,0.0,0.0,0.0,0.0,0.0,0.0,0.0,0.0,0.0,0.0,0.0,0.0,0.0,0.0,0.0,0.0,0.0,0.0,0.0,0.0,0.0,0.0,0.0,0.0,0.0,0.0,0.0,0.0,0.0,0.0,0.0,0.0,0.0,0.0,0.0,0.0,0.0,0.0,0.0,0.0,0.0,0.0,0.0,0.0,0.0,0.0,0.0,0.0,2.4961,2.5376,2.5948,2.6396,2.5841,2.4722,0.0,0.0,0.0,0.0,0.0,0.0,0.0,0.0,0.0,0.0,0.0,0.0,0.0,0.0,0.0,0.0,0.0,0.0,0.0,0.0,0.0,0.0,0.0,0.0,0.0,0.0,0.0,0.0,0.0,0.0,0.0,0.0,0.0,0.0,0.0,0.0,0.0,0.0,0.0,0.0,0.0,0.0,0.0,0.0,0.0,0.0,0.0,0.0,0.0,0.0,0.0,0.0,0.0,0.0,0.0,0.0,0.0,0.0,0.0,0.0,0.0,0.0,0.0,0.0,0.0,0.0,0.0,0.0,0.0,0.0,0.0,0.0,0.0,0.0,0.0,0.0,0.0,0.0,0.0,0.0,0.0,0.0,0.0,0.0,0.0,0.0,0.0,0.0,0.0,0.0,0.0,0.0,0.0,0.0,0.0,0.0,0.0,0.0,0.0,0.0,0.0,0.0,0.0,0.0,0.0,0.0,0.0,0.0,0.0,2.383,2.3768,2.4566,2.6105,2.4836,2.3963,0.0,0.0,0.0,0.0,0.0,0.0,0.0,0.0,0.0,0.0,0.0,0.0,0.0,0.0,0.0,0.0,0.0,0.0,0.0,0.0,0.0,0.0,0.0,0.0,0.0,0.0,0.0,0.0,0.0,0.0,0.0,0.0,0.0,0.0,0.0,0.0,0.0,0.0,0.0,0.0,0.0,0.0,0.0,0.0,0.0,0.0,0.0,0.0,0.0,0.0,0.0,0.0,0.0,0.0,0.0,0.0,0.0,0.0,0.0,0.0,0.0,0.0,0.0,0.0,0.0,0.0,0.0,0.0,0.0,0.0,0.0,0.0,0.0,0.0,0.0,0.0,0.0,0.0,0.0,0.0,0.0,0.0,0.0,0.0,0.0,0.0,0.0,0.0,0.0,0.0,0.0,0.0,0.0,0.0,0.0,0.0,0.0,0.0,0.0,0.0,0.0,0.0,0.0,0.0,0.0,0.0,0.0,0.0,0.0,2.4662,2.4708,2.5184,2.6105,2.4835,2.3786,0.0,0.0,0.0,0.0,0.0,0.0,0.0,0.0,0.0,0.0,0.0,0.0,0.0,0.0,0.0,0.0,0.0,0.0,0.0,0.0,0.0,0.0,0.0,0.0,0.0,0.0,0.0,0.0,0.0,0.0,0.0,0.0,0.0,0.0,0.0,0.0,0.0,0.0,0.0,0.0,0.0,0.0,0.0,0.0,0.0,0.0,0.0,0.0,0.0,0.0,0.0,0.0,0.0,0.0,0.0,0.0,0.0,0.0,0.0,0.0,0.0,0.0,0.0,0.0,0.0,0.0,0.0,0.0,0.0,0.0,0.0,0.0,0.0,0.0,0.0,0.0,0.0,0.0,0.0,0.0,0.0,0.0,0.0,0.0,0.0,0.0,0.0,0.0,0.0,0.0,0.0,0.0,0.0,0.0,0.0,0.0,0.0,0.0,0.0,0.0,0.0,0.0,0.0,0.0,0.0,0.0,0.0,0.0,2.5906,2.8033,2.8548,2.7998,2.6649,2.6045,2.4366,0.0,0.0,0.0,0.0,0.0,0.0,0.0,0.0,0.0,0.0,0.0,0.0,0.0,0.0,0.0,0.0,0.0,0.0,0.0,0.0,0.0,0.0,0.0,0.0,0.0,0.0,0.0,0.0,0.0,0.0,0.0,0.0,0.0,0.0,0.0,0.0,0.0,0.0,0.0,0.0,0.0,0.0,0.0,0.0,0.0,0.0,0.0,0.0,0.0,0.0,0.0,0.0,0.0,0.0,0.0,0.0,0.0,0.0,0.0,0.0,0.0,0.0,0.0,0.0,0.0,0.0,0.0,0.0,0.0,0.0,0.0,0.0,0.0,0.0,0.0,0.0,0.0,0.0,0.0,0.0,0.0,0.0,0.0,0.0,0.0,0.0,0.0,0.0,0.0,0.0,0.0,0.0,0.0,0.0,0.0,0.0,0.0,0.0,0.0,0.0,0.0,0.0,0.0,0.0,0.0,0.0,0.0,0.0,0.0,2.5495,2.7076,2.7754,2.7189,2.5945,2.4973,0.0,0.0,0.0,0.0,0.0,0.0,0.0,0.0,0.0,0.0,0.0,0.0,0.0,0.0,0.0,0.0,0.0,0.0,0.0,0.0,0.0,0.0,0.0,0.0,0.0,0.0,0.0,0.0,0.0,0.0,0.0,0.0,0.0,0.0,0.0,0.0,0.0,0.0,0.0,0.0,0.0,0.0,0.0,0.0,0.0,0.0,0.0,0.0,0.0,0.0,0.0,0.0,0.0,0.0,0.0,0.0,0.0,0.0,0.0,0.0,0.0,0.0,0.0,0.0,0.0,0.0,0.0,0.0,0.0,0.0,0.0,0.0,0.0,0.0,0.0,0.0,0.0,0.0,0.0,0.0,0.0,0.0,0.0,0.0,0.0,0.0,0.0,0.0,0.0,0.0,0.0,0.0,0.0,0.0,0.0,0.0,0.0,0.0,0.0,0.0,0.0,0.0,0.0,0.0,0.0,0.0,0.0,0.0,0.0,2.7062,2.909,2.987,2.9065,2.7704,2.6596,2.5704,0.0,0.0,0.0,0.0,0.0,0.0,0.0,0.0,0.0,0.0,0.0,0.0,0.0,0.0,0.0,0.0,0.0,0.0,0.0,0.0,0.0,0.0,0.0,0.0,0.0,0.0,0.0,0.0,0.0,0.0,0.0,0.0,0.0,0.0,0.0,0.0,0.0,0.0,0.0,0.0,0.0,0.0,0.0,0.0,0.0,0.0,0.0,0.0,0.0,0.0,0.0,0.0,0.0,0.0,0.0,0.0,0.0,0.0,0.0,0.0,0.0,0.0,0.0,0.0,0.0,0.0,0.0,0.0,0.0,0.0,0.0,0.0,0.0,0.0,0.0,0.0,0.0,0.0,0.0,0.0,0.0,0.0,0.0,0.0,0.0,0.0,0.0,0.0,0.0,0.0,0.0,0.0,0.0,0.0,0.0,0.0,0.0,0.0,0.0,0.0,0.0,0.0,0.0,0.0,0.0,0.0,0.0,0.0,3.1846,3.3974,3.4054,3.2026,3.1042,2.9024,0.0,0.0,0.0,0.0,0.0,0.0,0.0,0.0,0.0,0.0,0.0,0.0,0.0,0.0,0.0,0.0,0.0,0.0,0.0,0.0,0.0,0.0,0.0,0.0,0.0,0.0,0.0,0.0,0.0,0.0,0.0,0.0,0.0,0.0,0.0,0.0,0.0,0.0,0.0,0.0,0.0,0.0,0.0,0.0,0.0,0.0,0.0,0.0,0.0,0.0,0.0,0.0,0.0,0.0,0.0,0.0,0.0,0.0,0.0,0.0,0.0,0.0,0.0,0.0,0.0,0.0,0.0,0.0,0.0,0.0,0.0,0.0,0.0,0.0,0.0,0.0,0.0,0.0,0.0,0.0,0.0,0.0,0.0,0.0,0.0,0.0,0.0,0.0,0.0,0.0,0.0,0.0,0.0,0.0,0.0,0.0,0.0,0.0,0.0,0.0,0.0,0.0,0.0,0.0,0.0,0.0,0.0,0.0,0.0,3.4656,3.7079,3.7363,3.5304,3.2947,3.1185,0.0,0.0,0.0,0.0,0.0,0.0,0.0,0.0,0.0,0.0,0.0,0.0,0.0,0.0,0.0,0.0,0.0,0.0,0.0,0.0,0.0,0.0,0.0,0.0,0.0,0.0,0.0,0.0,0.0,0.0,0.0,0.0,0.0,0.0,0.0,0.0,0.0,0.0,0.0,0.0,0.0,0.0,0.0,0.0,0.0,0.0,0.0,0.0,0.0,0.0,0.0,0.0,0.0,0.0,0.0,0.0,0.0,0.0,0.0,0.0,0.0,0.0,0.0,0.0,0.0,0.0,0.0,0.0,0.0,0.0,0.0,0.0,0.0,0.0,0.0,0.0,0.0,0.0,0.0,0.0,0.0,0.0,0.0,0.0,0.0,0.0,0.0,0.0,0.0,0.0,0.0,0.0,0.0,0.0,0.0,0.0,0.0,0.0,0.0,0.0,0.0,0.0,0.0,0.0,0.0,0.0,0.0,0.0,3.4645,3.6965,3.9201,4.0086,3.9505,3.6282,3.3816,0.0,0.0,0.0,0.0,0.0,0.0,0.0,0.0,0.0,0.0,0.0,0.0,0.0,0.0,0.0,0.0,0.0,0.0,0.0,0.0,0.0,0.0,0.0,0.0,0.0,0.0,0.0,0.0,0.0,0.0,0.0,0.0,0.0,0.0,0.0,0.0,0.0,0.0,0.0,0.0,0.0,0.0,0.0,0.0,0.0,0.0,0.0,0.0,0.0,0.0,0.0,0.0,0.0,0.0,0.0,0.0,0.0,0.0,0.0,0.0,0.0,0.0,0.0,0.0,0.0,0.0,0.0,0.0,0.0,0.0,0.0,0.0,0.0,0.0,0.0,0.0,0.0,0.0,0.0,0.0,0.0,0.0,0.0,0.0,0.0,0.0,0.0,0.0,0.0,0.0,0.0,0.0,0.0,0.0,0.0,0.0,0.0,0.0,0.0,0.0,0.0,0.0,0.0,0.0,0.0,0.0,0.0,0.0,3.6425,3.8912,4.0523,4.2031,4.3443,3.9927,3.6603,0.0,0.0,0.0,0.0,0.0,0.0,0.0,0.0,0.0,0.0,0.0,0.0,0.0,0.0,0.0,0.0,0.0,0.0,0.0,0.0,0.0,0.0,0.0,0.0,0.0,0.0,0.0,0.0,0.0,0.0,0.0,0.0,0.0,0.0,0.0,0.0,0.0,0.0,0.0,0.0,0.0,0.0,0.0,0.0,0.0,0.0,0.0,0.0,0.0,0.0,0.0,0.0,0.0,0.0,0.0,0.0,0.0,0.0,0.0,0.0,0.0,0.0,0.0,0.0,0.0,0.0,0.0,0.0,0.0,0.0,0.0,0.0,0.0,0.0,0.0,0.0,0.0,0.0,0.0,0.0,0.0,0.0,0.0,0.0,0.0,0.0,0.0,0.0,0.0,0.0,0.0,0.0,0.0,0.0,0.0,0.0,0.0,0.0,0.0,0.0,0.0,0.0,0.0,0.0,0.0,0.0,0.0,0.0,3.7816,3.997,4.1605,4.2638,4.2974,4.0415,3.8058,0.0,0.0,0.0,0.0,0.0,0.0,0.0,0.0,0.0,0.0,0.0,0.0,0.0,0.0,0.0,0.0,0.0,0.0,0.0,0.0,0.0,0.0,0.0,0.0,0.0,0.0,0.0,0.0,0.0,0.0,0.0,0.0,0.0,0.0,0.0,0.0,0.0,0.0,0.0,0.0,0.0,0.0,0.0,0.0,0.0,0.0,0.0,0.0,2.6568,0.0,0.0,0.0,0.0,0.0,0.0,0.0,0.0,0.0,0.0,0.0,0.0,0.0,0.0,0.0,0.0,0.0,0.0,0.0,0.0,0.0,0.0,0.0,0.0,0.0,0.0,0.0,0.0,0.0,0.0,0.0,0.0,0.0,0.0,0.0,0.0,0.0,0.0,0.0,0.0,0.0,0.0,0.0,0.0,0.0,0.0,0.0,0.0,0.0,0.0,0.0,0.0,0.0,0.0,0.0,0.0,0.0,0.0,0.0,3.8718,4.1028,4.2423,4.3241,4.3433,4.2252,4.0098,0.0,0.0,0.0,0.0,0.0,0.0,0.0,0.0,0.0,0.0,0.0,0.0,0.0,0.0,0.0,0.0,0.0,0.0,0.0,0.0,0.0,0.0,0.0,0.0,0.0,0.0,0.0,0.0,0.0,0.0,0.0,0.0,0.0,0.0,0.0,0.0,0.0,0.0,0.0,0.0,0.0,0.0,0.0,0.0,0.0,0.0,0.0,0.0,0.0,0.0,0.0,0.0,0.0,0.0,0.0,0.0,0.0,0.0,0.0,0.0,0.0,0.0,0.0,0.0,0.0,0.0,0.0,0.0,0.0,0.0,0.0,0.0,0.0,0.0,0.0,0.0,0.0,0.0,0.0,0.0,0.0,0.0,0.0,0.0,0.0,0.0,0.0,0.0,0.0,0.0,0.0,0.0,0.0,0.0,0.0,0.0,0.0,0.0,0.0,0.0,0.0,0.0,0.0,0.0,0.0,0.0,0.0,3.643,3.9438,4.2086,4.3144,4.3866,4.4323,4.4347,4.2026,3.7345,0.0,0.0,0.0,0.0,0.0,0.0,0.0,0.0,0.0,0.0,0.0,0.0,0.0,0.0,0.0,0.0,0.0,0.0,0.0,0.0,0.0,0.0,0.0,0.0,0.0,0.0,0.0,0.0,0.0,0.0,0.0,0.0,0.0,0.0,0.0,0.0,0.0,0.0,2.4826,2.6579,0.0,0.0,0.0,0.0,0.0,0.0,0.0,0.0,2.6935,0.0,0.0,0.0,0.0,0.0,0.0,0.0,0.0,0.0,0.0,0.0,0.0,0.0,0.0,0.0,0.0,0.0,0.0,0.0,0.0,0.0,0.0,0.0,0.0,0.0,0.0,0.0,0.0,0.0,0.0,0.0,0.0,0.0,0.0,0.0,0.0,0.0,0.0,0.0,0.0,0.0,0.0,0.0,0.0,0.0,0.0,0.0,0.0,0.0,0.0,0.0,0.0,0.0,0.0,0.0,0.0,3.4887,3.7295,4.0021,4.3144,4.3866,4.4251,4.4347,4.4347,4.2365,3.8284,0.0,0.0,0.0,0.0,0.0,0.0,0.0,0.0,0.0,0.0,0.0,0.0,0.0,0.0,0.0,0.0,0.0,0.0,0.0,0.0,0.0,0.0,0.0,0.0,0.0,0.0,0.0,0.0,0.0,0.0,0.0,0.0,0.0,0.0,0.0,0.0,0.0,0.0,0.0,2.89,2.9669,0.0,0.0,0.0,0.0,0.0,0.0,0.0,0.0,2.7202,0.0,0.0,0.0,0.0,0.0,0.0,0.0,0.0,0.0,0.0,0.0,0.0,0.0,0.0,0.0,0.0,0.0,0.0,0.0,0.0,0.0,0.0,0.0,0.0,0.0,0.0,0.0,0.0,0.0,0.0,0.0,0.0,0.0,0.0,0.0,0.0,0.0,0.0,0.0,0.0,0.0,0.0,0.0,0.0,0.0,0.0,0.0,0.0,0.0,0.0,0.0,0.0,0.0,0.0,0.0,3.5104,3.8509,4.1363,4.3409,4.4058,4.4347,4.4347,4.4816,4.3174,0.0,0.0,0.0,0.0,0.0,0.0,0.0,0.0,0.0,0.0,0.0,0.0,0.0,0.0,0.0,0.0,0.0,0.0,0.0,0.0,0.0,0.0,0.0,0.0,0.0,0.0,0.0,0.0,0.0,0.0,0.0,0.0,0.0,0.0,0.0,0.0,0.0,0.0,0.0,0.0,2.9023,3.0074,3.1172,0.0,0.0,0.0,0.0,0.0,0.0,2.7826,2.7506,0.0,0.0,0.0,0.0,0.0,0.0,0.0,0.0,0.0,0.0,0.0,0.0,0.0,0.0,0.0,0.0,0.0,0.0,0.0,0.0,0.0,0.0,0.0,0.0,0.0,0.0,0.0,0.0,0.0,0.0,0.0,0.0,0.0,0.0,0.0,0.0,0.0,0.0,0.0,0.0,0.0,0.0,0.0,0.0,0.0,0.0,0.0,0.0,0.0,0.0,0.0,0.0,0.0,0.0,0.0,3.5178,3.9382,4.2324,4.3625,4.4227,4.4515,4.4515,4.5233,4.3869,0.0,0.0,0.0,0.0,0.0,0.0,0.0,0.0,0.0,0.0,0.0,0.0,0.0,0.0,0.0,0.0,0.0,0.0,0.0,0.0,0.0,0.0,0.0,0.0,0.0,0.0,0.0,0.0,0.0,0.0,0.0,0.0,0.0,0.0,0.0,0.0,0.0,0.0,0.0,0.0,0.0,3.0316,3.1334,3.049,0.0,0.0,0.0,0.0,2.8967,2.9069,0.0,0.0,0.0,0.0,0.0,0.0,0.0,0.0,0.0,0.0,0.0,0.0,0.0,0.0,0.0,0.0,0.0,0.0,0.0,0.0,0.0,0.0,0.0,0.0,0.0,0.0,0.0,0.0,0.0,0.0,0.0,0.0,0.0,0.0,0.0,0.0,0.0,0.0,0.0,0.0,0.0,0.0,0.0,0.0,0.0,0.0,0.0,0.0,0.0,0.0,0.0,0.0,0.0,0.0,0.0,0.0,3.6015,3.8867,4.1638,4.4106,4.478,4.5044,4.5044,4.517,4.3432,0.0,0.0,0.0,0.0,0.0,0.0,0.0,0.0,0.0,0.0,0.0,0.0,0.0,0.0,0.0,0.0,0.0,0.0,0.0,0.0,0.0,0.0,0.0,0.0,0.0,0.0,0.0,0.0,0.0,0.0,0.0,0.0,0.0,0.0,0.0,0.0,0.0,0.0,0.0,0.0,0.0,3.1474,3.176,3.1169,3.1013,0.0,0.0,3.0988,3.2474,3.2497,0.0,0.0,0.0,0.0,0.0,0.0,0.0,0.0,0.0,0.0,0.0,0.0,0.0,0.0,0.0,0.0,0.0,0.0,0.0,0.0,0.0,0.0,0.0,0.0,0.0,0.0,0.0,0.0,0.0,0.0,0.0,0.0,0.0,0.0,0.0,0.0,0.0,0.0,0.0,0.0,0.0,0.0,0.0,0.0,0.0,0.0,0.0,0.0,0.0,0.0,0.0,0.0,0.0,0.0,0.0,3.327,3.577,3.971,4.2469,4.4275,4.4876,4.5285,4.5573,4.6056,4.4399,0.0,0.0,0.0,0.0,0.0,0.0,0.0,0.0,0.0,0.0,0.0,0.0,0.0,0.0,0.0,0.0,0.0,0.0,0.0,0.0,0.0,0.0,0.0,0.0,0.0,0.0,0.0,0.0,0.0,0.0,0.0,0.0,0.0,0.0,0.0,0.0,0.0,0.0,0.0,0.0,0.0,0.0,3.2554,3.2251,0.0,0.0,0.0,3.2188,3.2873,0.0,0.0,0.0,0.0,0.0,0.0,0.0,0.0,0.0,0.0,0.0,0.0,0.0,0.0,0.0,0.0,0.0,0.0,0.0,0.0,0.0,0.0,0.0,0.0,0.0,0.0,0.0,0.0,0.0,0.0,0.0,0.0,0.0,0.0,0.0,0.0,0.0,0.0,0.0,0.0,0.0,0.0,0.0,0.0,0.0,0.0,0.0,0.0,0.0,0.0,0.0,0.0,0.0,0.0,0.0,0.0,0.0,3.5868,4.0443,4.3335,4.4515,4.5188,4.5718,4.6102,4.6719,0.0,0.0,0.0,0.0,0.0,0.0,0.0,0.0,0.0,0.0,0.0,0.0,0.0,0.0,0.0,0.0,0.0,0.0,0.0,0.0,0.0,0.0,0.0,0.0,0.0,0.0,0.0,1.772,0.0,0.0,0.0,0.0,0.0,0.0,0.0,0.0,0.0,0.0,0.0,0.0,0.0,0.0,3.1402,3.2924,3.31,3.3613,0.0,0.0,3.3538,3.3937,3.4265,3.4009,0.0,0.0,0.0,0.0,0.0,0.0,0.0,0.0,0.0,0.0,0.0,0.0,0.0,0.0,0.0,0.0,0.0,0.0,0.0,0.0,0.0,0.0,0.0,0.0,0.0,0.0,0.0,0.0,0.0,0.0,0.0,0.0,0.0,0.0,0.0,0.0,0.0,0.0,0.0,0.0,0.0,0.0,0.0,0.0,0.0,0.0,0.0,0.0,0.0,0.0,0.0,0.0,0.0,0.0,3.4092,3.6993,4.0683,4.3369,4.5068,4.6078,4.6631,4.6655,4.6655,4.5057,0.0,0.0,0.0,0.0,0.0,0.0,0.0,0.0,0.0,0.0,0.0,0.0,0.0,0.0,0.0,0.0,0.0,0.0,0.0,0.0,0.0,0.0,0.0,0.0,0.0,0.0,0.0,0.0,0.0,0.0,0.0,0.0,0.0,0.0,0.0,0.0,0.0,0.0,0.0,0.0,0.0,3.1095,3.2766,3.3657,3.4818,0.0,3.6043,3.5768,3.7293,3.7258,3.6219,3.3505,0.0,0.0,0.0,0.0,0.0,0.0,0.0,0.0,0.0,0.0,0.0,0.0,0.0,0.0,0.0,0.0,0.0,0.0,0.0,0.0,0.0,0.0,0.0,0.0,0.0,0.0,0.0,0.0,0.0,0.0,0.0,0.0,0.0,0.0,0.0,0.0,0.0,0.0,0.0,0.0,0.0,0.0,0.0,0.0,0.0,0.0,0.0,0.0,0.0,0.0,0.0,0.0,0.0,3.4834,3.7042,4.11,4.3788,4.5116,4.6487,4.7353,4.769,4.8002,4.6746,0.0,0.0,0.0,0.0,0.0,0.0,0.0,0.0,0.0,0.0,0.0,0.0,0.0,0.0,0.0,0.0,0.0,0.0,0.0,0.0,0.0,0.0,0.0,0.0,0.0,0.0,0.0,0.0,2.2585,2.3066,2.1864,0.0,0.0,0.0,0.0,0.0,0.0,0.0,0.0,0.0,0.0,3.2541,3.3679,3.4747,0.0,0.0,3.6627,3.6831,3.8141,3.7351,3.646,3.5949,3.4603,0.0,0.0,0.0,0.0,0.0,0.0,0.0,0.0,0.0,0.0,0.0,0.0,0.0,0.0,0.0,0.0,0.0,0.0,0.0,0.0,0.0,0.0,0.0,0.0,0.0,0.0,0.0,0.0,0.0,0.0,0.0,0.0,0.0,0.0,0.0,0.0,0.0,0.0,0.0,0.0,0.0,0.0,0.0,0.0,0.0,0.0,0.0,0.0,0.0,0.0,0.0,0.0,3.5544,3.7363,4.1509,4.4266,4.5597,4.6992,4.7978,4.8507,4.8892,4.798,0.0,0.0,0.0,0.0,0.0,0.0,0.0,0.0,0.0,0.0,0.0,0.0,0.0,0.0,0.0,0.0,0.0,0.0,0.0,0.0,0.0,0.0,0.0,0.0,0.0,0.0,0.0,0.0,2.4047,2.4382,2.3338,0.0,0.0,0.0,0.0,0.0,0.0,0.0,0.0,0.0,0.0,3.3817,3.4972,3.5962,3.6751,3.7301,3.7173,3.7307,3.8307,3.7533,3.6957,3.7203,0.0,0.0,0.0,0.0,0.0,0.0,0.0,0.0,0.0,0.0,0.0,0.0,0.0,0.0,0.0,0.0,0.0,0.0,0.0,0.0,0.0,0.0,0.0,0.0,0.0,0.0,0.0,2.0495,0.0,0.0,1.9993,0.0,0.0,0.0,0.0,0.0,0.0,0.0,0.0,0.0,0.0,0.0,0.0,0.0,0.0,0.0,0.0,0.0,0.0,0.0,0.0,0.0,0.0,3.6063,3.7873,4.2043,4.4958,4.6655,4.7714,4.8531,4.9036,4.9084,4.8342,4.6675,0.0,0.0,0.0,0.0,0.0,0.0,0.0,0.0,0.0,0.0,0.0,0.0,0.0,0.0,0.0,0.0,0.0,0.0,0.0,0.0,0.0,0.0,0.0,0.0,0.0,0.0,2.287,2.2715,2.3407,0.0,0.0,0.0,0.0,0.0,0.0,0.0,0.0,0.0,3.0901,3.2771,3.4532,3.6476,3.7136,3.7686,3.8456,3.7943,3.7576,3.7979,3.831,3.8199,0.0,0.0,0.0,0.0,0.0,0.0,0.0,0.0,0.0,0.0,0.0,0.0,0.0,0.0,0.0,0.0,0.0,0.0,0.0,0.0,0.0,0.0,0.0,0.0,0.0,0.0,0.0,2.4547,2.3904,0.0,0.0,0.0,0.0,0.0,0.0,0.0,0.0,0.0,0.0,0.0,3.2889,3.352,0.0,0.0,0.0,0.0,0.0,0.0,0.0,0.0,0.0,0.0,0.0,0.0,3.6652,3.8998,4.2808,4.5557,4.7209,4.8267,4.906,4.9589,4.9974,4.9261,4.7286,0.0,0.0,0.0,0.0,0.0,0.0,0.0,0.0,0.0,0.0,0.0,0.0,0.0,0.0,0.0,0.0,0.0,0.0,0.0,0.0,0.0,0.0,0.0,0.0,0.0,2.632,0.0,0.0,0.0,0.0,0.0,0.0,0.0,0.0,0.0,0.0,2.8344,3.0622,3.2368,3.422,3.5742,3.6714,3.7631,3.8328,0.0,0.0,0.0,0.0,0.0,0.0,0.0,0.0,0.0,0.0,0.0,0.0,0.0,0.0,3.2742,2.7992,2.6583,2.6215,2.6049,0.0,0.0,0.0,0.0,0.0,0.0,0.0,0.0,0.0,0.0,0.0,0.0,0.0,0.0,2.7601,2.7307,2.7078,0.0,0.0,0.0,0.0,0.0,0.0,0.0,0.0,3.3143,3.4681,3.6697,3.699,3.6696,3.5888,3.5005,3.3273,0.0,0.0,0.0,0.0,0.0,0.0,0.0,0.0,3.7478,4.0208,4.3433,4.5916,4.7738,4.8796,4.9686,5.0407,5.096,5.0403,4.8707,4.6779,4.4986,0.0,0.0,0.0,0.0,0.0,0.0,0.0,0.0,0.0,0.0,0.0,0.0,0.0,0.0,0.0,0.0,0.0,0.0,0.0,0.0,0.0,0.0,0.0,2.8073,0.0,0.0,0.0,0.0,0.0,0.0,0.0,0.0,0.0,2.8288,3.0622,3.2808,3.4293,3.5962,3.7099,3.7228,0.0,0.0,0.0,0.0,0.0,0.0,0.0,3.9111,4.0553,3.9566,3.8591,3.8522,3.8491,3.8071,3.7032,0.0,0.0,3.1034,2.976,2.9296,2.8788,2.9579,2.9501,2.7516,2.7734,2.7588,0.0,0.0,0.0,0.0,2.8051,0.0,0.0,0.0,3.0778,3.0695,0.0,2.9779,0.0,0.0,0.0,0.0,2.8699,3.0896,0.0,0.0,3.7664,3.9919,4.2161,4.1606,4.1653,4.2209,4.0598,3.892,3.7123,3.4064,0.0,0.0,0.0,0.0,0.0,0.0,3.8383,4.145,4.385,4.6049,4.8267,4.9325,5.0359,5.1393,5.1922,5.1706,5.0672,4.8947,4.7482,4.6318,4.1623,0.0,0.0,0.0,0.0,0.0,0.0,0.0,0.0,0.0,0.0,0.0,0.0,0.0,0.0,0.0,0.0,0.0,0.0,0.0,0.0,2.9014,0.0,0.0,0.0,0.0,0.0,0.0,0.0,0.0,0.0,3.2166,3.1121,3.2698,3.4623,3.6586,0.0,0.0,0.0,0.0,3.9428,3.9813,3.9575,3.9648,4.0418,4.0804,4.1024,4.1097,0.0,0.0,3.9556,3.9489,3.9132,3.772,3.8323,3.8595,3.7453,3.5245,3.3576,3.2608,3.2508,3.2158,3.0567,3.0845,3.0918,3.4626,0.0,0.0,0.0,0.0,3.143,3.2479,3.443,3.4039,3.3674,3.3284,3.3088,0.0,0.0,0.0,0.0,0.0,0.0,3.4966,3.7726,3.8722,4.0666,4.345,4.3474,4.3596,4.3842,4.3422,4.2885,4.207,4.101,3.7535,3.186,0.0,0.0,0.0,0.0,4.0011,4.2013,4.4572,4.695,4.8844,4.9517,5.0191,5.0912,5.1081,5.1008,5.0696,5.0258,4.9077,4.7506,4.5126,0.0,0.0,0.0,0.0,0.0,0.0,0.0,0.0,0.0,0.0,0.0,0.0,0.0,0.0,0.0,0.0,0.0,0.0,0.0,2.789,3.0308,3.1215,0.0,0.0,0.0,0.0,0.0,0.0,0.0,0.0,0.0,3.455,3.5412,3.6384,0.0,0.0,3.8695,3.886,3.9832,4.0584,4.0694,4.1097,0.0,4.1721,4.1372,4.1354,4.2216,4.2803,4.2669,4.1426,4.1443,4.1314,4.0249,4.0515,4.0823,4.0351,3.81,3.5906,3.497,3.4374,3.3716,3.269,3.2275,3.1803,3.8798,3.593,3.4213,3.4006,3.4654,3.4173,3.5146,3.7073,3.6848,3.673,3.6692,3.6597,3.5837,3.4749,3.42,0.0,0.0,0.0,3.746,3.9919,4.0504,4.2207,4.4888,4.5146,4.5421,4.5865,4.5837,4.5628,4.5229,4.5207,4.2386,3.6743,0.0,3.7512,3.7059,3.943,4.1859,4.4286,4.595,4.7661,4.9373,5.0119,5.0768,5.1297,5.1537,5.1537,5.1345,5.1321,5.0789,4.9406,4.7581,4.5532,0.0,0.0,0.0,0.0,0.0,0.0,0.0,0.0,0.0,0.0,0.0,2.5189,2.217,0.0,0.0,0.0,2.7676,2.8816,3.0489,3.2347,0.0,0.0,0.0,0.0,0.0,0.0,0.0,3.4127,3.5228,3.6146,3.7264,3.7778,3.8144,3.8456,3.9006,3.9447,3.9685,0.0,4.1354,4.1519,4.2087,4.2564,4.2729,4.2344,4.2289,4.2986,4.3463,4.336,4.2459,4.2597,4.2478,4.1775,4.156,4.1697,4.1697,4.0186,3.8591,3.7696,3.7137,3.6537,3.5074,3.45,3.3959,4.2086,4.1383,3.7729,3.6297,3.6577,3.6601,3.7345,3.878,3.9216,3.9698,4.0209,3.9873,3.9391,3.8618,3.7521,0.0,3.8429,3.9037,4.034,4.2385,4.2835,4.4394,4.668,4.681,4.7371,4.8401,4.8183,4.77,4.7075,4.7714,4.6573,4.3923,4.256,4.1976,4.2033,4.2226,4.3997,4.7436,4.7519,4.8301,5.0046,5.1032,5.1802,5.2259,5.2764,5.2764,5.2307,5.2307,5.2115,5.1513,4.9503,4.7496,4.5669,0.0,0.0,0.0,0.0,0.0,0.0,0.0,0.0,0.0,0.0,0.0,0.0,0.0,0.0,3.018,3.3435,0.0,3.508,3.4916,0.0,0.0,0.0,3.21,3.2746,3.3792,3.4894,3.6005,0.0,0.0,3.9245,3.9648,3.9813,3.9428,4.0033,4.0529,4.0565,4.1262,4.1922,4.2252,4.2656,4.3041,4.3353,4.3426,4.3481,4.3609,4.3866,4.3688,4.2797,4.2863,4.2742,4.1866,4.1714,4.1782,4.1782,4.1782,4.1646,4.0641,4.0182,3.9568,3.7788,3.7218,3.6677,4.2974,4.2942,4.2386,4.1131,3.9679,3.9679,3.9956,4.0272,4.041,4.0755,4.1191,4.1207,4.1161,4.1399,4.1033,4.108,4.1322,4.1438,4.1959,4.289,4.3927,4.5503,4.7257,4.8731,4.9806,5.0463,5.1028,5.0855,5.0063,5.0441,4.9834,4.8035,4.7885,4.6154,4.3044,4.4308,4.5893,4.742,4.8521,4.9914,5.1658,5.1946,5.2163,5.2283,5.2403,5.2403,5.2283,5.2668,5.2644,5.2115,5.2547,5.1888,4.9998,4.591,0.0,0.0,0.0,0.0,0.0,0.0,0.0,0.0,0.0,2.8994,2.5145,0.0,3.0064,0.0,3.6152,3.7924,3.6541,3.7208,0.0,0.0,3.5568,3.4948,3.6441,3.6146,3.6402,3.8209,3.8731,3.9245,3.9648,4.0327,4.0749,4.0639,4.0785,4.1042,4.1372,4.2087,4.2619,4.2729,4.3059,4.3371,4.3481,4.3756,4.4031,4.4343,4.4215,4.3706,4.2797,4.2686,4.2496,4.1849,4.1953,4.2227,4.2518,4.2792,4.2981,4.2545,4.1364,4.001,3.9633,3.8893,3.8099,4.4071,4.3997,4.43,4.3403,4.1986,4.2356,4.2233,4.1986,4.2218,4.2246,4.227,4.2477,4.2729,4.3005,4.2982,4.3005,4.2982,4.2982,4.3395,4.4107,4.5178,4.6508,4.8124,4.9523,5.078,5.1574,5.2412,5.2557,5.2316,5.254,5.2066,5.122,5.0794,4.9486,4.7299,4.7609,4.8099,4.8589,5.0009,5.1248,5.2259,5.2283,5.2067,5.161,5.1943,5.1991,5.161,5.223,5.2182,5.1297,5.2156,5.1937,5.0407,4.7555,4.5223,0.0,0.0,0.0,0.0,0.0,0.0,0.0,0.0,0.0,0.0,0.0,3.3166,3.4429,3.8248,3.9962,3.8364,3.9192,3.9785,3.9551,3.8476,3.8006,3.878,3.8236,3.8328,3.963,3.9777,3.9997,4.0584,4.1042,4.1409,4.1574,4.1757,4.1941,4.2179,4.2619,4.2931,4.3114,4.3353,4.3481,4.3481,4.3829,4.416,4.4361,4.4526,4.4251,4.3314,4.3289,4.3111,4.2365,4.2399,4.2655,4.3032,4.3255,4.3443,4.3546,4.2783,4.1799,4.1172,4.04,3.9573,4.516,4.4838,4.4907,4.4588,4.4041,4.4822,4.4362,4.3387,4.3734,4.3729,4.3387,4.3854,4.413,4.4199,4.4262,4.4239,4.4239,4.4371,4.4856,4.5847,4.6459,4.7667,4.8991,4.9883,5.0913,5.2116,5.3004,5.3689,5.4065,5.4137,5.3919,5.3369,5.2526,5.2041,5.2043,5.1058,5.046,5.0311,5.1537,5.2211,5.2283,5.2283,5.185,5.1008,5.1621,5.174,5.1058,5.1521,5.1355,5.0266,5.0731,5.0513,4.9451,4.83,4.6693,0.0,4.1777,0.0,0.0,0.0,0.0,0.0,0.0,0.0,0.0,3.6577,3.7205,3.6618,4.0002,4.1745,4.0797,4.1343,4.1778,4.1816,4.126,4.065,4.0032,3.996,4.0125,4.051,4.0602,4.0914,4.1537,4.1757,4.1977,4.2289,4.2656,4.2913,4.3004,4.3004,4.3096,4.3463,4.3536,4.3664,4.3829,4.4068,4.4306,4.4398,4.4838,4.4906,4.4106,4.3945,4.3814,4.3106,4.2707,4.2878,4.3272,4.3163,4.3317,4.3607,4.3495,4.3135,4.2493,4.1651,4.0601,4.5314,4.6043,4.6576,4.7106,4.7925,4.806,4.6093,4.2783,4.2879,4.3707,4.4971,4.5411,4.5921,4.6242,4.6537,4.6599,4.6599,4.7163,4.7662,4.8122,4.8444,4.9157,5.0108,5.1027,5.1886,5.2594,5.4277,5.481,5.4491,5.5596,5.528,5.3369,5.3799,5.2951,5.1105,0.0,0.0,0.0,5.1922,5.185,5.2259,5.2283,5.2187,5.2018,5.2928,0.0,5.2348,5.2306,5.2071,5.1467,5.1899,0.0,0.0,0.0,0.0,0.0,0.0,0.0,0.0,0.0,0.0,0.0,3.875,3.8109,3.7156,3.9578,4.1069,4.0616,4.2575,4.3937,4.4061,4.4194,4.3812,4.2464,4.2436,4.2039,4.0676,4.062,4.0877,4.0932,4.1244,4.1519,4.1702,4.2234,4.2656,4.2729,4.3114,4.3481,4.3774,4.3536,4.3408,4.3518,4.3774,4.4215,4.4856,4.4966,4.5095,4.5462,4.5352,4.5129,4.4551,4.3777,4.3403,4.3086,4.2588,4.2553,4.2912,4.2606,4.2307,4.234,4.2013,4.1907,4.2245,4.2179,4.1464,4.615,4.668,4.6912,4.7302,0.0,4.7614,4.6383,4.4247,4.4872,4.5395,4.5936,4.6289,4.6632,4.698,4.6998,4.7052,4.7028,4.7329,4.7786,4.8267,4.8932,4.9752,5.034,5.1462,5.2303,5.3025,5.3985,5.4829,5.5482,5.5507,5.5232,5.4787,5.4326,5.3473,5.2283,5.3029,5.3437,5.3437,5.2908,5.2764,5.3029,5.3029,5.2668,5.197,5.2702,0.0,0.0,0.0,0.0,0.0,0.0,0.0,0.0,0.0,0.0,4.7512,4.5752,4.4,4.2419,4.2095,4.22,4.2476,4.258,4.2104,4.0924,4.2559,4.3511,4.3304,4.4319,4.5084,4.5312,4.554,4.5164,4.3877,4.3894,4.3379,4.1767,4.1602,4.1639,4.1523,4.1555,4.1812,4.2216,4.2582,4.2858,4.2913,4.3408,4.3793,4.3774,4.3628,4.3554,4.3756,4.4123,4.4508,4.4911,4.5205,4.5352,4.5535,4.559,4.5403,4.501,4.4285,4.3668,4.3295,4.3088,4.272,4.2328,4.239,4.2162,4.1814,4.1585,4.1484,4.1325,4.1293,4.0998,4.6931,4.7,4.7023,4.6843,4.6697,4.6697,4.65,4.6167,4.7087,0.0,0.0,4.6908,4.7069,4.721,4.7091,4.7234,4.7258,4.7375,4.7738,4.8434,4.9511,5.0311,5.0839,5.1871,5.2695,5.3277,5.3519,5.4489,5.6209,5.4982,5.4865,5.5555,5.4475,5.3683,5.3534,5.3558,5.3558,5.3534,5.3461,5.3365,5.3269,5.3365,5.2788,5.1513,5.241,5.2151,5.0631,5.1327,5.0964,4.9594,4.936,4.9337,4.9159,4.8552,4.8532,4.949,4.8079,4.7087,4.6776,4.6016,4.5387,4.5229,4.5229,4.5043,4.4588,4.4898,4.5147,4.5229,4.5581,4.5788,4.5809,4.6119,4.6003,4.5169,4.5086,4.4469,4.285,4.2591,4.2462,4.191,4.1886,4.2124,4.2747,4.3004,4.3078,4.3188,4.3756,4.4086,4.3793,4.3774,4.3884,4.416,4.4526,4.482,4.493,4.5187,4.5388,4.5293,4.5512,4.5488,4.5129,4.4614,4.4286,4.3713,4.3448,4.2876,4.2161,4.1948,4.1971,4.0996,4.1124,4.0981,4.0126,3.9996,3.994,4.7138,4.7551,4.7528,4.7689,4.8108,4.8108,4.8016,4.7905,4.7024,4.7064,4.8045,4.77,4.778,4.8148,4.8403,4.8639,4.9062,4.9766,5.0475,5.1269,5.1681,5.2043,5.2429,5.2839,5.3104,5.3276,5.4279,5.4942,5.5114,5.5131,5.4957,5.4546,5.3836,5.3205,5.2499,5.2499,5.2499,5.2499,5.2067,5.161,5.1153,5.1586,5.173,5.1586,5.2856,5.3275,5.2283,5.2319,5.2037,5.1064,5.0358,4.9895,4.9962,4.9185,4.8671,4.8597,4.8575,4.8057,4.7124,4.7103,4.6943,4.6161,4.6161,4.5975,4.554,4.5561,4.5747,4.6099,4.6182,4.6264,4.6264,4.6306,4.6023,4.5229,4.5368,4.4925,4.327,4.3386,4.3272,4.2352,4.2491,4.2692,4.2949,4.3463,4.3848,4.3958,4.4288,4.4563,4.449,4.4508,4.4526,4.4618,4.4948,4.5315,4.5553,4.5737,4.5585,4.5245,4.5074,4.5129,4.456,4.441,4.4202,4.4079,4.3207,4.2443,4.208,4.0753,3.9907,3.9565,3.9381,3.9093,3.8708,3.8796,3.8953,4.7849,4.8033,4.8056,4.8331,4.8814,4.9089,4.9227,4.9135,4.8529,4.8445,4.8918,4.8922,4.8997,4.9135,4.9221,4.9416,4.9605,5.0022,5.0331,5.0842,5.1537,5.2115,5.2397,5.3072,5.3485,5.3485,5.386,5.4131,5.4525,5.4328,5.4058,5.3763,5.3083,5.2841,5.2668,5.2427,5.2283,5.2283,5.2043,5.1946,5.1994,5.2235,5.2475,5.2764,5.3461,5.337,5.2588,5.2154,5.1516,5.0743,4.9719,4.9229,4.9494,4.8803,4.8623,4.8569,4.8591,4.8251,4.7474,4.6972,4.6649,4.6347,4.6347,4.6264,4.6078,4.6037,4.614,4.6326,4.6347,4.6451,4.6678,4.6492,4.6371,4.6516,4.6392,4.5956,4.5005,4.4504,4.4052,4.3416,4.3098,4.3041,4.3481,4.3848,4.4178,4.438,4.4746,4.5003,4.5021,4.5187,4.5242,4.5095,4.5352,4.5458,4.547,4.5506,4.5318,4.475,4.475,4.456,4.4388,4.4183,4.3957,4.4167,4.313,4.2146,4.1599,4.0513,3.9607,3.8717,3.8752,3.8602,3.85,3.8206,3.7317,4.8377,4.84,4.8515,4.8837,4.9319,4.9732,4.9916,4.9916,5.0008,4.987,4.9743,4.9824,4.9916,4.9824,4.9923,4.9885,5.0029,5.0006,5.0008,5.0312,5.1464,5.1963,5.2151,5.3203,5.3822,5.3774,5.3317,5.3397,5.3912,5.33,5.2961,5.313,5.2429,5.2355,5.286,5.2355,5.2163,5.2283,5.2283,5.2475,5.2884,5.3004,5.3245,5.363,5.375,5.3521,5.2916,5.2307,5.1516,5.041,4.9452,4.8962,4.8842,4.8558,4.8514,4.8864,4.8591,4.8092,4.7453,4.702,4.6596,4.6513,4.6596,4.6658,4.6637,4.6658,4.6596,4.6513,4.6513,4.6699,4.7051,4.6885,4.6927,4.7589,4.7486,4.7008,4.6602,4.5896,4.5219,4.4508,4.3783,4.3763,4.3921,4.4251,4.4545,4.493,4.5242,4.5425,4.548,4.57,4.5737,4.5608,4.57,4.547,4.5129,4.4939,4.475,4.4388,4.4286,4.4339,4.4201,4.387,4.3921,4.4091,4.3202,4.2042,4.1087,4.0199,3.9401,3.8457,3.869,3.9041,3.888,3.7913,3.6503,4.84,4.8469,4.886,4.9342,4.9824,4.9916,4.9962,4.9985,5.0352,5.0559,5.0444,5.0076,4.9939,4.9893,4.995,5.0135,5.0503,5.0457,5.0816,5.1301,5.2073,5.2599,5.2646,5.3346,5.3822,5.375,5.3293,5.3245,5.3731,5.2788,5.2331,5.2357,5.1802,5.1826,5.2235,5.185,5.1802,5.2259,5.2283,5.2307,5.2379,5.2812,5.3101,5.3149,5.3582,5.3822,5.3672,5.3672,5.2916,5.1362,5.1162,5.041,4.9044,4.8842,4.8864,4.8907,4.8591,4.7954,4.7217,4.7442,4.7361,4.7051,4.732,4.7506,4.7527,4.7527,4.7382,4.7092,4.6989,4.7154,4.7548,4.7548,4.7548,4.7775,4.8003,4.7935,4.7127,4.7299,4.6868,4.5002,4.4951,4.4894,4.4377,4.4728,4.5278,4.559,4.57,4.5773,4.5773,4.5828,4.5883,4.5828,4.5488,4.5111,4.4939,4.475,4.4216,4.3852,4.3905,4.4062,4.3814,4.4033,4.4368,4.4179,4.2972,4.1735,4.1219,4.0157,3.8722,3.8529,3.8909,3.9421,3.9348,3.8253,3.6615,4.8814,4.886,4.9365,4.987,5.0329,5.0673,5.0811,5.0834,5.1018,5.1087,5.1087,5.088,5.0811,5.0788,5.0811,5.0926,5.111,5.111,5.1201,5.1408,5.2307,5.2612,5.2717,5.321,5.351,5.3726,5.3004,5.286,5.3125,5.2307,5.2139,5.2548,5.161,5.1441,5.2163,5.1754,5.1898,5.2716,5.274,5.2884,5.3149,5.3101,5.3221,5.3485,5.3726,5.3822,5.3822,5.337,5.274,5.213,5.1208,5.0277,4.9673,4.9465,4.9322,4.9344,4.8963,4.8443,4.779,4.7651,4.761,4.7424,4.7568,4.7672,4.7672,4.7672,4.7693,4.7796,4.7589,4.761,4.8003,4.7838,4.79,4.8355,4.8438,4.814,4.7551,4.726,4.666,4.5458,4.5082,4.5073,4.5004,4.5297,4.5682,4.5865,4.5883,4.5883,4.5883,4.5883,4.5883,4.5883,4.5506,4.4939,4.475,4.418,4.3905,4.352,4.3676,4.3637,4.3769,4.394,4.4248,4.4488,4.2869,4.1847,4.1754,4.0172,3.8543,3.866,3.8865,3.9107,3.8826,3.7853,3.6194,4.9319,4.9411,4.9893,5.0398,5.088,5.1247,5.1431,5.1431,5.1431,5.1431,5.1431,5.1431,5.1431,5.1431,5.1431,5.1431,5.1431,5.1431,5.1408,5.1562,5.2307,5.2588,5.2717,5.3162,5.3461,5.363,5.2932,5.262,5.2788,5.2307,5.2331,5.2788,5.1778,5.1658,5.2548,5.2187,5.2355,5.3173,5.3269,5.351,5.3894,5.3534,5.3437,5.3774,5.3822,5.387,5.4015,5.329,5.2905,5.3011,5.1505,5.0546,5.0546,5.0087,4.9825,4.9545,4.9282,4.8814,4.8357,4.8088,4.8003,4.79,4.7982,4.8065,4.8065,4.8065,4.821,4.8459,4.8272,4.8231,4.8438,4.8252,4.8438,4.9121,4.8935,4.8592,4.8505,4.7817,4.7109,4.6255,4.5675,4.5188,4.5388,4.57,4.5883,4.5883,4.5883,4.5883,4.5883,4.5883,4.5883,4.5883,4.5506,4.4939,4.4388,4.4131,4.3713,4.3551,4.3529,4.3871,4.4128,4.4197,4.4334,4.4578,4.2684,4.15,4.1533,4.0172,3.866,3.8807,3.9012,3.9136,3.8969,3.7713,3.6299,4.987,4.9939,5.0398,5.0903,5.1385,5.1408,5.1431,5.1431,5.1408,5.1408,5.1431,5.1385,5.1408,5.1431,5.1431,5.1431,5.1431,5.1431,5.1562,5.187,5.2459,5.2764,5.3219,5.3648,5.3774,5.3774,5.3245,5.2788,5.2427,5.2716,5.3004,5.298,5.2379,5.2644,5.3413,5.3125,5.3245,5.3654,5.375,5.4015,5.4447,5.4063,5.3846,5.3894,5.3846,5.4087,5.4447,5.4087,5.3823,5.4178,5.2663,5.1831,5.1443,5.0748,5.0143,4.9739,4.9277,4.8819,4.8567,4.8648,4.8769,4.8479,4.8686,4.8955,4.8873,4.8873,4.8893,4.9017,4.8935,4.8935,4.8976,4.8935,4.9121,4.9576,4.968,4.9825,5.0043,4.9141,4.8434,4.7398,4.6637,4.6131,4.5961,4.5883,4.5883,4.5883,4.5883,4.5883,4.5883,4.5883,4.5883,4.5902,4.5525,4.4957,4.4424,4.4236,4.3886,4.3792,4.4025,4.4419,4.4608,4.4762,4.4933,4.4632,4.2945,4.1722,4.1376,4.0486,3.9255,3.9041,3.9275,3.9398,3.8608,3.818,3.6883,5.0582,5.088,5.1064,5.1247,5.1408,5.1431,5.1431,5.1385,5.1064,5.111,5.1316,5.1064,5.111,5.1431,5.1431,5.1431,5.1431,5.1431,5.1431,5.1716,5.2307,5.2764,5.2869,5.321,5.3534,5.3702,5.3317,5.298,5.274,5.2331,5.2235,5.2427,5.1727,5.1844,5.2655,5.2702,5.2869,5.3346,5.3984,5.4423,5.464,5.4736,5.4832,5.4808,5.4496,5.4568,5.5097,5.4928,5.4539,5.3779,5.301,5.2218,5.13,5.096,5.0774,5.0558,5.0228,4.9744,4.9301,4.9213,4.8997,4.8852,4.8955,4.9059,4.9059,4.9059,4.9059,4.9059,4.9059,4.9059,4.9121,4.9328,4.9556,4.9721,4.9763,4.9671,4.9229,4.8763,4.8156,4.6876,4.6333,4.6112,4.6016,4.5883,4.5883,4.5883,4.5883,4.5883,4.5883,4.5883,4.5883,4.5938,4.5914,4.568,4.4725,4.4447,4.4095,4.4188,4.4402,4.4642,4.4847,4.4933,4.507,4.4649,4.3043,4.1802,4.1202,4.0041,3.906,3.9114,3.9363,3.9055,3.7971,3.7754,3.6567,5.1087,5.1408,5.1431,5.1431,5.1431,5.1431,5.1431,5.1385,5.1041,5.1087,5.127,5.0857,5.0926,5.1339,5.1247,5.127,5.1408,5.1431,5.1408,5.1716,5.2307,5.2612,5.2869,5.3162,5.3485,5.3702,5.3293,5.3004,5.2764,5.2091,5.1946,5.2235,5.1605,5.1816,5.2577,5.2862,5.3148,5.3528,5.4439,5.4952,5.5121,5.5289,5.5578,5.5638,5.5255,5.5135,5.547,5.535,5.4955,5.4223,5.3359,5.2213,5.095,5.0617,5.0752,5.0886,5.04,5.0061,4.9742,4.9401,4.923,4.9059,4.9059,4.9059,4.9059,4.9059,4.9059,4.908,4.9224,4.9266,4.9224,4.9618,4.997,4.997,4.997,4.9939,4.946,4.8691,4.7598,4.6347,4.6094,4.5847,4.5883,4.5883,4.5883,4.5883,4.5883,4.5883,4.5883,4.5883,4.5957,4.6067,4.6287,4.6006,4.5644,4.524,4.4689,4.4497,4.4625,4.4864,4.4967,4.507,4.4902,4.4279,4.3247,4.2022,4.0615,3.9449,3.924,3.9099,3.948,3.943,3.8342,3.7455,3.6392,5.1408,5.1431,5.1431,5.1431,5.1431,5.1431,5.1431,5.1408,5.1362,5.1293,5.1247,5.0834,5.088,5.1224,5.0972,5.0972,5.1362,5.1431,5.1562,5.187,5.226,5.274,5.3068,5.3401,5.3654,5.3726,5.3269,5.2788,5.2355,5.2187,5.2187,5.2379,5.2369,5.2498,5.3243,5.3542,5.3826,5.4123,5.4836,5.5626,5.6083,5.5746,5.583,5.6279,5.5787,5.5526,5.5573,5.5121,5.4997,5.5088,5.3865,5.2048,5.0714,5.0167,5.0061,5.04,5.0061,4.9742,4.9742,4.9742,4.9401,4.9251,4.908,4.9121,4.908,4.91,4.9121,4.9121,4.9369,4.9514,4.9266,4.9783,5.028,5.0404,5.0301,5.0673,5.0874,4.9673,4.7607,4.6392,4.5998,4.5883,4.5883,4.5883,4.5883,4.5883,4.5883,4.5883,4.5902,4.5938,4.6103,4.6342,4.6617,4.6543,4.6358,4.6108,4.5299,4.479,4.4847,4.507,4.5053,4.5121,4.47,4.4076,4.2636,4.1202,3.9819,3.8884,3.9163,3.926,3.9656,3.9516,3.8384,3.7455,3.6666,5.1431,5.1431,5.1431,5.1431,5.1431,5.1431,5.1431,5.1385,5.1064,5.088,5.0834,5.0696,5.0719,5.0903,5.1064,5.127,5.1431,5.1431,5.1431,5.1647,5.1675,5.2155,5.2646,5.2862,5.3144,5.3221,5.2764,5.2451,5.2259,5.1946,5.2067,5.2641,5.2593,5.2811,5.3306,5.3514,5.3772,5.4155,5.5074,5.5745,5.6251,5.6419,5.655,5.6334,5.5871,5.5617,5.5296,5.5292,5.4696,5.3528,5.3251,5.226,5.0696,5.0231,5.04,5.0738,5.04,5.0231,5.0061,4.9891,4.9572,4.9292,4.9542,4.9542,4.9162,4.9521,4.9562,4.9142,4.9204,4.9183,4.9204,4.9597,4.997,4.997,5.0239,5.0529,5.0723,4.9793,4.8547,4.696,4.6746,4.6616,4.609,4.5883,4.5902,4.592,4.592,4.592,4.5938,4.6177,4.6305,4.647,4.6874,4.6907,4.6449,4.6123,4.5813,4.5196,4.4984,4.5121,4.5121,4.47,4.4295,4.3263,4.1833,4.0409,3.9226,3.8778,3.9056,3.9319,3.9626,3.8998,3.7906,3.7194,3.6666,5.1431,5.1408,5.1224,5.1247,5.1385,5.1224,5.1247,5.1362,5.1064,5.0926,5.0903,5.0696,5.0627,5.0696,5.0995,5.1133,5.1156,5.1316,5.1316,5.1179,5.1523,5.1804,5.2353,5.2838,5.2899,5.3029,5.274,5.2475,5.2283,5.2187,5.2403,5.278,5.2869,5.2928,5.3171,5.3622,5.3995,5.4381,5.528,5.6041,5.6271,5.6693,5.6702,5.6197,5.5852,5.5368,5.4905,5.5067,5.4556,5.3386,5.2913,5.1725,5.0061,4.9891,5.0231,5.0569,5.0569,5.04,5.0569,5.0231,4.9742,4.9463,4.9521,4.9583,4.9183,4.9583,4.9521,4.9142,4.9245,4.9245,4.9162,4.9494,4.9721,4.9763,5.0156,5.0269,4.9903,4.9972,4.9128,4.7907,4.7379,4.6971,4.6259,4.5902,4.5975,4.6048,4.6103,4.6213,4.6305,4.6562,4.6709,4.6892,4.7277,4.7038,4.6502,4.6317,4.6276,4.5674,4.507,4.5121,4.5121,4.4498,4.389,4.2038,4.0394,3.9774,3.8587,3.8821,3.9085,3.9348,3.9626,3.907,3.8454,3.7262,3.6706,5.1385,5.1362,5.0811,5.088,5.1247,5.0857,5.0926,5.1316,5.1385,5.1316,5.1224,5.0903,5.0673,5.065,5.0788,5.0857,5.0788,5.1201,5.1087,5.0857,5.1254,5.1781,5.1883,5.2941,5.324,5.3101,5.2956,5.274,5.2451,5.2644,5.2928,5.2743,5.3141,5.335,5.3319,5.3882,5.4347,5.4577,5.5617,5.6334,5.6358,5.6861,5.6702,5.5852,5.5691,5.5368,5.4742,5.4579,5.4393,5.4066,5.2392,5.0886,4.9572,4.9059,4.9572,5.04,5.04,5.0569,5.0929,5.0569,5.0061,4.9742,4.9334,4.908,4.91,4.9204,4.9224,4.91,4.939,4.9473,4.9224,4.9494,4.9763,4.9908,5.0301,5.0101,4.9332,4.9975,4.9628,4.8293,4.7607,4.7047,4.6145,4.5975,4.6158,4.6415,4.6525,4.6672,4.6874,4.7039,4.7295,4.7302,4.7467,4.7095,4.6335,4.617,4.611,4.5525,4.5121,4.5121,4.47,4.4076,4.306,4.1218,3.9789,3.8945,3.8617,3.8851,3.9129,3.9407,3.9514,3.9415,3.8538,3.7329,3.6263,5.1064,5.1316,5.0467,5.0375,5.0788,5.0673,5.0696,5.088,5.127,5.1224,5.0949,5.1133,5.0972,5.0696,5.1041,5.1224,5.1179,5.1339,5.0926,5.0283,5.0605,5.1141,5.1483,5.241,5.2899,5.3004,5.2788,5.262,5.2812,5.2692,5.2804,5.3599,5.3707,5.3826,5.3952,5.4165,5.4511,5.4858,5.5436,5.606,5.6382,5.6702,5.6702,5.6221,5.5876,5.5368,5.4905,5.4905,5.4066,5.2392,5.139,5.0231,4.923,4.9059,4.9572,5.0231,5.04,5.0569,5.0907,5.0738,5.0231,4.9763,4.9672,4.9431,4.91,4.939,4.9369,4.9204,4.9204,4.9224,4.9162,4.9494,5.0011,5.0653,5.0839,5.0909,5.0899,5.1145,5.0702,4.8867,4.8497,4.7702,4.6763,4.6342,4.6489,4.6819,4.6947,4.7002,4.7047,4.7052,4.7252,4.695,4.6897,4.6516,4.6276,4.6093,4.5909,4.5323,4.5121,4.5121,4.4498,4.345,4.2038,4.0394,3.9359,3.8543,3.8646,3.8807,3.9129,3.9421,3.9558,3.9632,3.8114,3.6927,3.5818,5.0949,5.1316,5.0099,4.9985,5.0559,5.0421,5.0329,5.0467,5.1087,5.1133,5.0834,5.1179,5.1133,5.0696,5.1179,5.1156,5.0857,5.1247,5.0742,4.9686,4.964,5.003,5.0982,5.1899,5.2488,5.2617,5.286,5.2832,5.2756,5.2636,5.2886,5.3141,5.3655,5.3831,5.361,5.4211,5.4579,5.4905,5.5368,5.5876,5.6037,5.6702,5.6702,5.6221,5.553,5.4696,5.3902,5.4066,5.3573,5.2559,5.1725,5.0717,4.9742,4.923,4.9572,5.0231,5.04,5.0738,5.1097,5.0738,5.0231,4.9933,4.9693,4.9479,4.9162,4.9328,4.9307,4.9121,4.9059,4.9059,4.9183,4.9638,5.0322,5.0943,5.1274,5.1501,5.1771,5.1771,5.1025,4.9748,4.8965,4.8621,4.7231,4.6999,4.6929,4.724,4.7351,4.7284,4.7252,4.7219,4.6951,4.6807,4.6662,4.6423,4.6093,4.5909,4.5708,4.5323,4.5121,4.5121,4.4076,4.3043,4.1818,4.0394,3.9359,3.8558,3.8646,3.8763,3.9012,3.9334,3.9714,3.9127,3.7565,3.6706,3.5374,5.0903,5.1224,4.9732,4.9663,5.0398,5.0099,4.9962,5.0122,5.0995,5.1179,5.0926,5.1224,5.1179,5.0742,5.1224,5.0972,5.0237,5.1087,5.0467,4.9548,4.8951,4.9199,5.0165,5.1248,5.1811,5.1987,5.3072,5.2923,5.2679,5.2862,5.2764,5.2821,5.3278,5.3492,5.3566,5.4026,5.437,5.4579,5.5392,5.5715,5.6037,5.6542,5.6702,5.5876,5.4719,5.3879,5.3056,5.3056,5.3386,5.3715,5.2725,5.139,5.0231,4.9401,4.9572,5.0061,5.04,5.0738,5.1455,5.0907,5.04,5.0252,4.9593,4.9059,4.908,4.9121,4.9121,4.908,4.91,4.9287,4.9556,5.0094,5.0653,5.1191,5.1584,5.175,5.1791,5.1791,5.1207,4.9831,4.9306,4.8982,4.814,4.745,4.7259,4.7289,4.738,4.7256,4.7185,4.6896,4.6769,4.6623,4.6458,4.6276,4.5909,4.5726,4.5525,4.5121,4.5121,4.4902,4.3873,4.2636,4.1613,4.0394,3.9359,3.8751,3.8573,3.8734,3.8924,3.8976,3.931,3.8265,3.6978,3.6379,3.5596,5.0696,5.0696,4.9571,4.9479,4.9985,4.9962,4.9893,4.9985,5.0972,5.1316,5.127,5.1385,5.1339,5.1247,5.1339,5.1293,5.0972,5.1179,5.0788,4.9755,4.8768,4.8515,4.9129,5.0033,5.0802,5.1408,5.1582,5.1792,5.2339,5.2593,5.2811,5.3139,5.3515,5.4164,5.4188,5.4511,5.4742,5.4742,5.5577,5.6037,5.5852,5.6518,5.6518,5.5368,5.3879,5.355,5.4066,5.3879,5.3715,5.3221,5.187,5.04,4.9721,4.923,4.938,4.987,5.021,5.0569,5.1076,5.0717,5.04,5.0231,4.9572,4.9059,4.9059,4.9059,4.9059,4.9142,4.939,4.9825,5.0425,5.0777,5.1129,5.1501,5.1708,5.1791,5.1791,5.1791,5.0823,4.9282,4.8867,4.8473,4.7604,4.7387,4.7229,4.7401,4.7383,4.7437,4.7075,4.6511,4.6311,4.611,4.5909,4.5708,4.5708,4.5525,4.5323,4.5121,4.5121,4.47,4.367,4.2636,4.1407,4.0394,3.9359,3.8751,3.8543,3.8573,3.8734,3.8604,3.8681,3.7665,3.6856,3.626,3.5374,5.049,5.0214,4.9434,4.9273,4.9548,4.9778,4.9755,4.9824,5.0903,5.127,5.1156,5.1293,5.1431,5.1431,5.1408,5.1316,5.0949,5.0536,5.0214,4.964,4.8882,4.84,4.8492,4.9176,5.0103,5.1284,5.1426,5.1805,5.2325,5.2283,5.247,5.2871,5.3634,5.3865,5.4257,5.4789,5.4905,5.4905,5.5738,5.6221,5.6197,5.6518,5.6197,5.4859,5.355,5.3386,5.3221,5.2559,5.2226,5.1725,5.0738,4.9891,4.9721,4.9401,4.9318,4.9469,4.9977,5.042,5.0692,5.061,5.04,5.04,4.9551,4.923,4.9059,4.9059,4.9059,4.9162,4.9514,5.0115,5.0963,5.1087,5.1336,5.1667,5.1791,5.1791,5.1791,5.1791,5.1207,4.9525,4.9169,4.8569,4.8026,4.7406,4.7193,4.7292,4.7437,4.7292,4.6476,4.611,4.5909,4.5708,4.5306,4.5121,4.5121,4.5121,4.5121,4.5121,4.5121,4.4498,4.367,4.2636,4.1407,4.0378,3.9374,3.8751,3.8543,3.8558,3.8573,3.8583,3.8239,3.7284,3.6544,3.5754,3.484,5.0467,4.9985,4.9457,4.9273,4.9388,4.9755,4.9686,4.9525,5.0788,5.1087,5.0719,5.1133,5.1316,5.1224,5.1385,5.111,5.0536,4.9847,4.964,4.9548,4.8814,4.8446,4.8515,4.9029,4.9831,5.0936,5.1366,5.1883,5.2131,5.2177,5.2349,5.2553,5.3222,5.3773,5.4073,5.465,5.5067,5.5067,5.59,5.6221,5.6221,5.6542,5.6174,5.5021,5.3198,5.2725,5.2226,5.139,5.0569,5.04,4.9742,4.9721,4.9721,4.953,4.9105,4.907,4.9892,5.0251,5.0292,5.0209,5.0231,5.0231,4.9572,4.923,4.9059,4.9059,4.9059,4.9245,4.9597,5.028,5.1067,5.1274,5.1439,5.1688,5.1791,5.1791,5.1791,5.161,5.0864,4.9971,4.8984,4.8137,4.7779,4.7387,4.7174,4.695,4.7275,4.7093,4.6276,4.5708,4.5507,4.5306,4.5104,4.5121,4.5121,4.5104,4.5104,4.4902,4.4902,4.4076,4.3263,4.2038,4.0791,4.0394,3.9567,3.8959,3.8543,3.8543,3.8379,3.8437,3.7688,3.6854,3.6095,3.5482,3.4542,5.0972,5.0467,4.9985,4.9985,5.0283,5.0053,4.987,4.9962,5.0926,5.088,5.026,5.0995,5.0926,5.0605,5.111,5.1087,5.0559,4.9962,4.9548,4.9273,4.8653,4.84,4.8492,4.8974,4.973,5.0374,5.0872,5.1372,5.192,5.1944,5.2488,5.3191,5.3543,5.3819,5.4326,5.5021,5.5206,5.4905,5.59,5.6221,5.5876,5.6197,5.6358,5.5044,5.3056,5.2059,5.2392,5.1222,5.04,5.04,5.0231,4.9891,4.9572,4.923,4.9168,4.9085,4.9637,4.9807,4.9871,4.9807,4.9912,4.9742,4.9401,4.9059,4.9059,4.908,4.9121,4.939,4.9908,5.0673,5.1564,5.1605,5.1667,5.1791,5.1791,5.1791,5.161,5.1046,5.0114,4.9216,4.8428,4.761,4.7213,4.6992,4.6725,4.6502,4.6682,4.6246,4.5466,4.5168,4.5289,4.5104,4.5121,4.5121,4.5121,4.5104,4.5104,4.47,4.4295,4.3263,4.2447,4.1218,4.0187,3.9774,3.9152,3.8751,3.8543,3.8543,3.8558,3.8379,3.7533,3.6248,3.5811,3.5145,3.411,5.0972,5.026,5.026,5.026,5.026,5.0306,5.0122,5.0076,5.0949,5.0995,5.0582,5.0765,5.0765,5.0513,5.0719,5.0834,5.0536,5.0122,4.9617,4.9112,4.863,4.8377,4.8515,4.9135,4.9743,5.0307,5.07,5.135,5.2061,5.2037,5.2581,5.3283,5.3749,5.4073,5.4464,5.5044,5.5067,5.5067,5.5715,5.6037,5.5368,5.5876,5.5715,5.4882,5.3221,5.2415,5.2415,5.139,5.04,5.0231,4.9891,4.9572,4.923,4.9038,4.8955,4.8981,4.9276,4.9616,4.9511,4.9574,4.9742,4.9742,4.9401,4.9059,4.9059,4.91,4.9266,4.9783,5.0301,5.1046,5.1708,5.1771,5.1791,5.1791,5.1791,5.161,5.1046,5.0114,4.9197,4.8293,4.7812,4.7141,4.65,4.6261,4.6205,4.6215,4.6073,4.5603,4.4841,4.483,4.5001,4.5019,4.5036,4.5121,4.5104,4.4902,4.47,4.4295,4.367,4.2447,4.1628,4.06,3.9789,3.9152,3.8751,3.8543,3.8543,3.8543,3.8543,3.8364,3.7011,3.606,3.5436,3.4823,3.3801,5.0949,5.0237,5.0513,5.0467,5.0283,5.0375,5.0329,5.026,5.0903,5.0926,5.0536,5.0582,5.0582,5.0513,5.0536,5.0536,5.0352,4.9939,4.9571,4.8951,4.8584,4.8377,4.8653,4.9204,4.9755,5.0008,5.0857,5.1763,5.24,5.22,5.2605,5.3371,5.3999,5.4256,5.428,5.4835,5.5021,5.5067,5.553,5.5691,5.553,5.523,5.5067,5.4905,5.3738,5.2913,5.2581,5.1222,5.04,4.9891,4.9572,4.9059,4.9059,4.9059,4.8893,4.8815,4.9213,4.9321,4.9279,4.9342,4.9572,4.9572,4.923,4.9059,4.9059,4.9142,4.9411,5.0259,5.0549,5.1067,5.1605,5.1708,5.1708,5.1791,5.1791,5.1429,5.0499,4.9564,4.8663,4.7941,4.7382,4.6878,4.6219,4.6097,4.627,4.5662,4.5683,4.541,4.4687,4.471,4.4864,4.4882,4.4933,4.507,4.4902,4.47,4.4295,4.3873,4.2856,4.1628,4.0806,3.9996,3.9374,3.8751,3.8751,3.8543,3.8543,3.8543,3.8543,3.799,3.6716,3.5912,3.5587,3.4785,3.353,5.1362,5.1201,5.0788,5.0857,5.1064,5.0375,5.0237,5.0536,5.0696,5.0444,5.0145,5.0398,5.0375,5.0191,5.049,5.0122,4.9686,4.9732,4.9411,4.8653,4.8492,4.8469,4.8492,4.8928,4.964,5.0099,5.0972,5.1924,5.2488,5.2279,5.2558,5.3418,5.3673,5.3793,5.4119,5.4604,5.4882,5.4742,5.5206,5.5691,5.553,5.4905,5.4742,5.4579,5.3902,5.2747,5.2059,5.1054,5.0231,4.9401,4.923,4.9059,4.9059,4.9059,4.9038,4.8997,4.9209,4.9209,4.9147,4.9188,4.923,4.923,4.9059,4.9059,4.908,4.9162,4.9494,5.028,5.0259,5.0591,5.1419,5.1439,5.1481,5.1646,5.1791,5.1227,5.0297,4.938,4.8478,4.7177,4.6635,4.6259,4.575,4.6042,4.6125,4.5676,4.5081,4.4811,4.4678,4.4635,4.4642,4.4642,4.4664,4.4834,4.4413,4.4211,4.3467,4.3263,4.2038,4.0806,3.9981,3.9374,3.8959,3.8543,3.8543,3.8543,3.8543,3.8543,3.8543,3.7781,3.6436,3.6085,3.5992,3.4747,3.3002,5.1431,5.1408,5.1179,5.1201,5.1316,5.0627,5.0421,5.0582,5.0452,5.0338,5.0329,5.0434,5.0296,5.0031,5.0421,5.0237,4.9732,4.9801,4.9342,4.8676,4.863,4.8768,4.902,4.9571,5.0145,5.0375,5.1087,5.189,5.2456,5.2635,5.286,5.3441,5.3604,5.3703,5.3934,5.4441,5.4556,5.4579,5.4742,5.4905,5.4882,5.4579,5.4579,5.4742,5.4066,5.3078,5.1892,5.139,5.04,4.9401,4.9059,4.9059,4.9059,4.9059,4.9059,4.9059,4.9059,4.9059,4.9059,4.9059,4.9059,4.9059,4.9059,4.9059,4.91,4.9307,4.9514,4.997,5.0384,5.0818,5.1294,5.146,5.1605,5.1729,5.1388,5.0499,4.9748,4.9197,4.8273,4.699,4.5695,4.5506,4.5318,4.5463,4.5453,4.4952,4.4517,4.4341,4.4177,4.394,4.4145,4.4334,4.4459,4.48,4.4127,4.3471,4.2619,4.2038,4.1218,4.0187,3.9374,3.8751,3.8543,3.8543,3.8543,3.8543,3.8543,3.8543,3.8335,3.7529,3.6326,3.5751,3.5174,3.412,3.2857,5.1431,5.1431,5.1431,5.1431,5.1362,5.0857,5.0696,5.0811,5.0475,5.0521,5.0719,5.0687,5.0365,4.9985,5.0398,5.0513,4.9916,4.9916,4.9365,4.8951,4.8791,4.8951,4.925,4.9939,5.0421,5.065,5.1339,5.1982,5.2507,5.2848,5.3075,5.3538,5.3469,5.3703,5.4165,5.4347,5.4416,5.4416,5.4416,5.4579,5.4416,5.4416,5.4416,5.4416,5.4066,5.3408,5.2081,5.139,5.0379,4.9401,4.9059,4.9059,4.9059,4.9059,4.9059,4.9059,4.9059,4.9059,4.9059,4.9059,4.9059,4.9059,4.9059,4.9059,4.91,4.9411,4.9506,4.9435,4.967,5.008,5.027,5.0416,5.0559,5.0479,5.0601,4.9728,4.9032,4.8478,4.7736,4.6241,4.5318,4.4939,4.4939,4.475,4.4614,4.4251,4.3975,4.3748,4.3637,4.37,4.406,4.4402,4.4076,4.4195,4.3723,4.288,4.1786,4.0791,4.0187,3.9582,3.8959,3.8751,3.8543,3.8543,3.8543,3.8543,3.8543,3.8335,3.8127,3.7096,3.6298,3.5152,3.4308,3.3075,3.2273,5.1431,5.1431,5.1431,5.1431,5.1385,5.0857,5.0903,5.1224,5.0613,5.0658,5.1087,5.1224,5.0444,4.987,5.0536,5.0788,4.9939,4.9916,4.9502,4.9043,4.8722,4.8837,4.9227,4.9709,5.0237,5.0719,5.1339,5.1867,5.2304,5.276,5.3174,5.352,5.3382,5.352,5.3773,5.4115,5.4066,5.4089,5.4066,5.4252,5.4252,5.423,5.423,5.4043,5.355,5.2747,5.1725,5.0989,5.021,4.9209,4.9059,4.9059,4.9059,4.9059,4.9059,4.9059,4.9059,4.9059,4.9059,4.9059,4.9059,4.9059,4.9059,4.9059,4.908,4.908,4.8962,4.8789,4.8959,4.859,4.8375,4.8331,4.9148,4.9187,4.9549,4.8993,4.8293,4.7941,4.7009,4.5695,4.4939,4.456,4.418,4.399,4.418,4.3834,4.3678,4.3469,4.3758,4.3888,4.4299,4.4425,4.3842,4.3587,4.3148,4.2147,4.0965,4.0141,3.9522,3.9137,3.8751,3.8543,3.8543,3.8543,3.8543,3.8543,3.8335,3.8127,3.7695,3.6859,3.606,3.4914,3.3665,3.2471,3.1844,5.1431,5.1431,5.1431,5.1431,5.1385,5.0857,5.0926,5.127,5.0658,5.0292,5.0315,5.0864,5.0742,5.0214,5.0719,5.1041,5.0352,5.0008,4.9617,4.9227,4.8951,4.8974,4.9296,4.964,5.0168,5.0627,5.1133,5.1867,5.2625,5.2602,5.3245,5.3612,5.3221,5.3102,5.342,5.3788,5.3715,5.3078,5.3243,5.3573,5.3408,5.3056,5.2921,5.3121,5.2302,5.1454,5.0623,5.0121,4.9639,4.9318,4.9059,4.9059,4.9059,4.9059,4.9059,4.9059,4.9059,4.9059,4.9059,4.9059,4.9059,4.9059,4.9059,4.9059,4.9059,4.9059,4.8605,4.8371,4.8446,4.8235,4.7366,4.7969,4.8777,4.8437,4.811,4.7992,4.7717,4.7139,4.6635,4.5318,4.456,4.4198,4.3817,4.3244,4.3435,4.3626,4.3296,4.3225,4.3512,4.3837,4.3948,4.3822,4.339,4.2286,4.1835,4.0826,3.9889,3.927,3.8841,3.8707,3.8543,3.8543,3.8543,3.8543,3.8543,3.8543,3.8335,3.7904,3.7068,3.6216,3.5415,3.4437,3.3247,3.1828,3.1368,5.1431,5.1431,5.1431,5.1431,5.1385,5.1018,5.1064,5.1316,5.0864,5.0361,4.9752,5.0796,5.0949,5.0559,5.0972,5.127,5.0742,5.0237,4.9755,4.9342,4.9066,4.902,4.9204,4.9502,4.9939,5.0444,5.0742,5.1362,5.2533,5.2441,5.2628,5.2755,5.272,5.2667,5.3109,5.3243,5.289,5.2226,5.2226,5.2747,5.2581,5.2226,5.1971,5.2093,5.1345,5.0703,5.0057,4.9575,4.9343,4.9085,4.9059,4.9059,4.9059,4.9059,4.9059,4.9059,4.9059,4.9059,4.9059,4.9059,4.9059,4.9059,4.9059,4.9059,4.9059,4.9059,4.8585,4.7414,4.7897,4.7939,4.6675,4.6762,4.7182,4.6827,4.7055,4.6913,4.6821,4.6467,4.5828,4.4939,4.4578,4.4198,4.3626,4.3053,4.3053,4.3244,4.307,4.3015,4.3358,4.3402,4.3275,4.3135,4.2559,4.1383,4.0196,3.9688,3.9105,3.8929,3.8545,3.8485,3.8543,3.8543,3.8543,3.8543,3.8543,3.8543,3.8127,3.7695,3.6649,3.5585,3.4372,3.3349,3.2393,3.1169,3.0767,5.1431,5.1431,5.1431,5.1431,5.1431,5.1408,5.1408,5.1431,5.1339,5.0842,5.0407,5.1156,5.1133,5.0788,5.1156,5.1339,5.1133,5.0398,4.9893,4.964,4.902,4.8837,4.8928,4.9227,4.9617,5.0398,5.0719,5.1201,5.2258,5.2602,5.2375,5.1729,5.1752,5.1805,5.2913,5.2226,5.1725,5.1725,5.1558,5.1725,5.1725,5.158,5.1325,5.1253,5.0241,4.9531,4.9491,4.9028,4.8648,4.9001,4.9017,4.9059,4.9059,4.9059,4.9059,4.9059,4.9059,4.9059,4.9059,4.9059,4.9059,4.9059,4.9059,4.9059,4.9059,4.8887,4.8372,4.7026,4.715,4.6331,4.5562,4.4893,4.5224,4.5575,4.5797,4.6057,4.5982,4.6093,4.5659,4.4939,4.4578,4.4198,4.3626,4.3244,4.2861,4.2861,4.2861,4.2823,4.3112,4.2741,4.2385,4.2014,4.1437,4.0499,3.9458,3.877,3.8295,3.8148,3.828,3.8456,3.8543,3.8543,3.8543,3.8543,3.8543,3.8543,3.8112,3.7486,3.6006,3.4108,3.306,3.1831,3.1045,3.0527,3.0148,5.1431,5.1431,5.1431,5.1431,5.1431,5.1431,5.1431,5.1431,5.1385,5.1133,5.0788,5.1179,5.1133,5.0926,5.1133,5.1431,5.127,5.0811,5.0306,4.9824,4.9135,4.8791,4.8745,4.8791,4.9204,4.9985,5.0467,5.1133,5.2212,5.2625,5.249,5.2012,5.0876,5.0696,5.0907,5.0886,5.1222,5.04,5.04,5.0907,5.0717,5.0379,5.0273,5.031,4.9195,4.8568,4.8756,4.8254,4.8231,4.8645,4.8831,4.9059,4.9059,4.9059,4.9059,4.9059,4.9059,4.9059,4.9059,4.9059,4.9059,4.9059,4.9059,4.9059,4.9059,4.8372,4.7488,4.6542,4.6304,4.5489,4.4281,4.4635,4.4893,4.5022,4.5261,4.5666,4.5869,4.5792,4.5713,4.4957,4.4388,4.3817,4.3244,4.3035,4.2669,4.2076,4.1866,4.2034,4.2107,4.1163,4.0529,4.059,4.0174,3.9454,3.8553,3.8215,3.7841,3.7856,3.8148,3.85,3.8543,3.8543,3.8543,3.8543,3.8543,3.8543,3.7486,3.6425,3.4306,3.2835,3.1569,3.0726,3.0117,2.981,2.9589,5.1431,5.1431,5.1431,5.1431,5.1431,5.1431,5.1431,5.1431,5.1408,5.1224,5.1041,5.1293,5.1247,5.1087,5.1224,5.1431,5.1362,5.0857,5.0375,4.9893,4.9342,4.8882,4.8538,4.8469,4.9066,4.9755,5.0283,5.0903,5.1867,5.2395,5.2194,5.141,5.0348,4.9575,4.9553,5.0061,5.0231,4.9572,4.9742,4.9891,4.9721,4.953,4.9276,4.9238,4.8484,4.7796,4.7858,4.7879,4.79,4.8334,4.8728,4.9038,4.9059,4.9059,4.9059,4.9059,4.9059,4.9059,4.9059,4.8544,4.8544,4.8544,4.8887,4.8887,4.8716,4.8007,4.6967,4.6211,4.5636,4.5017,4.4157,4.4508,4.4636,4.4765,4.5058,4.5443,4.5608,4.5737,4.5713,4.4957,4.4388,4.3626,4.3053,4.2844,4.246,4.1674,4.1078,4.1081,4.1033,4.009,3.9378,3.9189,3.9132,3.8447,3.8004,3.782,3.7578,3.7578,3.8002,3.8514,3.8543,3.8543,3.8543,3.8543,3.8543,3.8112,3.6635,3.5151,3.3248,3.1557,3.0488,2.9856,2.9211,2.9106,2.926,5.1408,5.1431,5.1431,5.1431,5.1431,5.1431,5.1431,5.1431,5.1431,5.1408,5.1408,5.1385,5.1362,5.1385,5.1431,5.1431,5.1385,5.0926,5.0421,4.9939,4.9479,4.8928,4.8561,4.8446,4.8951,4.9548,5.0122,5.065,5.1431,5.1581,5.1487,5.0633,4.8962,4.8609,4.8815,4.9151,4.9234,4.9168,4.923,4.9401,4.923,4.923,4.9188,4.8898,4.8461,4.8024,4.7962,4.79,4.7962,4.8293,4.8728,4.8935,4.9059,4.9059,4.9059,4.9059,4.9059,4.9059,4.8716,4.8179,4.7834,4.7834,4.8351,4.8199,4.7915,4.7454,4.6601,4.5761,4.5083,4.4864,4.4617,4.4727,4.4655,4.4856,4.5095,4.5315,4.5462,4.5439,4.5452,4.5129,4.456,4.3799,4.3053,4.2652,4.246,4.1078,4.0303,3.9752,3.9668,3.9261,3.8565,3.8188,3.7886,3.7643,3.7487,3.7486,3.7504,3.7578,3.809,3.8543,3.8543,3.8543,3.8543,3.8543,3.8321,3.7472,3.5782,3.3883,3.1972,3.0702,2.9641,2.9211,2.8996,2.8996,2.8901,5.1087,5.1408,5.1431,5.1431,5.1431,5.1431,5.1431,5.1431,5.1431,5.1431,5.1431,5.1431,5.1431,5.1431,5.1431,5.1431,5.1362,5.1179,5.0605,5.0122,4.9709,4.9112,4.8676,4.8469,4.8837,4.9388,4.9985,5.049,5.0688,5.0726,4.9927,4.8939,4.8189,4.8025,4.8045,4.8337,4.8711,4.8893,4.8997,4.9038,4.9059,4.9059,4.9059,4.8852,4.8479,4.8189,4.7879,4.7838,4.7858,4.7941,4.8355,4.8666,4.9059,4.9059,4.9059,4.9059,4.9059,4.8887,4.8199,4.7834,4.7488,4.6793,4.6987,4.7185,4.6973,4.6503,4.5953,4.5205,4.4595,4.4281,4.4304,4.4251,4.4545,4.4875,4.5132,4.5333,4.5498,4.5718,4.5506,4.4939,4.437,4.3609,4.2861,4.2844,4.2268,4.0885,3.972,3.894,3.8353,3.8157,3.7976,3.7386,3.7189,3.7189,3.7214,3.7183,3.7402,3.7651,3.8163,3.8529,3.8543,3.8543,3.8543,3.8112,3.7695,3.6425,3.494,3.2823,3.0904,2.9845,2.8996,2.8781,2.8576,2.8792,2.8792,5.0811,5.1133,5.1339,5.1431,5.1431,5.1431,5.1431,5.1431,5.1431,5.1431,5.1431,5.1431,5.1431,5.1431,5.1431,5.1431,5.1408,5.1362,5.0949,5.0398,5.0008,4.9388,4.8882,4.8538,4.8722,4.9273,4.9847,5.0375,5.033,4.9651,4.8908,4.8358,4.771,4.7547,4.7589,4.788,4.8191,4.8669,4.9001,4.9105,4.9017,4.9059,4.9059,4.8976,4.8624,4.8189,4.7796,4.7796,4.7858,4.7858,4.8231,4.8728,4.9059,4.9059,4.9059,4.9059,4.9059,4.8544,4.8007,4.7314,4.6619,4.5958,4.5546,4.5598,4.5636,4.5458,4.5045,4.4632,4.3967,4.3573,4.3738,4.3921,4.4416,4.4875,4.5132,4.5388,4.5608,4.5828,4.5318,4.475,4.418,4.3435,4.2861,4.2861,4.2268,4.0691,3.9526,3.8745,3.7961,3.7189,3.7189,3.6992,3.6795,3.6612,3.6861,3.7095,3.7387,3.7709,3.8163,3.8456,3.85,3.8543,3.8335,3.7486,3.6425,3.5151,3.3672,3.1759,2.9845,2.9211,2.8781,2.8576,2.8576,2.8576,2.8587,5.0559,5.0696,5.1201,5.1431,5.1431,5.1431,5.1431,5.1431,5.1431,5.1431,5.1431,5.1431,5.1431,5.1431,5.1431,5.1431,5.1431,5.1408,5.1133,5.0605,5.0237,4.9686,4.9066,4.8722,4.8745,4.9135,4.9537,5.0026,4.9977,4.9227,4.8393,4.8068,4.6962,4.6823,4.7403,4.7299,4.7651,4.8355,4.8815,4.9109,4.9168,4.9059,4.9059,4.8997,4.8666,4.8272,4.7982,4.7982,4.8148,4.8169,4.8314,4.881,4.9038,4.9059,4.9059,4.8887,4.8716,4.8027,4.7141,4.6444,4.5744,4.5015,4.4368,4.4498,4.4498,4.4782,4.4547,4.4294,4.3664,4.3719,4.3848,4.4068,4.4453,4.493,4.5278,4.5535,4.5755,4.5695,4.5129,4.4542,4.3799,4.3227,4.2861,4.2652,4.1674,4.0303,3.9136,3.8353,3.7583,3.6597,3.6612,3.6612,3.6612,3.6641,3.6787,3.7051,3.7417,3.7797,3.8207,3.8441,3.8514,3.8335,3.8112,3.7054,3.5585,3.4095,3.2398,3.0691,2.9415,2.8781,2.8576,2.836,2.836,2.836,2.8371,4.9916,5.0673,5.1201,5.1431,5.1431,5.1431,5.1431,5.1431,5.1431,5.1431,5.1431,5.1431,5.1431,5.1431,5.1431,5.1431,5.1431,5.1385,5.1087,5.0765,5.0421,4.987,4.925,4.8905,4.8791,4.8905,4.9285,4.957,4.9318,4.8504,4.7635,4.6816,4.6389,4.6761,4.7217,4.7092,4.7734,4.8334,4.8838,4.9067,4.9188,4.9059,4.9059,4.9038,4.8831,4.8603,4.8293,4.7962,4.8127,4.821,4.7982,4.8376,4.8997,4.9038,4.8716,4.8199,4.8007,4.7141,4.6289,4.5588,4.4883,4.4286,4.3774,4.394,4.4013,4.4138,4.4281,4.4028,4.3829,4.3921,4.405,4.427,4.4526,4.5003,4.5443,4.5663,4.5865,4.5488,4.4921,4.4353,4.3591,4.3227,4.2652,4.2076,4.1078,4.0109,3.894,3.8173,3.7386,3.6612,3.6612,3.6612,3.6612,3.6656,3.6773,3.7051,3.7446,3.7782,3.8163,3.8368,3.8529,3.7904,3.7486,3.6006,3.4729,3.3035,3.1545,2.9845,2.8781,2.8576,2.836,2.836,2.836,2.836,2.836,4.964,5.0031,5.0765,5.1224,5.1408,5.1431,5.1431,5.1431,5.1431,5.1431,5.1431,5.1431,5.1431,5.1431,5.1431,5.1431,5.1431,5.1431,5.1293,5.1018,5.0513,4.9985,4.9525,4.9066,4.8676,4.8699,4.901,4.9112,4.8755,4.8092,4.7293,4.653,4.6492,4.6761,4.7072,4.7279,4.7859,4.8334,4.8648,4.8877,4.9017,4.9059,4.9059,4.9059,4.8997,4.879,4.8583,4.8231,4.8355,4.8459,4.8355,4.8202,4.8462,4.8351,4.8007,4.7314,4.6967,4.6444,4.5412,4.4744,4.4389,4.3788,4.3668,4.4068,4.4141,4.4304,4.4506,4.4288,4.427,4.4343,4.4453,4.4655,4.4875,4.5242,4.5553,4.5792,4.5695,4.5129,4.4714,4.411,4.3383,4.2635,4.2268,4.1866,4.0691,3.9331,3.8369,3.778,3.6992,3.6612,3.6612,3.6612,3.6612,3.6612,3.6685,3.7036,3.7504,3.7826,3.7913,3.7939,3.7695,3.7277,3.6425,3.494,3.346,3.1972,3.0488,2.9211,2.8792,2.836,2.836,2.836,2.836,2.836,2.836,4.9571,4.9365,5.0237,5.088,5.1293,5.1408,5.1431,5.1431,5.1431,5.1431,5.1431,5.1431,5.1431,5.1431,5.1431,5.1431,5.1431,5.1431,5.1385,5.1179,5.0605,5.0168,4.9663,4.9135,4.8928,4.8578,4.8674,4.8763,4.8864,4.7773,4.7014,4.6451,4.674,4.7072,4.7237,4.7568,4.8065,4.8438,4.8815,4.8728,4.8914,4.9059,4.9059,4.9059,4.9038,4.8852,4.8728,4.8645,4.8686,4.8645,4.8603,4.8298,4.8098,4.7834,4.6967,4.6444,4.6094,4.5588,4.4902,4.466,4.4127,4.388,4.3995,4.4215,4.4325,4.4526,4.4746,4.4783,4.4765,4.4728,4.4856,4.4985,4.5187,4.5407,4.5682,4.5883,4.5525,4.4957,4.4525,4.3902,4.3175,4.2443,4.1866,4.1271,4.0303,3.876,3.778,3.7386,3.6992,3.6795,3.6612,3.6612,3.6612,3.6612,3.6626,3.7036,3.7534,3.7155,3.7223,3.7287,3.6859,3.6216,3.5164,3.3684,3.2197,3.0916,3.0059,2.8996,2.8576,2.8371,2.836,2.836,2.836,2.836,2.836,4.9457,4.9824,5.0375,5.0696,5.0857,5.1247,5.1431,5.1431,5.1431,5.1431,5.1431,5.1431,5.1431,5.1431,5.1431,5.1431,5.1431,5.1431,5.1431,5.1293,5.0972,5.0513,4.9985,4.9479,4.9594,4.9215,4.8468,4.8145,4.846,4.7453,4.6509,4.6368,4.6803,4.7196,4.761,4.7982,4.8376,4.8707,4.8852,4.8955,4.8976,4.9059,4.9059,4.9059,4.9059,4.8997,4.8914,4.8645,4.85,4.8438,4.831,4.8025,4.7672,4.7275,4.6444,4.5588,4.5236,4.4762,4.4286,4.4312,4.4009,4.4212,4.4197,4.4636,4.4818,4.5278,4.5407,4.5388,4.5315,4.5058,4.5113,4.5205,4.5388,4.5608,4.5865,4.5732,4.5579,4.4957,4.4163,4.3556,4.2984,4.2042,4.1271,4.0691,3.972,3.8353,3.7386,3.6795,3.6795,3.6597,3.6612,3.6612,3.6612,3.6612,3.6626,3.6894,3.7128,3.6936,3.6561,3.6246,3.5795,3.5164,3.3896,3.241,3.1356,3.0285,2.9426,2.8792,2.8576,2.836,2.836,2.836,2.836,2.836,2.836]},{"header":{"parameterUnit":"m.s-1","parameterCategory":1,"la1":31.0,"la2":29.5877,"lo1":-88.7671,"lo2":-86.6584,"dx":0.0162,"dy":0.0185,"nx":115,"ny":88,"refTime":"2022-11-10T18:00:00:Z","depth":0,"parameterNumber":3,"parameterNumberName":"V-component_of_WINDS"},"data":[0.0,0.0,0.0,0.0,0.0,0.0,0.0,0.0,0.0,0.0,0.0,0.0,0.0,0.0,0.0,0.0,0.0,0.0,0.0,0.0,0.0,0.0,0.0,0.0,0.0,0.0,0.0,0.0,0.0,0.0,0.0,0.0,0.0,0.0,0.0,0.0,0.0,0.0,0.0,0.0,0.0,0.0,0.0,0.0,0.0,0.0,0.0,0.0,0.0,0.0,0.0,0.0,0.0,0.0,0.0,0.0,0.0,0.0,0.0,0.0,0.0,0.0,0.0,0.0,0.0,0.0,0.0,0.0,0.0,0.0,0.0,0.0,0.0,0.0,0.0,0.0,0.0,0.0,0.0,0.0,0.0,0.0,0.0,0.0,0.0,0.0,0.0,0.0,0.0,0.0,0.0,0.0,0.0,0.0,0.0,0.0,0.0,0.0,0.0,0.0,0.0,0.0,0.0,0.0,0.0,0.0,0.0,0.0,0.0,0.0,0.0,0.0,0.0,0.0,0.0,0.0,0.0,0.0,0.0,0.0,0.0,0.0,0.0,0.0,0.0,0.0,0.0,0.0,0.0,0.0,0.0,0.0,0.0,0.0,0.0,0.0,0.0,0.0,0.0,0.0,0.0,0.0,0.0,0.0,0.0,0.0,0.0,0.0,0.0,0.0,0.0,0.0,0.0,0.0,0.0,0.0,0.0,0.0,0.0,0.0,0.0,0.0,0.0,0.0,0.0,0.0,0.0,0.0,0.0,0.0,0.0,0.0,0.0,0.0,0.0,0.0,0.0,0.0,0.0,0.0,0.0,0.0,0.0,0.0,0.0,0.0,0.0,0.0,0.0,0.0,0.0,0.0,0.0,0.0,0.0,0.0,0.0,0.0,0.0,0.0,0.0,0.0,0.0,0.0,0.0,0.0,0.0,0.0,0.0,0.0,0.0,0.0,0.0,0.0,0.0,0.0,0.0,0.0,0.0,0.0,0.0,0.0,0.0,0.0,0.0,0.0,0.0,0.0,0.0,0.0,0.0,0.0,0.0,0.0,0.0,0.0,0.0,0.0,0.0,0.0,0.0,0.0,0.0,0.0,0.0,0.0,0.0,0.0,0.0,0.0,0.0,0.0,0.0,0.0,0.0,0.0,0.0,0.0,0.0,0.0,0.0,0.0,0.0,0.0,0.0,0.0,0.0,0.0,0.0,0.0,0.0,0.0,0.0,0.0,0.0,0.0,0.0,0.0,0.0,0.0,0.0,0.0,0.0,0.0,0.0,0.0,0.0,0.0,0.0,0.0,0.0,0.0,0.0,0.0,0.0,0.0,0.0,0.0,0.0,0.0,0.0,0.0,0.0,0.0,0.0,0.0,0.0,0.0,0.0,0.0,0.0,0.0,0.0,0.0,0.0,0.0,0.0,0.0,0.0,0.0,0.0,0.0,0.0,0.0,0.0,0.0,0.0,0.0,0.0,0.0,0.0,0.0,0.0,0.0,0.0,0.0,0.0,0.0,0.0,0.0,0.0,0.0,0.0,0.0,0.0,0.0,0.0,0.0,0.0,0.0,0.0,0.0,0.0,0.0,0.0,0.0,0.0,0.0,0.0,0.0,0.0,0.0,0.0,0.0,0.0,0.0,0.0,0.0,0.0,0.0,0.0,0.0,0.0,0.0,0.0,0.0,0.0,0.0,0.0,0.0,0.0,0.0,0.0,0.0,0.0,0.0,0.0,0.0,0.0,0.0,0.0,0.0,0.0,0.0,0.0,0.0,0.0,0.0,0.0,0.0,0.0,0.0,0.0,0.0,0.0,0.0,0.0,0.0,0.0,0.0,0.0,0.0,0.0,0.0,0.0,0.0,0.0,0.0,0.0,0.0,0.0,0.0,0.0,0.0,0.0,0.0,0.0,0.0,0.0,0.0,0.0,0.0,0.0,0.0,0.0,0.0,0.0,0.0,0.0,0.0,0.0,0.0,0.0,0.0,0.0,0.0,0.0,0.0,0.0,0.0,0.0,0.0,0.0,0.0,0.0,0.0,0.0,0.0,0.0,0.0,0.0,0.0,0.0,0.0,0.0,0.0,0.0,0.0,0.0,0.0,0.0,0.0,0.0,0.0,0.0,0.0,0.0,0.0,0.0,0.0,0.0,0.0,0.0,0.0,0.0,0.0,0.0,0.0,0.0,0.0,0.0,0.0,0.0,0.0,0.0,0.0,0.0,0.0,0.0,0.0,0.0,0.0,0.0,0.0,0.0,0.0,0.0,0.0,0.0,0.0,0.0,0.0,0.0,0.0,0.0,0.0,0.0,0.0,0.0,0.0,0.0,0.0,0.0,0.0,0.0,0.0,0.0,0.0,0.0,0.0,0.0,0.0,0.0,0.0,0.0,0.0,0.0,0.0,0.0,0.0,0.0,0.0,0.0,0.0,0.0,0.0,0.0,0.0,0.0,0.0,0.0,0.0,0.0,0.0,0.0,0.0,0.0,0.0,0.0,0.0,0.0,0.0,0.0,0.0,0.0,0.0,0.0,0.0,0.0,0.0,0.0,0.0,0.0,0.0,0.0,0.0,0.0,0.0,0.0,0.0,0.0,0.0,0.0,0.0,0.0,0.0,0.0,0.0,0.0,0.0,0.0,0.0,0.0,0.0,0.0,0.0,0.0,0.0,0.0,0.0,0.0,0.0,0.0,0.0,0.0,0.0,0.0,0.0,0.0,0.0,0.0,0.0,0.0,0.0,0.0,0.0,0.0,0.0,0.0,0.0,0.0,0.0,0.0,0.0,0.0,0.0,0.0,0.0,0.0,0.0,0.0,0.0,0.0,0.0,0.0,0.0,0.0,0.0,0.0,0.0,0.0,0.0,0.0,0.0,0.0,0.0,0.0,0.0,0.0,0.0,0.0,0.0,0.0,0.0,0.0,0.0,0.0,0.0,0.0,0.0,0.0,0.0,0.0,0.0,0.0,0.0,0.0,0.0,0.0,0.0,0.0,0.0,0.0,0.0,0.0,0.0,0.0,0.0,0.0,0.0,0.0,0.0,0.0,0.0,0.0,0.0,0.0,0.0,0.0,0.0,0.0,0.0,0.0,0.0,0.0,0.0,0.0,0.0,0.0,0.0,0.0,0.0,0.0,0.0,0.0,0.0,0.0,0.0,0.0,0.0,0.0,0.0,0.0,0.0,0.0,0.0,0.0,0.0,0.0,0.0,0.0,0.0,0.0,0.0,0.0,0.0,0.0,0.0,0.0,0.0,0.0,0.0,0.0,0.0,0.0,0.0,0.0,0.0,0.0,0.0,0.0,0.0,0.0,0.0,0.0,0.0,0.0,0.0,0.0,0.0,0.0,0.0,0.0,0.0,0.0,0.0,0.0,0.0,0.0,0.0,0.0,0.0,0.0,0.0,0.0,0.0,0.0,0.0,0.0,0.0,0.0,0.0,0.0,0.0,0.0,0.0,0.0,0.0,0.0,0.0,0.0,0.0,0.0,0.0,0.0,0.0,0.0,0.0,0.0,0.0,0.0,0.0,0.0,0.0,0.0,0.0,0.0,0.0,0.0,0.0,0.0,0.0,0.0,0.0,0.0,0.0,0.0,0.0,0.0,0.0,0.0,0.0,0.0,0.0,0.0,0.0,0.0,0.0,0.0,0.0,0.0,0.0,0.0,0.0,0.0,0.0,0.0,0.0,0.0,0.0,0.0,0.0,0.0,0.0,0.0,0.0,0.0,0.0,0.0,0.0,0.0,0.0,0.0,0.0,0.0,0.0,0.0,0.0,0.0,0.0,0.0,0.0,0.0,0.0,0.0,0.0,0.0,0.0,0.0,0.0,0.0,0.0,0.0,0.0,0.0,0.0,0.0,0.0,0.0,0.0,0.0,0.0,0.0,0.0,0.0,0.0,0.0,0.0,0.0,0.0,0.0,0.0,0.0,0.0,0.0,0.0,0.0,0.0,0.0,0.0,0.0,0.0,0.0,0.0,0.0,0.0,0.0,0.0,0.0,0.0,0.0,0.0,0.0,0.0,0.0,0.0,0.0,0.0,0.0,0.0,0.0,0.0,0.0,0.0,0.0,0.0,0.0,0.0,0.0,0.0,0.0,0.0,0.0,0.0,0.0,0.0,0.0,0.0,0.0,0.0,0.0,0.0,0.0,0.0,0.0,0.0,0.0,0.0,0.0,0.0,0.0,0.0,0.0,0.0,0.0,0.0,0.0,0.0,0.0,0.0,0.0,0.0,0.0,0.0,0.0,0.0,0.0,0.0,0.0,0.0,0.0,0.0,-2.3086,0.0,0.0,0.0,-2.2743,0.0,0.0,0.0,0.0,0.0,0.0,0.0,0.0,0.0,0.0,0.0,0.0,0.0,0.0,0.0,0.0,0.0,0.0,0.0,0.0,0.0,0.0,0.0,0.0,0.0,0.0,0.0,0.0,0.0,0.0,0.0,0.0,0.0,0.0,0.0,0.0,0.0,0.0,0.0,0.0,0.0,0.0,0.0,0.0,0.0,0.0,0.0,0.0,0.0,0.0,0.0,0.0,0.0,0.0,0.0,0.0,0.0,0.0,0.0,0.0,0.0,0.0,0.0,0.0,0.0,0.0,0.0,0.0,0.0,0.0,0.0,0.0,0.0,0.0,0.0,0.0,0.0,0.0,0.0,0.0,0.0,0.0,0.0,0.0,0.0,0.0,0.0,0.0,0.0,0.0,0.0,0.0,0.0,0.0,0.0,0.0,0.0,0.0,0.0,0.0,0.0,0.0,0.0,0.0,0.0,0.0,0.0,0.0,0.0,0.0,-2.3385,-2.2208,-2.4624,-2.4838,-2.2562,0.0,0.0,0.0,0.0,0.0,0.0,0.0,0.0,0.0,0.0,0.0,0.0,0.0,0.0,0.0,0.0,0.0,0.0,0.0,0.0,0.0,0.0,0.0,0.0,0.0,0.0,0.0,0.0,0.0,0.0,0.0,0.0,0.0,0.0,0.0,0.0,0.0,0.0,0.0,0.0,0.0,0.0,0.0,0.0,0.0,0.0,0.0,0.0,0.0,0.0,0.0,0.0,0.0,0.0,0.0,0.0,0.0,0.0,0.0,0.0,0.0,0.0,0.0,0.0,0.0,0.0,0.0,0.0,0.0,0.0,0.0,0.0,0.0,0.0,0.0,0.0,0.0,0.0,0.0,0.0,0.0,0.0,0.0,0.0,0.0,0.0,0.0,0.0,0.0,0.0,0.0,0.0,0.0,0.0,0.0,0.0,0.0,0.0,0.0,0.0,0.0,0.0,0.0,0.0,0.0,0.0,0.0,0.0,0.0,0.0,0.0,0.0,-2.5762,-2.6029,-2.3985,0.0,0.0,0.0,0.0,0.0,0.0,0.0,0.0,0.0,0.0,0.0,0.0,0.0,0.0,0.0,0.0,0.0,0.0,0.0,0.0,0.0,0.0,0.0,0.0,0.0,0.0,0.0,0.0,0.0,0.0,0.0,0.0,0.0,0.0,0.0,0.0,0.0,0.0,0.0,0.0,0.0,0.0,0.0,0.0,0.0,0.0,0.0,0.0,0.0,0.0,0.0,0.0,0.0,0.0,0.0,0.0,0.0,0.0,0.0,0.0,0.0,0.0,0.0,0.0,0.0,0.0,0.0,0.0,0.0,0.0,0.0,0.0,0.0,0.0,0.0,0.0,0.0,0.0,0.0,0.0,0.0,0.0,0.0,0.0,0.0,0.0,0.0,0.0,0.0,0.0,0.0,0.0,0.0,0.0,0.0,0.0,0.0,0.0,0.0,0.0,0.0,0.0,0.0,0.0,0.0,0.0,0.0,0.0,0.0,0.0,-2.3912,-2.6226,-2.6872,0.0,-2.7516,0.0,0.0,0.0,0.0,0.0,0.0,0.0,0.0,0.0,0.0,0.0,0.0,0.0,0.0,0.0,0.0,0.0,0.0,0.0,0.0,0.0,0.0,0.0,0.0,0.0,0.0,0.0,0.0,0.0,0.0,0.0,0.0,0.0,0.0,0.0,0.0,0.0,0.0,0.0,0.0,0.0,0.0,0.0,0.0,0.0,0.0,0.0,0.0,0.0,0.0,0.0,0.0,0.0,0.0,0.0,0.0,0.0,0.0,0.0,0.0,0.0,0.0,0.0,0.0,0.0,0.0,0.0,0.0,0.0,0.0,0.0,0.0,0.0,0.0,0.0,0.0,0.0,0.0,0.0,0.0,0.0,0.0,0.0,0.0,0.0,0.0,0.0,0.0,0.0,0.0,0.0,0.0,0.0,0.0,0.0,0.0,0.0,0.0,0.0,0.0,0.0,0.0,0.0,0.0,0.0,0.0,0.0,0.0,0.0,0.0,-2.4969,-2.633,-2.6762,-2.6819,0.0,0.0,0.0,0.0,0.0,0.0,0.0,0.0,0.0,0.0,0.0,0.0,0.0,0.0,0.0,0.0,0.0,0.0,0.0,0.0,0.0,0.0,0.0,0.0,0.0,0.0,0.0,0.0,0.0,0.0,0.0,0.0,0.0,0.0,0.0,0.0,0.0,0.0,0.0,0.0,0.0,0.0,0.0,0.0,0.0,0.0,0.0,0.0,0.0,0.0,0.0,0.0,0.0,0.0,0.0,0.0,0.0,0.0,0.0,0.0,0.0,0.0,0.0,0.0,0.0,0.0,0.0,0.0,0.0,0.0,0.0,0.0,0.0,0.0,0.0,0.0,0.0,0.0,0.0,0.0,0.0,0.0,0.0,0.0,0.0,0.0,0.0,0.0,0.0,0.0,0.0,0.0,0.0,0.0,0.0,0.0,0.0,0.0,0.0,0.0,0.0,0.0,0.0,0.0,0.0,0.0,0.0,0.0,0.0,0.0,-2.5787,-2.6823,-2.7869,-2.7659,-2.71,-2.6307,0.0,0.0,0.0,0.0,0.0,0.0,0.0,0.0,0.0,0.0,0.0,0.0,0.0,0.0,0.0,0.0,0.0,0.0,0.0,0.0,0.0,0.0,0.0,0.0,0.0,0.0,0.0,0.0,0.0,0.0,0.0,0.0,0.0,0.0,0.0,0.0,0.0,0.0,0.0,0.0,0.0,0.0,0.0,0.0,0.0,0.0,0.0,0.0,0.0,0.0,0.0,0.0,0.0,0.0,0.0,0.0,0.0,0.0,0.0,0.0,0.0,0.0,0.0,0.0,0.0,0.0,0.0,0.0,0.0,0.0,0.0,0.0,0.0,0.0,0.0,0.0,0.0,0.0,0.0,0.0,0.0,0.0,0.0,0.0,0.0,0.0,0.0,0.0,0.0,0.0,0.0,0.0,0.0,0.0,0.0,0.0,0.0,0.0,0.0,0.0,0.0,0.0,0.0,0.0,0.0,0.0,0.0,0.0,-2.8714,-2.8557,-2.9719,-3.2307,-3.0122,-2.8818,0.0,0.0,0.0,0.0,0.0,0.0,0.0,0.0,0.0,0.0,0.0,0.0,0.0,0.0,0.0,0.0,0.0,0.0,0.0,0.0,0.0,0.0,0.0,0.0,0.0,0.0,0.0,0.0,0.0,0.0,0.0,0.0,0.0,0.0,0.0,0.0,0.0,0.0,0.0,0.0,0.0,0.0,0.0,0.0,0.0,0.0,0.0,0.0,0.0,0.0,0.0,0.0,0.0,0.0,0.0,0.0,0.0,0.0,0.0,0.0,0.0,0.0,0.0,0.0,0.0,0.0,0.0,0.0,0.0,0.0,0.0,0.0,0.0,0.0,0.0,0.0,0.0,0.0,0.0,0.0,0.0,0.0,0.0,0.0,0.0,0.0,0.0,0.0,0.0,0.0,0.0,0.0,0.0,0.0,0.0,0.0,0.0,0.0,0.0,0.0,0.0,0.0,0.0,0.0,0.0,0.0,0.0,0.0,0.0,-2.6006,-2.6747,-2.8385,-3.0974,-2.908,-2.8181,0.0,0.0,0.0,0.0,0.0,0.0,0.0,0.0,0.0,0.0,0.0,0.0,0.0,0.0,0.0,0.0,0.0,0.0,0.0,0.0,0.0,0.0,0.0,0.0,0.0,0.0,0.0,0.0,0.0,0.0,0.0,0.0,0.0,0.0,0.0,0.0,0.0,0.0,0.0,0.0,0.0,0.0,0.0,0.0,0.0,0.0,0.0,0.0,0.0,0.0,0.0,0.0,0.0,0.0,0.0,0.0,0.0,0.0,0.0,0.0,0.0,0.0,0.0,0.0,0.0,0.0,0.0,0.0,0.0,0.0,0.0,0.0,0.0,0.0,0.0,0.0,0.0,0.0,0.0,0.0,0.0,0.0,0.0,0.0,0.0,0.0,0.0,0.0,0.0,0.0,0.0,0.0,0.0,0.0,0.0,0.0,0.0,0.0,0.0,0.0,0.0,0.0,0.0,0.0,0.0,0.0,0.0,0.0,0.0,-2.7151,-2.8675,-3.0013,-3.0974,-2.9337,-2.7973,0.0,0.0,0.0,0.0,0.0,0.0,0.0,0.0,0.0,0.0,0.0,0.0,0.0,0.0,0.0,0.0,0.0,0.0,0.0,0.0,0.0,0.0,0.0,0.0,0.0,0.0,0.0,0.0,0.0,0.0,0.0,0.0,0.0,0.0,0.0,0.0,0.0,0.0,0.0,0.0,0.0,0.0,0.0,0.0,0.0,0.0,0.0,0.0,0.0,0.0,0.0,0.0,0.0,0.0,0.0,0.0,0.0,0.0,0.0,0.0,0.0,0.0,0.0,0.0,0.0,0.0,0.0,0.0,0.0,0.0,0.0,0.0,0.0,0.0,0.0,0.0,0.0,0.0,0.0,0.0,0.0,0.0,0.0,0.0,0.0,0.0,0.0,0.0,0.0,0.0,0.0,0.0,0.0,0.0,0.0,0.0,0.0,0.0,0.0,0.0,0.0,0.0,0.0,0.0,0.0,0.0,0.0,0.0,-2.8396,-3.2822,-3.4785,-3.4729,-3.3056,-3.1177,-2.8403,0.0,0.0,0.0,0.0,0.0,0.0,0.0,0.0,0.0,0.0,0.0,0.0,0.0,0.0,0.0,0.0,0.0,0.0,0.0,0.0,0.0,0.0,0.0,0.0,0.0,0.0,0.0,0.0,0.0,0.0,0.0,0.0,0.0,0.0,0.0,0.0,0.0,0.0,0.0,0.0,0.0,0.0,0.0,0.0,0.0,0.0,0.0,0.0,0.0,0.0,0.0,0.0,0.0,0.0,0.0,0.0,0.0,0.0,0.0,0.0,0.0,0.0,0.0,0.0,0.0,0.0,0.0,0.0,0.0,0.0,0.0,0.0,0.0,0.0,0.0,0.0,0.0,0.0,0.0,0.0,0.0,0.0,0.0,0.0,0.0,0.0,0.0,0.0,0.0,0.0,0.0,0.0,0.0,0.0,0.0,0.0,0.0,0.0,0.0,0.0,0.0,0.0,0.0,0.0,0.0,0.0,0.0,0.0,0.0,-2.8817,-3.2556,-3.4273,-3.3575,-3.1057,-2.963,0.0,0.0,0.0,0.0,0.0,0.0,0.0,0.0,0.0,0.0,0.0,0.0,0.0,0.0,0.0,0.0,0.0,0.0,0.0,0.0,0.0,0.0,0.0,0.0,0.0,0.0,0.0,0.0,0.0,0.0,0.0,0.0,0.0,0.0,0.0,0.0,0.0,0.0,0.0,0.0,0.0,0.0,0.0,0.0,0.0,0.0,0.0,0.0,0.0,0.0,0.0,0.0,0.0,0.0,0.0,0.0,0.0,0.0,0.0,0.0,0.0,0.0,0.0,0.0,0.0,0.0,0.0,0.0,0.0,0.0,0.0,0.0,0.0,0.0,0.0,0.0,0.0,0.0,0.0,0.0,0.0,0.0,0.0,0.0,0.0,0.0,0.0,0.0,0.0,0.0,0.0,0.0,0.0,0.0,0.0,0.0,0.0,0.0,0.0,0.0,0.0,0.0,0.0,0.0,0.0,0.0,0.0,0.0,0.0,-3.1545,-3.5604,-3.7384,-3.6377,-3.3608,-3.1837,-3.146,0.0,0.0,0.0,0.0,0.0,0.0,0.0,0.0,0.0,0.0,0.0,0.0,0.0,0.0,0.0,0.0,0.0,0.0,0.0,0.0,0.0,0.0,0.0,0.0,0.0,0.0,0.0,0.0,0.0,0.0,0.0,0.0,0.0,0.0,0.0,0.0,0.0,0.0,0.0,0.0,0.0,0.0,0.0,0.0,0.0,0.0,0.0,0.0,0.0,0.0,0.0,0.0,0.0,0.0,0.0,0.0,0.0,0.0,0.0,0.0,0.0,0.0,0.0,0.0,0.0,0.0,0.0,0.0,0.0,0.0,0.0,0.0,0.0,0.0,0.0,0.0,0.0,0.0,0.0,0.0,0.0,0.0,0.0,0.0,0.0,0.0,0.0,0.0,0.0,0.0,0.0,0.0,0.0,0.0,0.0,0.0,0.0,0.0,0.0,0.0,0.0,0.0,0.0,0.0,0.0,0.0,0.0,0.0,-3.9152,-4.2904,-4.3587,-4.0808,-3.7994,-3.4898,0.0,0.0,0.0,0.0,0.0,0.0,0.0,0.0,0.0,0.0,0.0,0.0,0.0,0.0,0.0,0.0,0.0,0.0,0.0,0.0,0.0,0.0,0.0,0.0,0.0,0.0,0.0,0.0,0.0,0.0,0.0,0.0,0.0,0.0,0.0,0.0,0.0,0.0,0.0,0.0,0.0,0.0,0.0,0.0,0.0,0.0,0.0,0.0,0.0,0.0,0.0,0.0,0.0,0.0,0.0,0.0,0.0,0.0,0.0,0.0,0.0,0.0,0.0,0.0,0.0,0.0,0.0,0.0,0.0,0.0,0.0,0.0,0.0,0.0,0.0,0.0,0.0,0.0,0.0,0.0,0.0,0.0,0.0,0.0,0.0,0.0,0.0,0.0,0.0,0.0,0.0,0.0,0.0,0.0,0.0,0.0,0.0,0.0,0.0,0.0,0.0,0.0,0.0,0.0,0.0,0.0,0.0,0.0,0.0,-4.2607,-4.6823,-4.7395,-4.3791,-3.9968,-3.7165,0.0,0.0,0.0,0.0,0.0,0.0,0.0,0.0,0.0,0.0,0.0,0.0,0.0,0.0,0.0,0.0,0.0,0.0,0.0,0.0,0.0,0.0,0.0,0.0,0.0,0.0,0.0,0.0,0.0,0.0,0.0,0.0,0.0,0.0,0.0,0.0,0.0,0.0,0.0,0.0,0.0,0.0,0.0,0.0,0.0,0.0,0.0,0.0,0.0,0.0,0.0,0.0,0.0,0.0,0.0,0.0,0.0,0.0,0.0,0.0,0.0,0.0,0.0,0.0,0.0,0.0,0.0,0.0,0.0,0.0,0.0,0.0,0.0,0.0,0.0,0.0,0.0,0.0,0.0,0.0,0.0,0.0,0.0,0.0,0.0,0.0,0.0,0.0,0.0,0.0,0.0,0.0,0.0,0.0,0.0,0.0,0.0,0.0,0.0,0.0,0.0,0.0,0.0,0.0,0.0,0.0,0.0,0.0,-4.1656,-4.6264,-4.9726,-5.0621,-4.8784,-4.4406,-4.1023,0.0,0.0,0.0,0.0,0.0,0.0,0.0,0.0,0.0,0.0,0.0,0.0,0.0,0.0,0.0,0.0,0.0,0.0,0.0,0.0,0.0,0.0,0.0,0.0,0.0,0.0,0.0,0.0,0.0,0.0,0.0,0.0,0.0,0.0,0.0,0.0,0.0,0.0,0.0,0.0,0.0,0.0,0.0,0.0,0.0,0.0,0.0,0.0,0.0,0.0,0.0,0.0,0.0,0.0,0.0,0.0,0.0,0.0,0.0,0.0,0.0,0.0,0.0,0.0,0.0,0.0,0.0,0.0,0.0,0.0,0.0,0.0,0.0,0.0,0.0,0.0,0.0,0.0,0.0,0.0,0.0,0.0,0.0,0.0,0.0,0.0,0.0,0.0,0.0,0.0,0.0,0.0,0.0,0.0,0.0,0.0,0.0,0.0,0.0,0.0,0.0,0.0,0.0,0.0,0.0,0.0,0.0,0.0,-4.4187,-4.9805,-5.1867,-5.3316,-5.3888,-4.9748,-4.5403,0.0,0.0,0.0,0.0,0.0,0.0,0.0,0.0,0.0,0.0,0.0,0.0,0.0,0.0,0.0,0.0,0.0,0.0,0.0,0.0,0.0,0.0,0.0,0.0,0.0,0.0,0.0,0.0,0.0,0.0,0.0,0.0,0.0,0.0,0.0,0.0,0.0,0.0,0.0,0.0,0.0,0.0,0.0,0.0,0.0,0.0,0.0,0.0,0.0,0.0,0.0,0.0,0.0,0.0,0.0,0.0,0.0,0.0,0.0,0.0,0.0,0.0,0.0,0.0,0.0,0.0,0.0,0.0,0.0,0.0,0.0,0.0,0.0,0.0,0.0,0.0,0.0,0.0,0.0,0.0,0.0,0.0,0.0,0.0,0.0,0.0,0.0,0.0,0.0,0.0,0.0,0.0,0.0,0.0,0.0,0.0,0.0,0.0,0.0,0.0,0.0,0.0,0.0,0.0,0.0,0.0,0.0,0.0,-4.6079,-5.1159,-5.3252,-5.4329,-5.4512,-5.0808,-4.6789,0.0,0.0,0.0,0.0,0.0,0.0,0.0,0.0,0.0,0.0,0.0,0.0,0.0,0.0,0.0,0.0,0.0,0.0,0.0,0.0,0.0,0.0,0.0,0.0,0.0,0.0,0.0,0.0,0.0,0.0,0.0,0.0,0.0,0.0,0.0,0.0,0.0,0.0,0.0,0.0,0.0,0.0,0.0,0.0,0.0,0.0,0.0,0.0,-4.1107,0.0,0.0,0.0,0.0,0.0,0.0,0.0,0.0,0.0,0.0,0.0,0.0,0.0,0.0,0.0,0.0,0.0,0.0,0.0,0.0,0.0,0.0,0.0,0.0,0.0,0.0,0.0,0.0,0.0,0.0,0.0,0.0,0.0,0.0,0.0,0.0,0.0,0.0,0.0,0.0,0.0,0.0,0.0,0.0,0.0,0.0,0.0,0.0,0.0,0.0,0.0,0.0,0.0,0.0,0.0,0.0,0.0,0.0,0.0,-4.7813,-5.2513,-5.4299,-5.5345,-5.5592,-5.3837,-4.9961,0.0,0.0,0.0,0.0,0.0,0.0,0.0,0.0,0.0,0.0,0.0,0.0,0.0,0.0,0.0,0.0,0.0,0.0,0.0,0.0,0.0,0.0,0.0,0.0,0.0,0.0,0.0,0.0,0.0,0.0,0.0,0.0,0.0,0.0,0.0,0.0,0.0,0.0,0.0,0.0,0.0,0.0,0.0,0.0,0.0,0.0,0.0,0.0,0.0,0.0,0.0,0.0,0.0,0.0,0.0,0.0,0.0,0.0,0.0,0.0,0.0,0.0,0.0,0.0,0.0,0.0,0.0,0.0,0.0,0.0,0.0,0.0,0.0,0.0,0.0,0.0,0.0,0.0,0.0,0.0,0.0,0.0,0.0,0.0,0.0,0.0,0.0,0.0,0.0,0.0,0.0,0.0,0.0,0.0,0.0,0.0,0.0,0.0,0.0,0.0,0.0,0.0,0.0,0.0,0.0,0.0,0.0,-4.4588,-4.9139,-5.3868,-5.5222,-5.6146,-5.673,-5.6761,-5.3071,-4.5303,0.0,0.0,0.0,0.0,0.0,0.0,0.0,0.0,0.0,0.0,0.0,0.0,0.0,0.0,0.0,0.0,0.0,0.0,0.0,0.0,0.0,0.0,0.0,0.0,0.0,0.0,0.0,0.0,0.0,0.0,0.0,0.0,0.0,0.0,0.0,0.0,0.0,0.0,-3.9346,-4.2535,0.0,0.0,0.0,0.0,0.0,0.0,0.0,0.0,-4.3739,0.0,0.0,0.0,0.0,0.0,0.0,0.0,0.0,0.0,0.0,0.0,0.0,0.0,0.0,0.0,0.0,0.0,0.0,0.0,0.0,0.0,0.0,0.0,0.0,0.0,0.0,0.0,0.0,0.0,0.0,0.0,0.0,0.0,0.0,0.0,0.0,0.0,0.0,0.0,0.0,0.0,0.0,0.0,0.0,0.0,0.0,0.0,0.0,0.0,0.0,0.0,0.0,0.0,0.0,0.0,0.0,-4.3275,-4.5444,-4.9422,-5.5222,-5.6146,-5.6638,-5.6761,-5.6761,-5.3499,-4.6857,0.0,0.0,0.0,0.0,0.0,0.0,0.0,0.0,0.0,0.0,0.0,0.0,0.0,0.0,0.0,0.0,0.0,0.0,0.0,0.0,0.0,0.0,0.0,0.0,0.0,0.0,0.0,0.0,0.0,0.0,0.0,0.0,0.0,0.0,0.0,0.0,0.0,0.0,0.0,-4.8576,-5.0118,0.0,0.0,0.0,0.0,0.0,0.0,0.0,0.0,-4.5723,0.0,0.0,0.0,0.0,0.0,0.0,0.0,0.0,0.0,0.0,0.0,0.0,0.0,0.0,0.0,0.0,0.0,0.0,0.0,0.0,0.0,0.0,0.0,0.0,0.0,0.0,0.0,0.0,0.0,0.0,0.0,0.0,0.0,0.0,0.0,0.0,0.0,0.0,0.0,0.0,0.0,0.0,0.0,0.0,0.0,0.0,0.0,0.0,0.0,0.0,0.0,0.0,0.0,0.0,0.0,-4.335,-4.7981,-5.2001,-5.5561,-5.6392,-5.6761,-5.6761,-5.6342,-5.3553,0.0,0.0,0.0,0.0,0.0,0.0,0.0,0.0,0.0,0.0,0.0,0.0,0.0,0.0,0.0,0.0,0.0,0.0,0.0,0.0,0.0,0.0,0.0,0.0,0.0,0.0,0.0,0.0,0.0,0.0,0.0,0.0,0.0,0.0,0.0,0.0,0.0,0.0,0.0,0.0,-5.027,-5.1828,-5.372,0.0,0.0,0.0,0.0,0.0,0.0,-4.7713,-4.7402,0.0,0.0,0.0,0.0,0.0,0.0,0.0,0.0,0.0,0.0,0.0,0.0,0.0,0.0,0.0,0.0,0.0,0.0,0.0,0.0,0.0,0.0,0.0,0.0,0.0,0.0,0.0,0.0,0.0,0.0,0.0,0.0,0.0,0.0,0.0,0.0,0.0,0.0,0.0,0.0,0.0,0.0,0.0,0.0,0.0,0.0,0.0,0.0,0.0,0.0,0.0,0.0,0.0,0.0,0.0,-4.3441,-4.9733,-5.3929,-5.5838,-5.6607,-5.6977,-5.6977,-5.6359,-5.3693,0.0,0.0,0.0,0.0,0.0,0.0,0.0,0.0,0.0,0.0,0.0,0.0,0.0,0.0,0.0,0.0,0.0,0.0,0.0,0.0,0.0,0.0,0.0,0.0,0.0,0.0,0.0,0.0,0.0,0.0,0.0,0.0,0.0,0.0,0.0,0.0,0.0,0.0,0.0,0.0,0.0,-5.3311,-5.5383,-5.3617,0.0,0.0,0.0,0.0,-4.967,-5.0604,0.0,0.0,0.0,0.0,0.0,0.0,0.0,0.0,0.0,0.0,0.0,0.0,0.0,0.0,0.0,0.0,0.0,0.0,0.0,0.0,0.0,0.0,0.0,0.0,0.0,0.0,0.0,0.0,0.0,0.0,0.0,0.0,0.0,0.0,0.0,0.0,0.0,0.0,0.0,0.0,0.0,0.0,0.0,0.0,0.0,0.0,0.0,0.0,0.0,0.0,0.0,0.0,0.0,0.0,0.0,0.0,-4.4673,-4.8645,-5.2581,-5.6453,-5.7315,-5.7654,-5.7654,-5.7556,-5.4847,0.0,0.0,0.0,0.0,0.0,0.0,0.0,0.0,0.0,0.0,0.0,0.0,0.0,0.0,0.0,0.0,0.0,0.0,0.0,0.0,0.0,0.0,0.0,0.0,0.0,0.0,0.0,0.0,0.0,0.0,0.0,0.0,0.0,0.0,0.0,0.0,0.0,0.0,0.0,0.0,0.0,-5.6201,-5.4734,-5.4534,-5.4262,0.0,0.0,-5.4771,-5.6532,-5.7732,0.0,0.0,0.0,0.0,0.0,0.0,0.0,0.0,0.0,0.0,0.0,0.0,0.0,0.0,0.0,0.0,0.0,0.0,0.0,0.0,0.0,0.0,0.0,0.0,0.0,0.0,0.0,0.0,0.0,0.0,0.0,0.0,0.0,0.0,0.0,0.0,0.0,0.0,0.0,0.0,0.0,0.0,0.0,0.0,0.0,0.0,0.0,0.0,0.0,0.0,0.0,0.0,0.0,0.0,0.0,-4.0359,-4.4569,-4.9922,-5.4114,-5.6669,-5.7438,-5.7962,-5.8331,-5.7901,-5.5074,0.0,0.0,0.0,0.0,0.0,0.0,0.0,0.0,0.0,0.0,0.0,0.0,0.0,0.0,0.0,0.0,0.0,0.0,0.0,0.0,0.0,0.0,0.0,0.0,0.0,0.0,0.0,0.0,0.0,0.0,0.0,0.0,0.0,0.0,0.0,0.0,0.0,0.0,0.0,0.0,0.0,0.0,-5.8729,-5.8183,0.0,0.0,0.0,-5.7771,-5.8103,0.0,0.0,0.0,0.0,0.0,0.0,0.0,0.0,0.0,0.0,0.0,0.0,0.0,0.0,0.0,0.0,0.0,0.0,0.0,0.0,0.0,0.0,0.0,0.0,0.0,0.0,0.0,0.0,0.0,0.0,0.0,0.0,0.0,0.0,0.0,0.0,0.0,0.0,0.0,0.0,0.0,0.0,0.0,0.0,0.0,0.0,0.0,0.0,0.0,0.0,0.0,0.0,0.0,0.0,0.0,0.0,0.0,-4.4691,-5.1533,-5.5717,-5.6977,-5.7839,-5.8516,-5.9008,-5.8471,0.0,0.0,0.0,0.0,0.0,0.0,0.0,0.0,0.0,0.0,0.0,0.0,0.0,0.0,0.0,0.0,0.0,0.0,0.0,0.0,0.0,0.0,0.0,0.0,0.0,0.0,0.0,-2.9638,0.0,0.0,0.0,0.0,0.0,0.0,0.0,0.0,0.0,0.0,0.0,0.0,0.0,0.0,-5.7535,-6.1597,-6.128,-6.1268,0.0,0.0,-6.1131,-6.091,-6.2781,-6.2965,0.0,0.0,0.0,0.0,0.0,0.0,0.0,0.0,0.0,0.0,0.0,0.0,0.0,0.0,0.0,0.0,0.0,0.0,0.0,0.0,0.0,0.0,0.0,0.0,0.0,0.0,0.0,0.0,0.0,0.0,0.0,0.0,0.0,0.0,0.0,0.0,0.0,0.0,0.0,0.0,0.0,0.0,0.0,0.0,0.0,0.0,0.0,0.0,0.0,0.0,0.0,0.0,0.0,0.0,-4.286,-4.6092,-5.2781,-5.6776,-5.7685,-5.8978,-5.9686,-5.9716,-5.9716,-5.6899,0.0,0.0,0.0,0.0,0.0,0.0,0.0,0.0,0.0,0.0,0.0,0.0,0.0,0.0,0.0,0.0,0.0,0.0,0.0,0.0,0.0,0.0,0.0,0.0,0.0,0.0,0.0,0.0,0.0,0.0,0.0,0.0,0.0,0.0,0.0,0.0,0.0,0.0,0.0,0.0,0.0,-5.6679,-6.0662,-6.2312,-6.4126,0.0,-6.6039,-6.5877,-6.7625,-6.8979,-6.8118,-6.3013,0.0,0.0,0.0,0.0,0.0,0.0,0.0,0.0,0.0,0.0,0.0,0.0,0.0,0.0,0.0,0.0,0.0,0.0,0.0,0.0,0.0,0.0,0.0,0.0,0.0,0.0,0.0,0.0,0.0,0.0,0.0,0.0,0.0,0.0,0.0,0.0,0.0,0.0,0.0,0.0,0.0,0.0,0.0,0.0,0.0,0.0,0.0,0.0,0.0,0.0,0.0,0.0,0.0,-4.3016,-4.6153,-5.2606,-5.6553,-5.7746,-5.9501,-6.0609,-6.104,-6.144,-5.9297,0.0,0.0,0.0,0.0,0.0,0.0,0.0,0.0,0.0,0.0,0.0,0.0,0.0,0.0,0.0,0.0,0.0,0.0,0.0,0.0,0.0,0.0,0.0,0.0,0.0,0.0,0.0,0.0,-3.8922,-3.9952,-3.9242,0.0,0.0,0.0,0.0,0.0,0.0,0.0,0.0,0.0,0.0,-6.0561,-6.3009,-6.5007,0.0,0.0,-6.8166,-6.8189,-6.9165,-6.9151,-6.8211,-6.5867,-6.4064,0.0,0.0,0.0,0.0,0.0,0.0,0.0,0.0,0.0,0.0,0.0,0.0,0.0,0.0,0.0,0.0,0.0,0.0,0.0,0.0,0.0,0.0,0.0,0.0,0.0,0.0,0.0,0.0,0.0,0.0,0.0,0.0,0.0,0.0,0.0,0.0,0.0,0.0,0.0,0.0,0.0,0.0,0.0,0.0,0.0,0.0,0.0,0.0,0.0,0.0,0.0,0.0,-4.3698,-4.6346,-5.3129,-5.717,-5.8362,-6.0147,-6.1409,-6.2086,-6.2579,-6.0862,0.0,0.0,0.0,0.0,0.0,0.0,0.0,0.0,0.0,0.0,0.0,0.0,0.0,0.0,0.0,0.0,0.0,0.0,0.0,0.0,0.0,0.0,0.0,0.0,0.0,0.0,0.0,0.0,-4.1235,-4.1808,-4.0832,0.0,0.0,0.0,0.0,0.0,0.0,0.0,0.0,0.0,0.0,-6.36,-6.5773,-6.7635,-6.9118,-7.0153,-6.9911,-6.9796,-7.0187,-6.9852,-6.9141,-6.8164,0.0,0.0,0.0,0.0,0.0,0.0,0.0,0.0,0.0,0.0,0.0,0.0,0.0,0.0,0.0,0.0,0.0,0.0,0.0,0.0,0.0,0.0,0.0,0.0,0.0,0.0,0.0,-2.1316,0.0,0.0,-2.0168,0.0,0.0,0.0,0.0,0.0,0.0,0.0,0.0,0.0,0.0,0.0,0.0,0.0,0.0,0.0,0.0,0.0,0.0,0.0,0.0,0.0,0.0,-4.5135,-4.7189,-5.4544,-5.8856,-5.9716,-6.1071,-6.2117,-6.2764,-6.2825,-6.1322,-5.8156,0.0,0.0,0.0,0.0,0.0,0.0,0.0,0.0,0.0,0.0,0.0,0.0,0.0,0.0,0.0,0.0,0.0,0.0,0.0,0.0,0.0,0.0,0.0,0.0,0.0,0.0,-3.6423,-3.8756,-4.0747,0.0,0.0,0.0,0.0,0.0,0.0,0.0,0.0,0.0,-5.8116,-6.1634,-6.4945,-6.8601,-6.9842,-7.0877,-7.2326,-7.136,-7.067,-7.1429,-7.205,-7.1843,0.0,0.0,0.0,0.0,0.0,0.0,0.0,0.0,0.0,0.0,0.0,0.0,0.0,0.0,0.0,0.0,0.0,0.0,0.0,0.0,0.0,0.0,0.0,0.0,0.0,0.0,0.0,-2.598,-2.519,0.0,0.0,0.0,0.0,0.0,0.0,0.0,0.0,0.0,0.0,0.0,-4.3251,-4.4684,0.0,0.0,0.0,0.0,0.0,0.0,0.0,0.0,0.0,0.0,0.0,0.0,-4.5464,-4.859,-5.4791,-5.8838,-6.0424,-6.1779,-6.2794,-6.3472,-6.3964,-6.2488,-5.8918,0.0,0.0,0.0,0.0,0.0,0.0,0.0,0.0,0.0,0.0,0.0,0.0,0.0,0.0,0.0,0.0,0.0,0.0,0.0,0.0,0.0,0.0,0.0,0.0,0.0,-4.0336,0.0,0.0,0.0,0.0,0.0,0.0,0.0,0.0,0.0,0.0,-5.275,-5.729,-6.0875,-6.4358,-6.7221,-6.9049,-7.0774,-7.2084,0.0,0.0,0.0,0.0,0.0,0.0,0.0,0.0,0.0,0.0,0.0,0.0,0.0,0.0,-6.8646,-6.1422,-5.9358,-5.8881,-5.9552,0.0,0.0,0.0,0.0,0.0,0.0,0.0,0.0,0.0,0.0,0.0,0.0,0.0,0.0,-3.1335,-3.0865,-2.9811,0.0,0.0,0.0,0.0,0.0,0.0,0.0,0.0,-4.2613,-4.5815,-4.8698,-4.999,-4.9819,-4.8279,-4.7523,-4.4966,0.0,0.0,0.0,0.0,0.0,0.0,0.0,0.0,-4.6905,-5.0323,-5.5592,-5.9302,-6.1101,-6.2456,-6.3595,-6.4518,-6.5226,-6.4224,-6.1233,-5.9073,-5.6556,0.0,0.0,0.0,0.0,0.0,0.0,0.0,0.0,0.0,0.0,0.0,0.0,0.0,0.0,0.0,0.0,0.0,0.0,0.0,0.0,0.0,0.0,0.0,-4.3436,0.0,0.0,0.0,0.0,0.0,0.0,0.0,0.0,0.0,-5.2647,-5.729,-6.1703,-6.4496,-6.7635,-6.9773,-7.0015,0.0,0.0,0.0,0.0,0.0,0.0,0.0,-7.3172,-7.4302,-7.3637,-7.2962,-7.3219,-7.4336,-7.5123,-7.4682,0.0,0.0,-6.8493,-6.6453,-6.6189,-6.7007,-6.8027,-6.9081,-6.9854,-7.1781,-7.33,0.0,0.0,0.0,0.0,-3.3878,0.0,0.0,0.0,-3.8007,-3.8074,0.0,-3.5489,0.0,0.0,0.0,0.0,-3.1874,-3.6335,0.0,0.0,-5.09,-5.3702,-5.4946,-5.5465,-5.5527,-5.5008,-5.4121,-5.2838,-5.0862,-4.5204,0.0,0.0,0.0,0.0,0.0,0.0,-4.9572,-5.2579,-5.7146,-6.0284,-6.1779,-6.3133,-6.4457,-6.578,-6.6457,-6.618,-6.4857,-6.2089,-5.9961,-5.8491,-5.2093,0.0,0.0,0.0,0.0,0.0,0.0,0.0,0.0,0.0,0.0,0.0,0.0,0.0,0.0,0.0,0.0,0.0,0.0,0.0,0.0,-4.5107,0.0,0.0,0.0,0.0,0.0,0.0,0.0,0.0,0.0,-6.0496,-5.853,-6.1496,-6.5117,-6.8808,0.0,0.0,0.0,0.0,-7.4154,-7.4878,-7.443,-7.4568,-7.6016,-7.674,-7.7154,-7.7292,0.0,0.0,-7.7215,-7.8345,-7.8917,-7.6912,-7.8574,-7.9571,-7.8084,-7.6016,-7.4973,-7.5442,-7.6122,-7.716,-7.8098,-7.9834,-8.2147,-4.4922,0.0,0.0,0.0,0.0,-3.9337,-4.0649,-4.3091,-4.2602,-4.2145,-4.1656,-4.0861,0.0,0.0,0.0,0.0,0.0,0.0,-4.3762,-4.8944,-5.0692,-5.3237,-5.637,-5.6401,-5.6306,-5.6115,-5.6588,-5.6653,-5.6338,-5.5422,-5.0266,-4.1334,0.0,0.0,0.0,0.0,-5.3097,-5.5501,-5.9149,-6.1463,-6.2517,-6.3379,-6.4241,-6.5165,-6.538,-6.5288,-6.4888,-6.4039,-6.2534,-5.9992,-5.7242,0.0,0.0,0.0,0.0,0.0,0.0,0.0,0.0,0.0,0.0,0.0,0.0,0.0,0.0,0.0,0.0,0.0,0.0,0.0,-4.4202,-4.8035,-4.9955,0.0,0.0,0.0,0.0,0.0,0.0,0.0,0.0,0.0,-6.4979,-6.66,-6.8428,0.0,0.0,-7.2774,-7.3084,-7.4912,-7.6326,-7.6533,-7.7292,0.0,-7.8465,-7.781,-7.7775,-7.9396,-8.05,-8.1101,-8.0866,-8.1778,-8.2412,-8.2068,-8.3068,-8.37,-8.3191,-8.0329,-7.8335,-7.8543,-7.953,-8.0404,-8.0911,-8.2463,-8.3943,-5.1956,-4.7465,-4.4993,-4.4118,-4.4555,-4.4335,-4.5804,-4.8314,-4.8239,-4.8084,-4.7818,-4.7053,-4.5663,-4.3685,-4.2423,0.0,0.0,0.0,-4.8163,-5.3215,-5.3508,-5.5255,-5.7973,-5.7525,-5.7358,-5.7403,-5.7626,-5.8139,-5.8944,-5.9991,-5.6248,-4.832,0.0,-5.0235,-4.9403,-5.3044,-5.6056,-5.8239,-6.0702,-6.2395,-6.3195,-6.4149,-6.498,-6.5657,-6.5965,-6.5965,-6.5719,-6.5688,-6.4715,-6.2672,-6.0628,-5.8016,0.0,0.0,0.0,0.0,0.0,0.0,0.0,0.0,0.0,0.0,0.0,-3.9161,-3.5479,0.0,0.0,0.0,-4.5163,-4.7488,-5.0493,-5.3569,0.0,0.0,0.0,0.0,0.0,0.0,0.0,-6.1251,-6.4881,-6.798,-7.0084,-7.105,-7.1739,-7.2326,-7.336,-7.4188,-7.4636,0.0,-7.7775,-7.8085,-7.9155,-8.0051,-8.0362,-7.9638,-7.9534,-8.0845,-8.1741,-8.2414,-8.2882,-8.3601,-8.4275,-8.4712,-8.521,-8.5491,-8.5491,-8.3314,-8.1825,-8.2241,-8.2923,-8.353,-8.4155,-8.4856,-8.5662,-5.7927,-5.6699,-5.0755,-4.8607,-4.8983,-4.9014,-5.0699,-5.3376,-5.3976,-5.464,-5.509,-5.3396,-5.1802,-5.0328,-4.717,0.0,-5.0767,-5.1336,-5.4022,-5.8338,-5.8153,-5.8647,-5.9747,-5.8848,-5.8498,-5.8716,-5.7933,-5.8382,-5.9983,-6.0524,-5.988,-5.8024,-5.6995,-5.6213,-5.578,-5.6806,-5.8652,-6.099,-6.2208,-6.3233,-6.4057,-6.5319,-6.6304,-6.6888,-6.7535,-6.7535,-6.695,-6.695,-6.6704,-6.5934,-6.2795,-6.0248,-5.8454,0.0,0.0,0.0,0.0,0.0,0.0,0.0,0.0,0.0,0.0,0.0,0.0,0.0,0.0,-4.8299,-5.4828,0.0,-5.9852,-6.0173,0.0,0.0,0.0,-5.7909,-5.8174,-6.2238,-6.5283,-6.597,0.0,0.0,-7.3809,-7.4568,-7.4878,-7.4154,-7.5292,-7.6223,-7.6292,-7.7603,-7.8844,-7.9465,-8.0224,-8.0948,-8.1535,-8.1672,-8.1776,-8.2017,-8.25,-8.3037,-8.3543,-8.4123,-8.4798,-8.5364,-8.5526,-8.5666,-8.5666,-8.5666,-8.5862,-8.617,-8.617,-8.6324,-8.6906,-8.7151,-8.7465,-5.8342,-5.7246,-5.6248,-5.5332,-5.4364,-5.4364,-5.4743,-5.543,-5.562,-5.6094,-5.6694,-5.6199,-5.6136,-5.6203,-5.5453,-5.5516,-5.6356,-5.6514,-5.7488,-5.9033,-5.9094,-5.957,-6.0486,-5.991,-5.9885,-6.0406,-6.0544,-6.1147,-6.2099,-6.2848,-6.2931,-6.26,-6.2124,-6.0695,-5.8436,-6.0706,-6.2305,-6.3214,-6.439,-6.5344,-6.6119,-6.6488,-6.6765,-6.6919,-6.7073,-6.7073,-6.6919,-6.7412,-6.7381,-6.6704,-6.5765,-6.4941,-6.3995,-5.7717,0.0,0.0,0.0,0.0,0.0,0.0,0.0,0.0,0.0,-4.5953,-4.1033,0.0,-4.906,0.0,-5.8707,-6.1285,-5.9339,-6.0717,0.0,0.0,-6.1917,-6.2404,-6.7467,-6.7625,-6.8463,-7.1484,-7.2843,-7.3809,-7.4568,-7.5844,-7.6637,-7.643,-7.6706,-7.7189,-7.781,-7.9155,-8.0155,-8.0362,-8.0983,-8.1569,-8.1776,-8.2293,-8.2811,-8.3397,-8.3156,-8.3071,-8.3543,-8.3775,-8.431,-8.5329,-8.6017,-8.6579,-8.7176,-8.7738,-8.8124,-8.8205,-8.7211,-8.6293,-8.6466,-8.6845,-8.7622,-6.0105,-5.9188,-5.9596,-5.8656,-5.6741,-5.6465,-5.6557,-5.6741,-5.7055,-5.7617,-5.818,-5.8464,-5.8812,-5.9191,-5.9159,-5.9191,-5.9159,-5.9159,-5.9728,-6.0708,-6.0501,-6.1161,-6.2434,-6.143,-6.1057,-6.1463,-6.1367,-6.1809,-6.2625,-6.3454,-6.4297,-6.4973,-6.5306,-6.4491,-6.2768,-6.3756,-6.4121,-6.3898,-6.5468,-6.6486,-6.6888,-6.6919,-6.6642,-6.6057,-6.7085,-6.7147,-6.6057,-6.7456,-6.7394,-6.5657,-6.5277,-6.5002,-6.4518,-6.0053,-5.7365,0.0,0.0,0.0,0.0,0.0,0.0,0.0,0.0,0.0,0.0,0.0,-5.4123,-5.6738,-6.2416,-6.4893,-6.2299,-6.4586,-6.6872,-6.8504,-6.7319,-6.8213,-7.2552,-7.1912,-7.2084,-7.4533,-7.4809,-7.5223,-7.6326,-7.7189,-7.7879,-7.8189,-7.8534,-7.8879,-7.9327,-8.0155,-8.0741,-8.1086,-8.1535,-8.1776,-8.1776,-8.2431,-8.3052,-8.3431,-8.3742,-8.4108,-8.4551,-8.4959,-8.553,-8.6381,-8.693,-8.7457,-8.8229,-8.8685,-8.9072,-8.9282,-8.8697,-8.8129,-8.8294,-8.865,-8.9407,-6.1873,-6.1432,-6.1526,-6.0258,-5.8179,-5.7629,-5.7294,-5.7057,-5.7774,-5.856,-5.9444,-6.036,-6.0739,-6.0834,-6.0643,-6.0611,-6.0611,-6.0515,-6.1176,-6.2242,-6.1933,-6.2685,-6.4426,-6.2993,-6.2314,-6.2385,-6.1786,-6.1762,-6.247,-6.3387,-6.4543,-6.5905,-6.6629,-6.691,-6.6611,-6.5942,-6.517,-6.4395,-6.5965,-6.6827,-6.6919,-6.6919,-6.6365,-6.5288,-6.7579,-6.7734,-6.5646,-6.7753,-6.7536,-6.4628,-6.4064,-6.3789,-6.358,-6.21,-6.0577,0.0,-5.7765,0.0,0.0,0.0,0.0,0.0,0.0,0.0,0.0,-5.8535,-6.0122,-6.0345,-6.5922,-6.8794,-6.6901,-6.9491,-7.1637,-7.2428,-7.2926,-7.3714,-7.4894,-7.5154,-7.5464,-7.6189,-7.6361,-7.6947,-7.812,-7.8534,-7.8948,-7.9534,-8.0224,-8.0707,-8.0879,-8.0879,-8.1052,-8.1741,-8.1879,-8.2121,-8.2431,-8.288,-8.3328,-8.35,-8.4328,-8.5353,-8.5637,-8.6246,-8.6926,-8.741,-8.7562,-8.7913,-8.8721,-8.8991,-8.9307,-8.9904,-9.0175,-9.0435,-9.0609,-9.087,-9.1729,-6.1519,-6.1659,-6.2089,-6.2228,-6.1896,-6.1791,-5.9263,-5.5255,-5.5379,-5.696,-5.9679,-6.1932,-6.3204,-6.3647,-6.2606,-6.2121,-6.2121,-6.1743,-6.1556,-6.1594,-6.2285,-6.2918,-6.3561,-6.3579,-6.3789,-6.4371,-6.3832,-6.3891,-6.4368,-6.3675,-6.4156,-6.5905,-6.5555,-6.5389,-6.5411,0.0,0.0,0.0,-6.6457,-6.6365,-6.6888,-6.6919,-6.6796,-6.6581,-6.8051,0.0,-6.8842,-6.9412,-6.9101,-6.799,-6.8251,0.0,0.0,0.0,0.0,0.0,0.0,0.0,0.0,0.0,0.0,0.0,-6.2013,-6.0986,-5.9463,-6.3338,-6.5724,-6.5315,-6.8467,-7.0656,-7.0855,-7.1416,-7.22,-7.3181,-7.3874,-7.4684,-7.5701,-7.6395,-7.6878,-7.6982,-7.7568,-7.8085,-7.843,-7.9431,-8.0224,-8.0362,-8.1086,-8.1776,-8.2328,-8.1879,-8.1638,-8.1845,-8.2328,-8.3156,-8.4363,-8.457,-8.4811,-8.5501,-8.5294,-8.5324,-8.5582,-8.5455,-8.5645,-8.6417,-8.6837,-8.7246,-8.7983,-8.8826,-8.9703,-8.9774,-9.1133,-9.1956,-9.1112,-9.0971,-9.1513,-6.294,-6.3084,-6.3398,-6.3058,0.0,-6.2333,-6.0175,-5.6889,-5.8479,-6.0241,-6.2079,-6.3419,-6.4184,-6.4366,-6.2652,-6.1877,-6.1845,-6.0578,-6.0617,-6.1779,-6.2349,-6.3394,-6.5016,-6.5279,-6.546,-6.548,-6.5199,-6.5054,-6.4961,-6.4991,-6.5532,-6.6462,-6.6789,-6.6925,-6.6919,-6.7873,-6.8397,-6.8397,-6.772,-6.7535,-6.7873,-6.7873,-6.7412,-6.6519,-6.8374,0.0,0.0,0.0,0.0,0.0,0.0,0.0,0.0,0.0,0.0,-6.6918,-6.534,-6.432,-6.4393,-6.4512,-6.5607,-6.7976,-6.8142,-6.738,-6.5492,-6.8109,-6.9633,-6.9301,-7.0924,-7.215,-7.2515,-7.2879,-7.3342,-7.4119,-7.4517,-7.5134,-7.6131,-7.6622,-7.709,-7.7685,-7.8154,-7.8637,-7.9396,-8.0086,-8.0603,-8.0707,-8.1638,-8.2362,-8.2328,-8.2052,-8.1914,-8.2293,-8.2983,-8.3707,-8.4466,-8.5018,-8.5294,-8.5639,-8.5742,-8.5842,-8.6004,-8.5984,-8.6168,-8.6836,-8.7375,-8.8077,-8.8742,-8.988,-9.0935,-9.1225,-9.2316,-9.3174,-9.2817,-9.2746,-9.3176,-6.4595,-6.469,-6.4721,-6.3885,-6.2535,-6.2535,-6.1707,-6.0439,-6.2487,0.0,0.0,-6.4563,-6.4784,-6.4682,-6.2777,-6.1836,-6.1867,-6.0095,-6.0555,-6.2836,-6.3087,-6.4395,-6.6554,-6.6992,-6.6844,-6.6381,-6.6387,-6.61,-6.5522,-6.6403,-6.6853,-6.7095,-6.7874,-6.8403,-6.852,-6.8551,-6.8551,-6.852,-6.8427,-6.8304,-6.8181,-6.8304,-6.7566,-6.5934,-6.8303,-6.8893,-6.7495,-6.9364,-6.9825,-6.8261,-6.7319,-6.7288,-6.8286,-6.7134,-6.7726,-7.0352,-7.0946,-7.1141,-7.1345,-7.1884,-7.2283,-7.2382,-7.2382,-7.2084,-7.1355,-7.1852,-7.225,-7.2382,-7.2945,-7.3276,-7.331,-7.3807,-7.4339,-7.4803,-7.5035,-7.5493,-7.6514,-7.6837,-7.7398,-7.8408,-7.8775,-7.9224,-8.0396,-8.0879,-8.1017,-8.1224,-8.2293,-8.2914,-8.2362,-8.2328,-8.2535,-8.3052,-8.3742,-8.4294,-8.4501,-8.4984,-8.5363,-8.5634,-8.6049,-8.6459,-8.6691,-8.7089,-8.7387,-8.7675,-8.8591,-8.9389,-8.9902,-9.0991,-9.2098,-9.2622,-9.3462,-9.4249,-9.4531,-9.4799,-9.5246,-6.4879,-6.5448,-6.5416,-6.5638,-6.5912,-6.5912,-6.5786,-6.5334,-6.2973,-6.2456,-6.3183,-6.4758,-6.5764,-6.627,-6.482,-6.4546,-6.5107,-6.4274,-6.4316,-6.5034,-6.5852,-6.6313,-6.6506,-6.7327,-6.7665,-6.758,-6.763,-6.7546,-6.7457,-6.6583,-6.6372,-6.6761,-6.6482,-6.6589,-6.7196,-6.7196,-6.7196,-6.7196,-6.6642,-6.6057,-6.5472,-6.6027,-6.6211,-6.6027,-6.7958,-6.9116,-6.9381,-6.9745,-7.0004,-7.0283,-7.0599,-7.0927,-7.1023,-7.1231,-7.1819,-7.2388,-7.2355,-7.2607,-7.3262,-7.3229,-7.3332,-7.3873,-7.3873,-7.3575,-7.2879,-7.2912,-7.321,-7.3773,-7.3906,-7.4038,-7.4038,-7.4105,-7.4372,-7.4903,-7.5504,-7.6267,-7.7263,-7.7869,-7.8469,-7.9235,-7.9913,-8.0293,-8.0776,-8.1741,-8.2466,-8.2673,-8.3293,-8.3811,-8.3673,-8.3707,-8.3742,-8.3914,-8.4535,-8.5225,-8.5673,-8.6018,-8.6187,-8.6454,-8.6587,-8.6691,-8.6985,-8.7631,-8.8173,-8.841,-8.9577,-9.0503,-9.0758,-9.1533,-9.233,-9.2647,-9.3913,-9.4963,-9.4615,-9.5423,-9.6412,-6.5859,-6.6112,-6.6143,-6.6523,-6.7186,-6.7565,-6.7755,-6.7629,-6.6185,-6.547,-6.5509,-6.6721,-6.7439,-6.7629,-6.5915,-6.528,-6.553,-6.4026,-6.4132,-6.5368,-6.5965,-6.6704,-6.7672,-6.8236,-6.8458,-6.8458,-6.8015,-6.7749,-6.7332,-6.7089,-6.6755,-6.6391,-6.6436,-6.6729,-6.7412,-6.7104,-6.6919,-6.6919,-6.6611,-6.6488,-6.655,-6.6858,-6.7165,-6.7535,-6.8427,-6.924,-6.9787,-7.0161,-7.0582,-7.114,-7.1336,-7.1628,-7.2014,-7.2013,-7.2087,-7.2688,-7.2721,-7.29,-7.3454,-7.3731,-7.3935,-7.4171,-7.4171,-7.4038,-7.374,-7.3674,-7.384,-7.4138,-7.4171,-7.4337,-7.4701,-7.4403,-7.457,-7.5537,-7.5705,-7.6107,-7.7171,-7.7866,-7.8661,-7.9548,-8.0209,-8.0948,-8.1776,-8.2466,-8.3087,-8.3466,-8.4156,-8.4639,-8.4673,-8.4984,-8.5087,-8.4811,-8.5294,-8.5945,-8.6424,-8.6494,-8.6593,-8.6887,-8.6887,-8.6985,-8.7117,-8.7658,-8.8165,-8.8584,-8.9918,-9.09,-9.128,-9.2621,-9.3309,-9.347,-9.4723,-9.5543,-9.529,-9.6375,-9.7852,-6.6586,-6.6617,-6.6775,-6.7218,-6.7881,-6.845,-6.8703,-6.8703,-6.8829,-6.864,-6.8152,-6.8577,-6.8703,-6.8577,-6.6854,-6.6199,-6.609,-6.4583,-6.4878,-6.6464,-6.6467,-6.7415,-6.8893,-6.9023,-6.8889,-6.8828,-6.8243,-6.7733,-6.7474,-6.7611,-6.7181,-6.6199,-6.6506,-6.7012,-6.7658,-6.7012,-6.6765,-6.6919,-6.6919,-6.7165,-6.7689,-6.7843,-6.815,-6.8643,-6.8797,-6.9123,-6.9588,-7.0047,-7.0582,-7.1328,-7.1284,-7.1574,-7.2411,-7.199,-7.1925,-7.2443,-7.2721,-7.3005,-7.3422,-7.4163,-7.4568,-7.4436,-7.4568,-7.4668,-7.4635,-7.4668,-7.4568,-7.4436,-7.4436,-7.4734,-7.5297,-7.5032,-7.5098,-7.6159,-7.5993,-7.6335,-7.7177,-7.7917,-7.8718,-7.9883,-8.0638,-8.1448,-8.2604,-8.3225,-8.3776,-8.4501,-8.5087,-8.5432,-8.5535,-8.5949,-8.6018,-8.5777,-8.5949,-8.6424,-8.6691,-8.6789,-8.6887,-8.7117,-8.7387,-8.7492,-8.7693,-8.799,-8.8575,-8.9407,-9.0576,-9.1722,-9.2282,-9.3566,-9.454,-9.459,-9.576,-9.663,-9.6231,-9.6868,-9.8284,-6.6617,-6.6712,-6.7249,-6.7913,-6.8577,-6.8703,-6.8766,-6.8798,-6.9304,-6.9588,-6.943,-6.8924,-6.8735,-6.8671,-6.8436,-6.8689,-6.9194,-6.913,-6.9304,-6.9965,-6.9734,-6.9485,-6.9547,-6.9209,-6.8889,-6.8797,-6.8212,-6.815,-6.8464,-6.7566,-6.6981,-6.6713,-6.6304,-6.6334,-6.6858,-6.6365,-6.6304,-6.6888,-6.6919,-6.695,-6.7042,-6.7596,-6.7966,-6.8027,-6.8581,-6.8889,-6.9006,-6.9006,-6.9588,-7.0694,-7.0743,-7.1328,-7.2369,-7.2411,-7.2443,-7.2508,-7.2721,-7.3142,-7.376,-7.519,-7.5794,-7.5297,-7.5728,-7.6026,-7.6059,-7.6059,-7.5827,-7.5363,-7.5198,-7.5463,-7.6092,-7.6092,-7.6092,-7.6457,-7.6821,-7.7462,-7.8047,-7.8719,-7.9566,-8.077,-8.1513,-8.2257,-8.3024,-8.4121,-8.5156,-8.5742,-8.5949,-8.6087,-8.6087,-8.6191,-8.6294,-8.6191,-8.6459,-8.6657,-8.6789,-8.6887,-8.7248,-8.7475,-8.806,-8.8375,-8.8846,-8.9783,-9.0968,-9.0581,-9.2153,-9.3191,-9.3676,-9.4603,-9.5242,-9.5362,-9.6304,-9.7571,-9.739,-9.7112,-9.7283,-6.7186,-6.7249,-6.7945,-6.864,-6.9272,-6.9746,-6.9936,-6.9967,-7.022,-7.0315,-7.0315,-7.003,-6.9936,-6.9904,-6.9936,-7.0094,-7.0346,-7.0346,-7.0473,-7.0757,-7.0047,-6.9818,-6.9641,-6.8722,-6.8489,-6.8766,-6.7843,-6.7658,-6.7997,-6.695,-6.6735,-6.7258,-6.6057,-6.5842,-6.6765,-6.6242,-6.6427,-6.7473,-6.7504,-6.7689,-6.8027,-6.7966,-6.812,-6.8458,-6.8766,-6.8889,-6.8889,-6.924,-6.9672,-7.013,-7.0806,-7.147,-7.1938,-7.2649,-7.3124,-7.3156,-7.3975,-7.4596,-7.5016,-7.5889,-7.6192,-7.5894,-7.6125,-7.6291,-7.6291,-7.6291,-7.6324,-7.649,-7.6159,-7.6192,-7.6821,-7.6556,-7.6655,-7.7384,-7.7517,-7.7794,-7.8749,-7.9833,-8.0818,-8.1589,-8.26,-8.3449,-8.4196,-8.519,-8.5915,-8.626,-8.6294,-8.6294,-8.6294,-8.6294,-8.6294,-8.6294,-8.6494,-8.6789,-8.6887,-8.7178,-8.758,-8.8251,-8.8566,-8.8977,-8.9739,-9.009,-9.0722,-9.1213,-9.2459,-9.344,-9.3781,-9.4639,-9.5398,-9.5688,-9.6195,-9.7403,-9.8566,-9.8609,-9.8772,-6.7881,-6.8008,-6.8671,-6.9367,-7.003,-7.0536,-7.0789,-7.0789,-7.0789,-7.0789,-7.0789,-7.0789,-7.0789,-7.0789,-7.0789,-7.0789,-7.0789,-7.0789,-7.0757,-7.0645,-7.0047,-6.9787,-6.9641,-6.866,-6.8427,-6.8643,-6.775,-6.735,-6.7566,-6.695,-6.6981,-6.7566,-6.6273,-6.6119,-6.7258,-6.6796,-6.7012,-6.8058,-6.8181,-6.8489,-6.8982,-6.852,-6.8397,-6.8828,-6.8889,-6.8951,-6.9135,-6.9449,-6.989,-7.0348,-7.1217,-7.1854,-7.2188,-7.3218,-7.3868,-7.415,-7.5168,-7.589,-7.5905,-7.6584,-7.6821,-7.6655,-7.6788,-7.692,-7.692,-7.692,-7.7152,-7.755,-7.7252,-7.7185,-7.7517,-7.7219,-7.7517,-7.861,-7.8312,-7.8525,-7.9541,-8.0774,-8.1596,-8.2173,-8.3255,-8.454,-8.5363,-8.5949,-8.6294,-8.6294,-8.6294,-8.6294,-8.6294,-8.6294,-8.6294,-8.6294,-8.6494,-8.6789,-8.7117,-8.7554,-8.8156,-8.8801,-8.9247,-8.9949,-9.0476,-9.0616,-9.0897,-9.1908,-9.2588,-9.321,-9.3836,-9.4639,-9.5688,-9.605,-9.6557,-9.7476,-9.8929,-9.9541,-9.9732,-6.864,-6.8735,-6.9367,-7.0062,-7.0726,-7.0757,-7.0789,-7.0789,-7.0757,-7.0757,-7.0789,-7.0726,-7.0757,-7.0789,-7.0789,-7.0789,-7.0789,-7.0789,-7.0645,-7.0419,-6.9933,-6.9703,-6.9356,-6.8976,-6.8828,-6.8828,-6.815,-6.7566,-6.7104,-6.7473,-6.7843,-6.7812,-6.7042,-6.7381,-6.8366,-6.7997,-6.815,-6.8674,-6.8797,-6.9135,-6.969,-6.9197,-6.892,-6.8982,-6.892,-6.9228,-6.969,-6.9228,-6.9828,-7.1572,-7.1824,-7.233,-7.3468,-7.4186,-7.469,-7.5147,-7.6243,-7.663,-7.6235,-7.7477,-7.8047,-7.7583,-7.7914,-7.8345,-7.8212,-7.8212,-7.8246,-7.8444,-7.8312,-7.8312,-7.8378,-7.8312,-7.861,-7.9339,-7.9504,-7.9736,-8.0475,-8.0983,-8.1816,-8.2511,-8.3705,-8.4964,-8.5987,-8.6294,-8.6294,-8.6294,-8.6294,-8.6294,-8.6294,-8.6294,-8.6294,-8.6329,-8.6528,-8.6824,-8.7186,-8.7763,-8.8505,-8.9292,-9.0265,-9.1073,-9.1459,-9.1775,-9.2126,-9.2532,-9.3155,-9.371,-9.4034,-9.4803,-9.5952,-9.663,-9.7209,-9.8128,-9.928,-9.8818,-9.9309,-6.962,-7.003,-7.0283,-7.0536,-7.0757,-7.0789,-7.0789,-7.0726,-7.0283,-7.0346,-7.0631,-7.0283,-7.0346,-7.0789,-7.0789,-7.0789,-7.0789,-7.0789,-7.0789,-7.0532,-7.0047,-6.9703,-6.9526,-6.8722,-6.852,-6.8735,-6.8243,-6.7812,-6.7504,-6.6981,-6.6858,-6.7104,-6.6807,-6.726,-6.8312,-6.8374,-6.859,-6.9209,-6.9407,-6.9659,-6.9936,-7.0059,-7.0182,-7.0151,-6.9751,-6.9843,-7.0521,-7.0305,-7.0756,-7.2019,-7.2296,-7.287,-7.3948,-7.4845,-7.5631,-7.6385,-7.6976,-7.7336,-7.7388,-7.7998,-7.8411,-7.8179,-7.8345,-7.8511,-7.8511,-7.8511,-7.8511,-7.8511,-7.8511,-7.8511,-7.861,-7.8941,-7.9306,-7.9571,-7.9637,-7.9878,-8.0335,-8.0755,-8.1346,-8.2854,-8.4453,-8.5818,-8.609,-8.6294,-8.6294,-8.6294,-8.6294,-8.6294,-8.6294,-8.6294,-8.6294,-8.6398,-8.6808,-8.7285,-8.7778,-8.8181,-8.8925,-9.0099,-9.1038,-9.1529,-9.1951,-9.2126,-9.2407,-9.2568,-9.3368,-9.3888,-9.4195,-9.4907,-9.6074,-9.6811,-9.7427,-9.8517,-9.9568,-9.965,-10.0466,-7.0315,-7.0757,-7.0789,-7.0789,-7.0789,-7.0789,-7.0789,-7.0726,-7.0252,-7.0315,-7.0568,-6.9999,-7.0094,-7.0662,-7.0536,-7.0568,-7.0757,-7.0789,-7.0757,-7.0532,-7.0047,-6.9818,-6.9526,-6.866,-6.8458,-6.8735,-6.8212,-6.7843,-6.7535,-6.6673,-6.6488,-6.6858,-6.6951,-6.7528,-6.852,-6.8891,-6.9263,-6.9759,-6.9993,-7.0336,-7.0551,-7.0767,-7.1136,-7.1535,-7.1042,-7.0887,-7.1319,-7.1165,-7.1619,-7.2613,-7.3106,-7.388,-7.5182,-7.6112,-7.6678,-7.7245,-7.761,-7.7829,-7.8079,-7.8296,-7.8403,-7.8511,-7.8511,-7.8511,-7.8511,-7.8511,-7.8511,-7.8544,-7.8776,-7.8842,-7.8776,-7.9405,-7.9968,-7.9968,-7.9968,-8.0309,-8.1109,-8.1437,-8.2441,-8.4044,-8.5339,-8.6225,-8.6294,-8.6294,-8.6294,-8.6294,-8.6294,-8.6294,-8.6294,-8.6294,-8.6432,-8.6639,-8.7053,-8.7908,-8.8624,-8.9269,-8.9633,-9.073,-9.1494,-9.1986,-9.2196,-9.2407,-9.2575,-9.2832,-9.3274,-9.3832,-9.4535,-9.5239,-9.5916,-9.6775,-9.7716,-9.8831,-9.9886,-10.0847,-10.136,-7.0757,-7.0789,-7.0789,-7.0789,-7.0789,-7.0789,-7.0789,-7.0757,-7.0694,-7.0599,-7.0536,-6.9967,-7.003,-7.0504,-7.0157,-7.0157,-7.0694,-7.0789,-7.0645,-7.0419,-6.9984,-6.9672,-6.9472,-6.8969,-6.8674,-6.8766,-6.8181,-6.7566,-6.7012,-6.6796,-6.6796,-6.7042,-6.7941,-6.8727,-6.9387,-7.0093,-7.0466,-7.0534,-7.0822,-7.1198,-7.1783,-7.1352,-7.1782,-7.3014,-7.2703,-7.2362,-7.2424,-7.1835,-7.2324,-7.3772,-7.4139,-7.5378,-7.6984,-7.7621,-7.7829,-7.761,-7.7829,-7.8079,-7.8079,-7.8079,-7.8296,-7.8436,-7.8544,-7.861,-7.8544,-7.8577,-7.861,-7.861,-7.9007,-7.9239,-7.8842,-7.967,-8.0465,-8.0664,-8.0498,-8.1094,-8.2212,-8.3079,-8.4146,-8.5444,-8.6056,-8.6294,-8.6294,-8.6294,-8.6294,-8.6294,-8.6294,-8.6294,-8.6329,-8.6398,-8.6708,-8.7156,-8.7674,-8.8464,-8.953,-9.0493,-9.0857,-9.1326,-9.1951,-9.2407,-9.2372,-9.2512,-9.2673,-9.2928,-9.3555,-9.4195,-9.4958,-9.564,-9.6327,-9.7173,-9.8151,-9.9049,-9.9995,-10.0847,-10.1427,-7.0789,-7.0789,-7.0789,-7.0789,-7.0789,-7.0789,-7.0789,-7.0726,-7.0283,-7.003,-6.9967,-6.9778,-6.9809,-7.0062,-7.0283,-7.0568,-7.0789,-7.0789,-7.0789,-7.0438,-6.9835,-6.9526,-6.9547,-6.8891,-6.8328,-6.812,-6.7535,-6.7135,-6.6888,-6.6488,-6.6642,-6.7681,-6.8851,-6.9765,-7.0419,-7.1339,-7.1683,-7.1541,-7.1774,-7.1996,-7.1998,-7.2214,-7.2707,-7.3416,-7.3475,-7.3472,-7.3714,-7.3374,-7.3917,-7.5391,-7.5348,-7.6038,-7.7324,-7.7719,-7.761,-7.7389,-7.761,-7.7719,-7.7829,-7.7938,-7.8188,-7.8503,-7.89,-7.89,-7.8676,-7.8866,-7.8933,-7.8643,-7.8742,-7.8709,-7.8742,-7.9372,-7.9968,-7.9968,-8.0399,-8.0863,-8.157,-8.2461,-8.3245,-8.4285,-8.5207,-8.5856,-8.6228,-8.6294,-8.6329,-8.6363,-8.6363,-8.6363,-8.6398,-8.6846,-8.7087,-8.7398,-8.8157,-8.9155,-9.0186,-9.1011,-9.1386,-9.1649,-9.2232,-9.2512,-9.2512,-9.2673,-9.2867,-9.331,-9.3959,-9.4623,-9.5288,-9.5978,-9.6666,-9.7318,-9.8078,-9.9002,-10.0052,-10.0819,-10.1427,-7.0789,-7.0757,-7.0504,-7.0536,-7.0726,-7.0504,-7.0536,-7.0694,-7.0283,-7.0094,-7.0062,-6.9778,-6.9683,-6.9778,-7.0188,-7.0378,-7.041,-7.0631,-7.0631,-7.0441,-6.9947,-6.9691,-6.9475,-6.886,-6.832,-6.7873,-6.7504,-6.7165,-6.6919,-6.6796,-6.7073,-6.8166,-6.9526,-7.0558,-7.1205,-7.2136,-7.2638,-7.2495,-7.2697,-7.2705,-7.2675,-7.2892,-7.3231,-7.357,-7.3783,-7.4147,-7.4539,-7.4419,-7.4747,-7.5539,-7.5919,-7.6686,-7.7829,-7.7938,-7.7719,-7.7499,-7.7499,-7.761,-7.7499,-7.7719,-7.8079,-7.8395,-7.8866,-7.8966,-7.8709,-7.8966,-7.8866,-7.8643,-7.8809,-7.8809,-7.8676,-7.9206,-7.9571,-7.9637,-8.0266,-8.084,-8.1434,-8.2352,-8.3403,-8.4245,-8.5035,-8.5618,-8.6093,-8.6329,-8.6467,-8.6605,-8.6708,-8.6915,-8.7087,-8.757,-8.7846,-8.8191,-8.8915,-8.988,-9.0774,-9.1394,-9.1809,-9.211,-9.2407,-9.2512,-9.2512,-9.277,-9.306,-9.3868,-9.4587,-9.485,-9.5507,-9.6086,-9.6738,-9.739,-9.8078,-9.9184,-10.0177,-10.1002,-10.1538,-7.0726,-7.0694,-6.9936,-7.003,-7.0536,-6.9999,-7.0094,-7.0631,-7.0726,-7.0631,-7.0504,-7.0062,-6.9746,-6.9714,-6.9904,-6.9999,-6.9904,-7.0473,-7.0315,-6.9999,-6.9902,-6.9659,-6.8851,-6.8683,-6.8451,-6.7966,-6.7781,-6.7504,-6.7135,-6.7381,-6.8051,-6.8736,-7.0201,-7.112,-7.1728,-7.2818,-7.3446,-7.3421,-7.3472,-7.3416,-7.3447,-7.3107,-7.3231,-7.3783,-7.3905,-7.4147,-7.4659,-7.4778,-7.4866,-7.5102,-7.6231,-7.7245,-7.8188,-7.8511,-7.8188,-7.761,-7.761,-7.7499,-7.7311,-7.7499,-7.7829,-7.8079,-7.8569,-7.8544,-7.8577,-7.8742,-7.8776,-7.8577,-7.9041,-7.9173,-7.8776,-7.9206,-7.9637,-7.9869,-8.0498,-8.1358,-8.251,-8.3172,-8.3833,-8.4924,-8.5445,-8.5755,-8.6332,-8.6467,-8.6811,-8.7294,-8.7501,-8.7777,-8.8157,-8.8467,-8.895,-8.9433,-8.9743,-9.0468,-9.1429,-9.16,-9.198,-9.2315,-9.2512,-9.2512,-9.2673,-9.2928,-9.3404,-9.4231,-9.4886,-9.5193,-9.5579,-9.6159,-9.6847,-9.7535,-9.8418,-9.9425,-10.0396,-10.1185,-10.1697,-7.0283,-7.0631,-6.9462,-6.9335,-6.9904,-6.9746,-6.9778,-7.003,-7.0568,-7.0504,-7.0125,-7.0378,-7.0157,-6.9778,-7.0252,-7.0504,-7.0441,-7.0662,-7.0094,-6.9209,-6.9651,-6.9113,-6.8321,-6.8303,-6.832,-6.7843,-6.7566,-6.735,-6.7596,-6.7442,-6.8197,-6.9852,-7.0949,-7.2081,-7.2912,-7.3871,-7.4344,-7.4137,-7.3901,-7.3723,-7.3478,-7.3231,-7.3231,-7.3601,-7.3814,-7.4147,-7.4539,-7.4539,-7.5102,-7.6231,-7.6911,-7.7719,-7.8403,-7.8511,-7.8188,-7.7719,-7.761,-7.7499,-7.7278,-7.7389,-7.7719,-7.8112,-7.8725,-7.9107,-7.8577,-7.9041,-7.9007,-7.8742,-7.8742,-7.8776,-7.8676,-7.9206,-8.0034,-8.1061,-8.1359,-8.1868,-8.2655,-8.3054,-8.3554,-8.464,-8.4853,-8.5616,-8.6576,-8.7156,-8.7432,-8.8053,-8.8295,-8.8398,-8.8949,-8.9432,-8.9812,-9.0191,-9.057,-9.1293,-9.1809,-9.1945,-9.208,-9.2414,-9.2512,-9.2512,-9.277,-9.318,-9.3868,-9.4587,-9.5022,-9.5398,-9.5652,-9.605,-9.6847,-9.7571,-9.8527,-9.9339,-10.06,-10.1457,-10.1854,-7.0125,-7.0631,-6.8956,-6.8798,-6.9588,-6.9398,-6.9272,-6.9462,-7.0315,-7.0378,-6.9967,-7.0441,-7.0378,-6.9778,-7.0441,-7.041,-6.9999,-7.0536,-6.9841,-6.8387,-6.8324,-6.8233,-6.7964,-6.8251,-6.8095,-6.765,-6.7658,-6.7927,-6.8135,-6.7981,-6.8922,-7.0201,-7.1526,-7.2418,-7.3115,-7.4273,-7.4778,-7.4539,-7.4147,-7.3814,-7.3692,-7.3231,-7.3231,-7.3601,-7.4026,-7.4596,-7.522,-7.5102,-7.5454,-7.6117,-7.6686,-7.7356,-7.8079,-7.8403,-7.8188,-7.7719,-7.761,-7.7389,-7.7199,-7.7389,-7.7719,-7.8004,-7.8758,-7.88,-7.8676,-7.8941,-7.8908,-7.861,-7.8511,-7.8511,-7.8709,-7.9438,-8.0531,-8.1525,-8.2055,-8.2419,-8.285,-8.285,-8.3265,-8.4035,-8.4809,-8.5502,-8.6989,-8.7469,-8.826,-8.8846,-8.9053,-8.9398,-8.9812,-9.0227,-9.0675,-9.0881,-9.1087,-9.1603,-9.1945,-9.208,-9.218,-9.2414,-9.2512,-9.2512,-9.2928,-9.3368,-9.3924,-9.4587,-9.5022,-9.5435,-9.5652,-9.5942,-9.6557,-9.7354,-9.8296,-9.9329,-10.0472,-10.1538,-10.2009,-7.0062,-7.0504,-6.845,-6.8355,-6.9367,-6.8956,-6.8766,-6.8988,-7.0188,-7.0441,-7.0094,-7.0504,-7.0441,-6.9841,-7.0504,-7.0157,-6.9146,-7.0315,-6.9462,-6.8197,-6.7376,-6.7099,-6.7794,-6.8009,-6.7827,-6.7446,-6.8236,-6.8351,-6.8343,-6.8891,-6.9703,-7.0736,-7.2002,-7.2621,-7.339,-7.436,-7.4834,-7.4778,-7.4178,-7.3936,-7.3692,-7.3355,-7.3231,-7.3814,-7.4627,-7.5188,-7.5771,-7.5771,-7.5539,-7.5306,-7.6002,-7.6911,-7.7719,-7.8296,-7.8188,-7.7829,-7.761,-7.7389,-7.7008,-7.7278,-7.761,-7.7752,-7.8221,-7.8511,-7.8544,-7.861,-7.861,-7.8544,-7.8577,-7.8875,-7.9306,-8.0167,-8.1061,-8.1923,-8.2552,-8.2817,-8.2883,-8.2883,-8.3154,-8.3758,-8.4973,-8.5701,-8.6847,-8.7848,-8.8881,-8.9881,-9.0054,-9.0296,-9.0641,-9.1055,-9.1296,-9.1502,-9.1673,-9.1809,-9.208,-9.2215,-9.2315,-9.2512,-9.2512,-9.2575,-9.3024,-9.3555,-9.4015,-9.4587,-9.5022,-9.5314,-9.5471,-9.5869,-9.634,-9.7077,-9.7911,-9.9037,-10.0232,-10.1323,-10.1932,-6.9778,-6.9778,-6.8229,-6.8103,-6.8798,-6.8766,-6.8671,-6.8798,-7.0157,-7.0631,-7.0568,-7.0726,-7.0662,-7.0536,-7.0662,-7.0599,-7.0157,-7.0441,-6.9904,-6.8482,-6.7123,-6.6775,-6.7004,-6.7308,-6.7416,-6.7299,-6.692,-6.7497,-6.821,-6.8851,-6.9765,-7.1813,-7.2652,-7.3533,-7.4242,-7.4344,-7.4659,-7.4659,-7.4089,-7.3692,-7.3783,-7.3324,-7.3324,-7.4147,-7.5188,-7.5423,-7.5102,-7.5188,-7.5306,-7.5655,-7.654,-7.761,-7.8046,-7.8403,-7.8263,-7.7905,-7.7687,-7.7499,-7.7167,-7.7356,-7.761,-7.7719,-7.8188,-7.8511,-7.8511,-7.8511,-7.8511,-7.8643,-7.9041,-7.9736,-8.0697,-8.126,-8.1823,-8.2419,-8.2751,-8.2883,-8.2883,-8.2883,-8.3343,-8.4083,-8.464,-8.5675,-8.7676,-8.8192,-8.9295,-9.0573,-9.1022,-9.1126,-9.1402,-9.1778,-9.1879,-9.198,-9.208,-9.218,-9.218,-9.2315,-9.2414,-9.2512,-9.2512,-9.2673,-9.312,-9.3555,-9.4105,-9.4587,-9.5022,-9.5314,-9.5398,-9.5471,-9.5869,-9.6763,-9.7573,-9.8765,-9.9902,-10.0992,-10.2009,-6.9493,-6.9114,-6.8039,-6.7818,-6.8197,-6.8513,-6.8482,-6.8577,-7.0062,-7.0568,-7.041,-7.0599,-7.0789,-7.0789,-7.0757,-7.0631,-7.0125,-6.9556,-6.9114,-6.8324,-6.7281,-6.6617,-6.6744,-6.7067,-6.7402,-6.7442,-6.7629,-6.8126,-6.881,-6.9381,-7.0266,-7.2107,-7.3147,-7.38,-7.4336,-7.4382,-7.4539,-7.4539,-7.3967,-7.3601,-7.357,-7.3324,-7.357,-7.4476,-7.5423,-7.5539,-7.5655,-7.6117,-7.6346,-7.6686,-7.7389,-7.7938,-7.8046,-7.8296,-7.8164,-7.7651,-7.7697,-7.727,-7.6952,-7.7193,-7.761,-7.761,-7.8155,-7.8403,-7.8511,-7.8511,-7.8511,-7.8676,-7.9239,-8.02,-8.1558,-8.1757,-8.2154,-8.2684,-8.2883,-8.2883,-8.2883,-8.2883,-8.3154,-8.4076,-8.4736,-8.5845,-8.7088,-8.8227,-8.9225,-9.0365,-9.1126,-9.1334,-9.1708,-9.198,-9.208,-9.218,-9.2379,-9.2512,-9.2512,-9.2512,-9.2512,-9.2512,-9.2512,-9.277,-9.312,-9.3555,-9.4105,-9.4551,-9.5058,-9.5314,-9.5398,-9.5435,-9.5471,-9.6098,-9.7076,-9.8408,-9.9726,-10.0966,-10.1904,-6.9462,-6.8798,-6.8071,-6.7818,-6.7976,-6.8482,-6.8387,-6.8166,-6.9904,-7.0315,-6.9809,-7.0378,-7.0631,-7.0504,-7.0726,-7.0346,-6.9556,-6.8608,-6.8324,-6.8197,-6.7186,-6.6681,-6.6775,-6.7174,-6.7652,-6.7902,-6.8165,-6.8851,-6.9495,-7.0192,-7.0746,-7.2002,-7.3254,-7.4012,-7.4084,-7.4193,-7.4419,-7.4419,-7.3845,-7.3601,-7.3601,-7.3355,-7.3539,-7.4357,-7.5624,-7.6002,-7.6346,-7.6911,-7.7499,-7.761,-7.8079,-7.8046,-7.8046,-7.8122,-7.8205,-7.7396,-7.7566,-7.738,-7.7074,-7.7315,-7.7719,-7.7719,-7.8188,-7.8403,-7.8511,-7.8511,-7.8511,-7.8809,-7.9372,-8.0465,-8.1724,-8.2055,-8.232,-8.2718,-8.2883,-8.2883,-8.2883,-8.2996,-8.341,-8.3993,-8.4843,-8.5954,-8.709,-8.8192,-8.9191,-9.0191,-9.0814,-9.1437,-9.1809,-9.218,-9.228,-9.2379,-9.2477,-9.2512,-9.2512,-9.2477,-9.2477,-9.2575,-9.2575,-9.2928,-9.331,-9.3868,-9.4374,-9.4587,-9.4936,-9.5229,-9.5398,-9.5398,-9.5591,-9.5736,-9.6914,-9.857,-9.9848,-10.0896,-10.1758,-7.0157,-6.9462,-6.8798,-6.8798,-6.9209,-6.8893,-6.864,-6.8766,-7.0094,-7.003,-6.9177,-7.0188,-7.0094,-6.9651,-7.0346,-7.0315,-6.9588,-6.8766,-6.8197,-6.7818,-6.6965,-6.6617,-6.6744,-6.7407,-6.7823,-6.8076,-6.8437,-6.8795,-6.9214,-6.9879,-7.0934,-7.2212,-7.3358,-7.4075,-7.4431,-7.4357,-7.4268,-7.4539,-7.3845,-7.3601,-7.3814,-7.357,-7.3447,-7.4388,-7.5771,-7.6459,-7.6231,-7.7023,-7.761,-7.761,-7.7719,-7.7938,-7.8188,-7.8403,-7.8304,-7.8172,-7.7915,-7.7806,-7.7533,-7.7806,-7.7971,-7.8079,-7.8296,-7.8511,-7.8511,-7.8544,-7.861,-7.9041,-7.9869,-8.1094,-8.2519,-8.2585,-8.2684,-8.2883,-8.2883,-8.2883,-8.2996,-8.3299,-8.3817,-8.4392,-8.5162,-8.589,-8.6955,-8.7916,-8.881,-8.9807,-9.0638,-9.1255,-9.169,-9.2098,-9.2344,-9.2477,-9.2512,-9.2512,-9.2512,-9.2477,-9.2477,-9.2673,-9.2867,-9.331,-9.3684,-9.4231,-9.4675,-9.485,-9.5108,-9.5314,-9.5398,-9.5398,-9.5435,-9.5591,-9.7142,-9.8919,-9.9742,-10.0641,-10.1945,-7.0157,-6.9177,-6.9177,-6.9177,-6.9177,-6.924,-6.8988,-6.8924,-7.0125,-7.0188,-6.962,-6.9872,-6.9872,-6.9525,-6.9809,-6.9967,-6.9556,-6.8988,-6.8292,-6.7597,-6.6933,-6.6586,-6.6775,-6.7629,-6.8152,-6.8611,-6.9146,-6.9395,-6.9401,-7.0004,-7.106,-7.2338,-7.3304,-7.4084,-7.462,-7.4388,-7.4419,-7.4419,-7.3936,-7.3692,-7.4147,-7.3814,-7.3936,-7.4508,-7.5655,-7.6264,-7.6264,-7.6911,-7.761,-7.7719,-7.7938,-7.8188,-7.8403,-7.8477,-7.8345,-7.8006,-7.8097,-7.7882,-7.7717,-7.7816,-7.8079,-7.8079,-7.8296,-7.8511,-7.8511,-7.8577,-7.8842,-7.967,-8.0498,-8.1691,-8.2751,-8.285,-8.2883,-8.2883,-8.2883,-8.2996,-8.3299,-8.3817,-8.4359,-8.4924,-8.5375,-8.5926,-8.654,-8.7464,-8.8288,-8.9252,-9.0423,-9.0967,-9.1432,-9.1916,-9.2267,-9.2302,-9.2337,-9.2512,-9.2477,-9.2575,-9.2673,-9.2867,-9.312,-9.3684,-9.405,-9.4499,-9.4886,-9.5108,-9.5314,-9.5398,-9.5398,-9.5398,-9.5398,-9.5555,-9.7049,-9.8406,-9.9379,-10.0422,-10.1759,-7.0125,-6.9146,-6.9525,-6.9462,-6.9209,-6.9335,-6.9272,-6.9177,-7.0062,-7.0094,-6.9556,-6.962,-6.962,-6.9525,-6.9556,-6.9556,-6.9304,-6.8735,-6.8229,-6.7376,-6.687,-6.6586,-6.6965,-6.7723,-6.8482,-6.8829,-6.9999,-7.0595,-7.0172,-7.0224,-7.1091,-7.2127,-7.2975,-7.3659,-7.4368,-7.4445,-7.4357,-7.4419,-7.4026,-7.3905,-7.4026,-7.4299,-7.4419,-7.4539,-7.5337,-7.5919,-7.6149,-7.7023,-7.761,-7.7938,-7.8188,-7.8511,-7.8511,-7.8511,-7.8246,-7.7742,-7.7998,-7.7792,-7.7726,-7.7825,-7.8188,-7.8188,-7.8403,-7.8511,-7.8511,-7.8643,-7.9074,-8.0432,-8.0896,-8.1724,-8.2585,-8.2751,-8.2751,-8.2883,-8.2883,-8.3108,-8.3631,-8.4143,-8.4713,-8.5168,-8.548,-8.5891,-8.6469,-8.7154,-8.7945,-8.8658,-8.9657,-9.0583,-9.1116,-9.167,-9.1986,-9.2021,-9.2126,-9.2407,-9.2575,-9.2673,-9.2867,-9.3024,-9.3497,-9.405,-9.441,-9.4799,-9.5058,-9.5314,-9.5314,-9.5398,-9.5398,-9.5398,-9.5398,-9.583,-9.691,-9.8002,-9.9117,-10.0312,-10.1684,-7.0694,-7.0473,-6.9904,-6.9999,-7.0283,-6.9335,-6.9146,-6.9556,-6.9778,-6.943,-6.9019,-6.9367,-6.9335,-6.9082,-6.9493,-6.8988,-6.8387,-6.845,-6.8008,-6.6965,-6.6744,-6.6712,-6.6744,-6.7344,-6.8324,-6.8956,-7.0157,-7.0816,-7.0934,-7.0651,-7.1028,-7.219,-7.2535,-7.303,-7.4147,-7.447,-7.4508,-7.4659,-7.4268,-7.3905,-7.4026,-7.4539,-7.4659,-7.4778,-7.522,-7.6034,-7.6459,-7.7134,-7.7719,-7.8296,-7.8403,-7.8511,-7.8511,-7.8511,-7.8477,-7.8411,-7.837,-7.837,-7.8271,-7.8337,-7.8403,-7.8403,-7.8511,-7.8511,-7.8544,-7.8676,-7.9206,-8.0465,-8.0432,-8.0962,-8.2287,-8.232,-8.2386,-8.2651,-8.2883,-8.3187,-8.3708,-8.4251,-8.4819,-8.5549,-8.589,-8.6093,-8.6498,-8.705,-8.7669,-8.8212,-8.8955,-8.9878,-9.0598,-9.1011,-9.1529,-9.1529,-9.2083,-9.2435,-9.2594,-9.2691,-9.3215,-9.331,-9.3868,-9.441,-9.4763,-9.5058,-9.5229,-9.5398,-9.5398,-9.5398,-9.5398,-9.5398,-9.5398,-9.5913,-9.6808,-9.7814,-9.8888,-10.0201,-10.157,-7.0789,-7.0757,-7.0441,-7.0473,-7.0631,-6.9683,-6.9398,-6.962,-6.9761,-6.9603,-6.9272,-6.9099,-6.891,-6.8861,-6.9398,-6.9146,-6.845,-6.8545,-6.7913,-6.6997,-6.6933,-6.7123,-6.7471,-6.8229,-6.9019,-6.9335,-7.0315,-7.1421,-7.154,-7.1457,-7.1436,-7.2221,-7.2441,-7.3241,-7.4233,-7.4589,-7.4747,-7.4778,-7.4659,-7.4539,-7.4508,-7.4778,-7.4778,-7.4659,-7.5102,-7.5803,-7.6573,-7.6911,-7.761,-7.8296,-7.8511,-7.8511,-7.8511,-7.8511,-7.8511,-7.8511,-7.8511,-7.8511,-7.8511,-7.8511,-7.8511,-7.8511,-7.8511,-7.8511,-7.8577,-7.8908,-7.9239,-7.9968,-8.0631,-8.1326,-8.2088,-8.2353,-8.2585,-8.2784,-8.3042,-8.3631,-8.4035,-8.4359,-8.489,-8.5652,-8.6394,-8.6494,-8.6593,-8.6869,-8.7315,-8.775,-8.8321,-8.8934,-8.9582,-9.009,-9.0511,-9.0897,-9.1662,-9.2365,-9.2515,-9.2696,-9.352,-9.3868,-9.4231,-9.4675,-9.5058,-9.5314,-9.5398,-9.5398,-9.5398,-9.5398,-9.5398,-9.5398,-9.5482,-9.5886,-9.6515,-9.7562,-9.8643,-9.9797,-10.1124,-7.0789,-7.0789,-7.0789,-7.0789,-7.0694,-6.9999,-6.9778,-6.9936,-6.9793,-6.9856,-6.9809,-6.9446,-6.9004,-6.8798,-6.9367,-6.9525,-6.8703,-6.8703,-6.7945,-6.7376,-6.7155,-6.7376,-6.7787,-6.8735,-6.9398,-6.9714,-7.0662,-7.1547,-7.1939,-7.2076,-7.2055,-7.2684,-7.2589,-7.3241,-7.421,-7.4802,-7.4897,-7.4897,-7.4897,-7.4778,-7.4897,-7.4897,-7.4897,-7.4897,-7.5102,-7.5571,-7.6492,-7.6911,-7.7577,-7.8296,-7.8511,-7.8511,-7.8511,-7.8511,-7.8511,-7.8511,-7.8511,-7.8511,-7.8511,-7.8511,-7.8511,-7.8511,-7.8511,-7.8511,-7.8577,-7.9074,-7.9613,-7.9886,-8.0659,-8.1325,-8.2033,-8.2676,-8.291,-8.3187,-8.3387,-8.4001,-8.45,-8.4819,-8.5239,-8.6059,-8.6593,-8.6789,-8.6789,-8.6887,-8.7089,-8.7318,-8.772,-8.8226,-8.8977,-8.9598,-9.0336,-9.1038,-9.189,-9.2656,-9.2706,-9.3014,-9.3852,-9.4374,-9.4675,-9.4972,-9.5229,-9.5314,-9.5398,-9.5398,-9.5398,-9.5398,-9.5398,-9.5482,-9.5566,-9.6012,-9.6442,-9.7239,-9.8244,-9.9572,-10.082,-7.0789,-7.0789,-7.0789,-7.0789,-7.0726,-6.9999,-7.0062,-7.0504,-6.9983,-7.0046,-7.0315,-7.0504,-6.943,-6.864,-6.9556,-6.9904,-6.8735,-6.8703,-6.8134,-6.7502,-6.706,-6.7218,-6.7755,-6.8419,-6.9146,-6.9809,-7.0662,-7.1389,-7.199,-7.2286,-7.2854,-7.3665,-7.3138,-7.3327,-7.4012,-7.4826,-7.5102,-7.5134,-7.5102,-7.5016,-7.5016,-7.4984,-7.4984,-7.507,-7.5423,-7.6034,-7.6686,-7.7037,-7.7687,-7.837,-7.8511,-7.8511,-7.8511,-7.8511,-7.8511,-7.8511,-7.8511,-7.8511,-7.8511,-7.8511,-7.8511,-7.8511,-7.8511,-7.8511,-7.8544,-7.8544,-7.9122,-8.0008,-8.0682,-8.1269,-8.2124,-8.2874,-8.3436,-8.3504,-8.3699,-8.4432,-8.4924,-8.5168,-8.5686,-8.6394,-8.6789,-8.6985,-8.7178,-8.7275,-8.7178,-8.744,-8.7605,-8.8146,-8.9222,-8.9985,-9.0827,-9.1591,-9.2434,-9.2943,-9.3061,-9.3562,-9.4213,-9.4567,-9.4828,-9.5072,-9.5314,-9.5398,-9.5398,-9.5398,-9.5398,-9.5398,-9.5482,-9.5566,-9.5695,-9.602,-9.6448,-9.7242,-9.8466,-9.9935,-10.0997,-7.0789,-7.0789,-7.0789,-7.0789,-7.0726,-6.9999,-7.0094,-7.0568,-7.0046,-6.954,-6.9571,-7.0331,-6.9841,-6.9114,-6.9809,-7.0252,-6.9304,-6.8829,-6.8292,-6.7755,-6.7376,-6.7407,-6.785,-6.8324,-6.9051,-6.9683,-7.0378,-7.1389,-7.2432,-7.2401,-7.3285,-7.3791,-7.3929,-7.4447,-7.4892,-7.5061,-7.5306,-7.5803,-7.5687,-7.5454,-7.5571,-7.5771,-7.5579,-7.4817,-7.5392,-7.5926,-7.6483,-7.6812,-7.7543,-7.8164,-7.8511,-7.8511,-7.8511,-7.8511,-7.8511,-7.8511,-7.8511,-7.8511,-7.8511,-7.8511,-7.8511,-7.8511,-7.8511,-7.8511,-7.8511,-7.8511,-7.893,-7.9714,-8.0627,-8.148,-8.1628,-8.3084,-8.406,-8.3896,-8.4174,-8.4825,-8.5204,-8.5481,-8.589,-8.6593,-8.6985,-8.7213,-8.7405,-8.769,-8.7596,-8.7501,-8.7795,-8.8135,-8.9212,-8.9879,-9.0607,-9.1362,-9.2,-9.2255,-9.2331,-9.3336,-9.4547,-9.4806,-9.494,-9.5205,-9.5398,-9.5398,-9.5398,-9.5398,-9.5398,-9.5398,-9.5482,-9.5612,-9.5939,-9.6223,-9.6645,-9.7247,-9.8649,-10.0183,-10.1023,-7.0789,-7.0789,-7.0789,-7.0789,-7.0726,-7.022,-7.0283,-7.0631,-7.0331,-6.9635,-6.911,-7.0236,-7.0125,-6.9588,-7.0157,-7.0568,-6.9841,-6.9146,-6.8482,-6.7913,-6.7534,-6.7471,-6.7723,-6.8134,-6.8735,-6.943,-6.9841,-7.0694,-7.2306,-7.2179,-7.3442,-7.4646,-7.5291,-7.5566,-7.5496,-7.5687,-7.5887,-7.6346,-7.6346,-7.6034,-7.6149,-7.6346,-7.633,-7.5442,-7.5764,-7.6242,-7.6714,-7.7073,-7.7453,-7.8172,-7.8511,-7.8511,-7.8511,-7.8511,-7.8511,-7.8511,-7.8511,-7.8511,-7.8511,-7.8511,-7.8511,-7.8511,-7.8511,-7.8511,-7.8511,-7.8511,-7.8896,-7.9696,-8.0909,-8.1791,-8.1665,-8.35,-8.425,-8.4046,-8.4455,-8.507,-8.5344,-8.5581,-8.6191,-8.6789,-8.702,-8.7213,-8.7501,-8.7784,-8.7784,-8.769,-8.7819,-8.8194,-8.8896,-8.9483,-8.9718,-9.0435,-9.1268,-9.1335,-9.1352,-9.2935,-9.4409,-9.4566,-9.4807,-9.5253,-9.5398,-9.5398,-9.5398,-9.5398,-9.5398,-9.5398,-9.5566,-9.5695,-9.61,-9.6458,-9.7062,-9.7542,-9.8234,-9.9612,-10.0636,-7.0789,-7.0789,-7.0789,-7.0789,-7.0789,-7.0757,-7.0757,-7.0789,-7.0662,-7.0299,-6.9698,-7.041,-7.0378,-6.9904,-7.041,-7.0662,-7.0378,-6.9367,-6.8671,-6.8324,-6.7471,-6.7218,-6.7344,-6.7755,-6.8292,-6.9367,-6.9809,-7.0473,-7.1926,-7.2401,-7.3766,-7.5266,-7.6007,-7.6443,-7.5919,-7.6346,-7.6686,-7.6686,-7.6798,-7.6686,-7.6686,-7.6831,-7.6813,-7.6344,-7.6267,-7.6637,-7.6942,-7.6959,-7.7477,-7.8039,-7.8444,-7.8511,-7.8511,-7.8511,-7.8511,-7.8511,-7.8511,-7.8511,-7.8511,-7.8511,-7.8511,-7.8511,-7.8511,-7.8511,-7.8511,-7.8617,-7.8936,-7.9835,-8.1256,-8.2309,-8.3049,-8.3989,-8.4166,-8.4377,-8.4789,-8.527,-8.5577,-8.5783,-8.6325,-8.6789,-8.702,-8.7213,-8.7501,-8.769,-8.7878,-8.7878,-8.7878,-8.8288,-8.8885,-8.9108,-8.9364,-9.01,-9.0925,-9.0962,-9.1291,-9.3025,-9.4192,-9.442,-9.4746,-9.5181,-9.5398,-9.5398,-9.5398,-9.5398,-9.5398,-9.5398,-9.5529,-9.5777,-9.6301,-9.699,-9.7393,-9.7966,-9.8464,-9.9075,-10.0171,-7.0789,-7.0789,-7.0789,-7.0789,-7.0789,-7.0789,-7.0789,-7.0789,-7.0726,-7.0378,-6.9904,-7.0441,-7.0378,-7.0094,-7.0378,-7.0789,-7.0568,-6.9936,-6.924,-6.8577,-6.7629,-6.7155,-6.7091,-6.7155,-6.7723,-6.8798,-6.9462,-7.0378,-7.1863,-7.2432,-7.3588,-7.4975,-7.6502,-7.7324,-7.7278,-7.7245,-7.7023,-7.761,-7.761,-7.7278,-7.7356,-7.7577,-7.7413,-7.6736,-7.6482,-7.6604,-7.6901,-7.6848,-7.7185,-7.7848,-7.8146,-7.8511,-7.8511,-7.8511,-7.8511,-7.8511,-7.8511,-7.8511,-7.8511,-7.8511,-7.8511,-7.8511,-7.8511,-7.8511,-7.8511,-7.8936,-7.9425,-8.0209,-8.1427,-8.2064,-8.2411,-8.3507,-8.3989,-8.423,-8.4678,-8.5436,-8.5815,-8.6122,-8.6429,-8.6824,-8.7117,-8.7405,-8.769,-8.7749,-8.7971,-8.8213,-8.827,-8.8623,-8.9279,-8.9289,-8.9449,-9.0108,-9.0764,-9.0739,-9.138,-9.2832,-9.366,-9.3696,-9.442,-9.529,-9.5398,-9.5398,-9.5398,-9.5398,-9.5398,-9.5398,-9.5777,-9.6143,-9.6878,-9.7428,-9.7887,-9.8196,-9.8507,-9.9049,-9.9889,-7.0789,-7.0789,-7.0789,-7.0789,-7.0789,-7.0789,-7.0789,-7.0789,-7.0757,-7.0504,-7.0252,-7.0599,-7.0536,-7.0315,-7.0504,-7.0789,-7.0694,-6.9999,-6.9335,-6.8671,-6.7913,-6.7281,-6.6807,-6.6712,-6.7534,-6.8482,-6.9209,-7.0062,-7.1389,-7.2116,-7.3511,-7.5153,-7.643,-7.7444,-7.7783,-7.7829,-7.7719,-7.8188,-7.8079,-7.7938,-7.8046,-7.8122,-7.8097,-7.7289,-7.6842,-7.649,-7.6589,-7.6622,-7.6655,-7.7351,-7.798,-7.8477,-7.8511,-7.8511,-7.8511,-7.8511,-7.8511,-7.8511,-7.8511,-7.883,-7.883,-7.883,-7.8617,-7.8617,-7.8724,-7.9113,-7.9734,-8.0445,-8.149,-8.2056,-8.2611,-8.3707,-8.3949,-8.419,-8.4742,-8.5466,-8.5777,-8.6018,-8.6429,-8.6824,-8.7117,-8.7501,-8.7784,-8.7843,-8.8029,-8.8361,-8.8596,-8.9111,-8.952,-8.9519,-8.9493,-9.013,-9.0538,-9.0576,-9.1186,-9.2445,-9.3008,-9.3008,-9.4058,-9.5326,-9.5398,-9.5398,-9.5398,-9.5398,-9.5398,-9.5529,-9.6064,-9.6575,-9.7247,-9.7849,-9.8188,-9.8423,-9.8616,-9.9054,-9.9579,-7.0757,-7.0789,-7.0789,-7.0789,-7.0789,-7.0789,-7.0789,-7.0789,-7.0789,-7.0757,-7.0757,-7.0726,-7.0694,-7.0726,-7.0789,-7.0789,-7.0726,-7.0094,-6.9398,-6.8735,-6.8103,-6.7344,-6.6839,-6.6681,-6.7376,-6.8197,-6.8988,-6.9714,-7.0789,-7.1981,-7.3532,-7.5067,-7.612,-7.704,-7.7742,-7.7899,-7.8031,-7.8304,-7.8403,-7.8296,-7.8403,-7.8403,-7.8337,-7.7874,-7.7179,-7.6854,-7.6755,-7.6655,-7.6755,-7.7285,-7.798,-7.8312,-7.8511,-7.8511,-7.8511,-7.8511,-7.8511,-7.8511,-7.8724,-7.9008,-7.9217,-7.9217,-7.8902,-7.9041,-7.9351,-7.9763,-8.031,-8.0882,-8.1752,-8.2629,-8.3472,-8.3679,-8.3983,-8.4363,-8.4811,-8.5225,-8.5501,-8.5911,-8.639,-8.6691,-8.6985,-8.737,-8.7784,-8.7936,-8.8029,-8.8596,-8.8951,-8.9285,-8.9621,-8.9758,-8.9761,-8.9965,-9.0347,-9.0321,-9.1062,-9.2202,-9.2827,-9.3008,-9.4276,-9.5398,-9.5398,-9.5398,-9.5398,-9.5398,-9.5446,-9.574,-9.6343,-9.7027,-9.7674,-9.8121,-9.8487,-9.8616,-9.8679,-9.8679,-9.9155,-7.0315,-7.0757,-7.0789,-7.0789,-7.0789,-7.0789,-7.0789,-7.0789,-7.0789,-7.0789,-7.0789,-7.0789,-7.0789,-7.0789,-7.0789,-7.0789,-7.0694,-7.0441,-6.9651,-6.8988,-6.8419,-6.7597,-6.6997,-6.6712,-6.7218,-6.7976,-6.8798,-6.9493,-7.041,-7.1775,-7.3327,-7.4645,-7.5641,-7.6485,-7.6887,-7.6981,-7.7576,-7.8246,-7.8411,-7.8477,-7.8511,-7.8511,-7.8511,-7.8179,-7.7583,-7.7119,-7.6622,-7.6556,-7.6589,-7.6722,-7.7384,-7.7881,-7.8511,-7.8511,-7.8511,-7.8511,-7.8511,-7.8617,-7.9041,-7.9217,-7.9425,-7.9836,-7.9768,-8.0104,-8.0546,-8.0953,-8.1222,-8.1551,-8.1708,-8.2411,-8.2887,-8.3225,-8.3776,-8.4397,-8.488,-8.5259,-8.557,-8.5984,-8.6494,-8.6789,-8.7082,-8.7466,-8.7878,-8.7843,-8.8121,-8.8686,-8.9213,-8.9556,-8.9809,-8.9893,-9.0012,-9.0258,-9.034,-9.034,-9.0963,-9.203,-9.2573,-9.3189,-9.4457,-9.5362,-9.5398,-9.5398,-9.5398,-9.5529,-9.5695,-9.6143,-9.6652,-9.7391,-9.8017,-9.8385,-9.8679,-9.8742,-9.8842,-9.878,-9.878,-6.9936,-7.0378,-7.0662,-7.0789,-7.0789,-7.0789,-7.0789,-7.0789,-7.0789,-7.0789,-7.0789,-7.0789,-7.0789,-7.0789,-7.0789,-7.0789,-7.0757,-7.0694,-7.0125,-6.9367,-6.8829,-6.7976,-6.7281,-6.6807,-6.706,-6.7818,-6.8608,-6.9335,-7.0235,-7.1906,-7.3542,-7.4465,-7.5252,-7.5724,-7.6159,-7.6253,-7.6749,-7.751,-7.8039,-7.8205,-7.8444,-7.8511,-7.8511,-7.8378,-7.7815,-7.7119,-7.649,-7.649,-7.6589,-7.6589,-7.7185,-7.798,-7.8511,-7.8511,-7.8511,-7.8511,-7.8511,-7.883,-7.9113,-7.9528,-7.9938,-8.041,-8.0913,-8.1421,-8.149,-8.1589,-8.1684,-8.1777,-8.1826,-8.1948,-8.2259,-8.2604,-8.3535,-8.4397,-8.488,-8.5363,-8.5777,-8.6191,-8.6593,-8.6887,-8.7178,-8.7596,-8.7878,-8.7878,-8.8121,-8.8775,-8.93,-8.9641,-8.9976,-9.034,-9.034,-9.0421,-9.0501,-9.0618,-9.1233,-9.1813,-9.2537,-9.3334,-9.4457,-9.5181,-9.529,-9.5398,-9.5482,-9.5777,-9.6143,-9.6575,-9.7101,-9.7743,-9.8385,-9.8616,-9.8742,-9.8842,-9.8842,-9.8842,-9.888,-6.9588,-6.9778,-7.0473,-7.0789,-7.0789,-7.0789,-7.0789,-7.0789,-7.0789,-7.0789,-7.0789,-7.0789,-7.0789,-7.0789,-7.0789,-7.0789,-7.0789,-7.0757,-7.0378,-6.9651,-6.9146,-6.8387,-6.7534,-6.706,-6.7091,-6.7629,-6.8495,-6.9491,-7.039,-7.1961,-7.3461,-7.4373,-7.443,-7.4933,-7.586,-7.5695,-7.6258,-7.7384,-7.7742,-7.7833,-7.8304,-7.8511,-7.8511,-7.8411,-7.7881,-7.7252,-7.6788,-7.6788,-7.7053,-7.7086,-7.7318,-7.8113,-7.8477,-7.8511,-7.8511,-7.8617,-7.8724,-7.9146,-7.9632,-8.004,-8.0442,-8.121,-8.2143,-8.2383,-8.2383,-8.2051,-8.2046,-8.2005,-8.2121,-8.2224,-8.2466,-8.288,-8.3604,-8.4501,-8.5156,-8.5639,-8.6053,-8.6394,-8.6691,-8.695,-8.737,-8.7655,-8.7878,-8.7936,-8.8361,-8.8951,-8.9471,-8.9809,-9.0177,-9.0581,-9.0618,-9.0618,-9.0618,-9.069,-9.1052,-9.1704,-9.261,-9.3551,-9.4565,-9.5145,-9.5326,-9.5482,-9.5529,-9.5903,-9.6458,-9.6953,-9.7533,-9.8084,-9.8514,-9.8742,-9.8842,-9.8905,-9.8905,-9.8905,-9.8942,-6.8703,-6.9746,-7.0473,-7.0789,-7.0789,-7.0789,-7.0789,-7.0789,-7.0789,-7.0789,-7.0789,-7.0789,-7.0789,-7.0789,-7.0789,-7.0789,-7.0789,-7.0726,-7.0315,-6.9872,-6.9398,-6.864,-6.7787,-6.7313,-6.7155,-6.7313,-6.8147,-6.9817,-7.1424,-7.2591,-7.3351,-7.4199,-7.4237,-7.4833,-7.5562,-7.5363,-7.6021,-7.7351,-7.7404,-7.7767,-7.8337,-7.8511,-7.8511,-7.8477,-7.8146,-7.7782,-7.7285,-7.6755,-7.702,-7.7152,-7.6788,-7.7417,-7.8411,-7.8477,-7.8724,-7.9041,-7.9113,-7.9632,-8.0175,-8.0576,-8.097,-8.1565,-8.2328,-8.2638,-8.2776,-8.2577,-8.2411,-8.237,-8.2431,-8.2604,-8.2845,-8.3259,-8.3742,-8.4639,-8.5466,-8.588,-8.626,-8.6459,-8.6755,-8.7047,-8.7431,-8.7655,-8.7936,-8.8213,-8.8596,-8.9039,-8.9556,-8.9929,-9.0258,-9.0618,-9.0618,-9.0618,-9.0618,-9.0726,-9.1016,-9.1704,-9.2682,-9.3515,-9.4457,-9.4964,-9.5362,-9.5612,-9.5777,-9.6301,-9.6728,-9.7319,-9.7812,-9.8385,-9.8742,-9.8842,-9.8905,-9.8905,-9.8905,-9.8905,-9.8905,-6.8324,-6.8861,-6.9872,-7.0504,-7.0757,-7.0789,-7.0789,-7.0789,-7.0789,-7.0789,-7.0789,-7.0789,-7.0789,-7.0789,-7.0789,-7.0789,-7.0789,-7.0789,-7.0599,-7.022,-6.9525,-6.8798,-6.8166,-6.7534,-6.6997,-6.7028,-6.8393,-7.014,-7.2282,-7.3005,-7.3525,-7.4103,-7.4403,-7.4833,-7.533,-7.5662,-7.622,-7.7351,-7.7477,-7.7841,-7.8444,-7.8511,-7.8511,-7.8511,-7.8411,-7.808,-7.7749,-7.7185,-7.7384,-7.755,-7.7384,-7.7893,-7.8697,-7.8902,-7.9113,-7.9528,-7.9734,-8.004,-8.0675,-8.1137,-8.1331,-8.1922,-8.2561,-8.288,-8.3018,-8.2887,-8.3266,-8.3293,-8.3259,-8.3397,-8.3604,-8.3983,-8.4397,-8.5087,-8.5673,-8.6122,-8.6394,-8.6691,-8.6818,-8.7039,-8.7491,-8.7901,-8.8121,-8.827,-8.8775,-8.9386,-8.9845,-9.0095,-9.0421,-9.0618,-9.0618,-9.0618,-9.0618,-9.0618,-9.0799,-9.1668,-9.2827,-9.3624,-9.4431,-9.5094,-9.5695,-9.5858,-9.6143,-9.6652,-9.7174,-9.7674,-9.8188,-9.8616,-9.878,-9.8905,-9.8905,-9.8905,-9.8905,-9.8905,-9.8905,-6.8229,-6.7945,-6.9146,-7.003,-7.0599,-7.0757,-7.0789,-7.0789,-7.0789,-7.0789,-7.0789,-7.0789,-7.0789,-7.0789,-7.0789,-7.0789,-7.0789,-7.0789,-7.0726,-7.0441,-6.9651,-6.9051,-6.8355,-6.7629,-6.7344,-6.779,-6.8872,-7.062,-7.2443,-7.3214,-7.3797,-7.4337,-7.48,-7.533,-7.5595,-7.6125,-7.692,-7.7517,-7.7742,-7.798,-7.8279,-7.8511,-7.8511,-7.8511,-7.8477,-7.8179,-7.798,-7.7848,-7.7914,-7.7848,-7.7782,-7.8431,-7.8874,-7.9217,-7.9734,-8.004,-8.0242,-8.0576,-8.1005,-8.1405,-8.1696,-8.2094,-8.2742,-8.3156,-8.3362,-8.3742,-8.4156,-8.4225,-8.419,-8.4121,-8.4363,-8.4604,-8.4984,-8.5397,-8.5915,-8.6294,-8.6528,-8.6824,-8.6915,-8.71,-8.755,-8.7994,-8.827,-8.8506,-8.8951,-8.9677,-9.0095,-9.0258,-9.0421,-9.0501,-9.0618,-9.0618,-9.0618,-9.0618,-9.0654,-9.1668,-9.2899,-9.3724,-9.4495,-9.5267,-9.602,-9.6223,-9.6612,-9.7138,-9.7641,-9.8054,-9.832,-9.8679,-9.8842,-9.8942,-9.8905,-9.8905,-9.8905,-9.8905,-9.8905,-6.8071,-6.8577,-6.9335,-6.9778,-6.9999,-7.0536,-7.0789,-7.0789,-7.0789,-7.0789,-7.0789,-7.0789,-7.0789,-7.0789,-7.0789,-7.0789,-7.0789,-7.0789,-7.0789,-7.0599,-7.0157,-6.9525,-6.8798,-6.8103,-6.8261,-6.8679,-6.9542,-7.1043,-7.2526,-7.3422,-7.407,-7.4204,-7.49,-7.5529,-7.6192,-7.6788,-7.7417,-7.7947,-7.8179,-7.8345,-7.8378,-7.8511,-7.8511,-7.8511,-7.8511,-7.8411,-7.8279,-7.7848,-7.7616,-7.7517,-7.7689,-7.8369,-7.895,-7.9461,-8.004,-8.0576,-8.0774,-8.1171,-8.1565,-8.204,-8.2335,-8.2714,-8.3563,-8.4391,-8.4737,-8.5156,-8.5397,-8.5363,-8.5225,-8.4742,-8.4846,-8.5018,-8.5363,-8.5777,-8.626,-8.6463,-8.6632,-8.6824,-8.7144,-8.7361,-8.7644,-8.8143,-8.8506,-8.8775,-8.9213,-8.9809,-9.0258,-9.0501,-9.0501,-9.0581,-9.0618,-9.0618,-9.0618,-9.0618,-9.0654,-9.1893,-9.3062,-9.3768,-9.4628,-9.5668,-9.638,-9.6612,-9.7064,-9.757,-9.7955,-9.8291,-9.8552,-9.878,-9.8842,-9.8905,-9.8905,-9.8905,-9.8905,-9.8905,-9.8905]}]]